[[{"header":{"parameterUnit":"m.s-1","parameterCategory":1,"la1":31.0,"la2":29.5877,"lo1":-88.7671,"lo2":-86.6584,"dy":0.0162,"dx":0.0185,"nx":115,"ny":88,"refTime":"2024-06-18T06:00:00:Z","depth":0,"parameterNumber":2,"parameterNumberName":"U-component_of_WINDS"},"data":[0.0,0.0,0.0,0.0,0.0,0.0,0.0,0.0,0.0,0.0,0.0,0.0,0.0,0.0,0.0,0.0,0.0,0.0,0.0,0.0,0.0,0.0,0.0,0.0,0.0,0.0,0.0,0.0,0.0,0.0,0.0,0.0,0.0,0.0,0.0,0.0,0.0,0.0,0.0,0.0,0.0,0.0,0.0,0.0,0.0,0.0,0.0,0.0,0.0,0.0,0.0,0.0,0.0,0.0,0.0,0.0,0.0,0.0,0.0,0.0,0.0,0.0,0.0,0.0,0.0,0.0,0.0,0.0,0.0,0.0,0.0,0.0,0.0,0.0,0.0,0.0,0.0,0.0,0.0,0.0,0.0,0.0,0.0,0.0,0.0,0.0,0.0,0.0,0.0,0.0,0.0,0.0,0.0,0.0,0.0,0.0,0.0,0.0,0.0,0.0,0.0,0.0,0.0,0.0,0.0,0.0,0.0,0.0,0.0,0.0,0.0,0.0,0.0,0.0,0.0,0.0,0.0,0.0,0.0,0.0,0.0,0.0,0.0,0.0,0.0,0.0,0.0,0.0,0.0,0.0,0.0,0.0,0.0,0.0,0.0,0.0,0.0,0.0,0.0,0.0,0.0,0.0,0.0,0.0,0.0,0.0,0.0,0.0,0.0,0.0,0.0,0.0,0.0,0.0,0.0,0.0,0.0,0.0,0.0,0.0,0.0,0.0,0.0,0.0,0.0,0.0,0.0,0.0,0.0,0.0,0.0,0.0,0.0,0.0,0.0,0.0,0.0,0.0,0.0,0.0,0.0,0.0,0.0,0.0,0.0,0.0,0.0,0.0,0.0,0.0,0.0,0.0,0.0,0.0,0.0,0.0,0.0,0.0,0.0,0.0,0.0,0.0,0.0,0.0,0.0,0.0,0.0,0.0,0.0,0.0,0.0,0.0,0.0,0.0,0.0,0.0,0.0,0.0,0.0,0.0,0.0,0.0,0.0,0.0,0.0,0.0,0.0,0.0,0.0,0.0,0.0,0.0,0.0,0.0,0.0,0.0,0.0,0.0,0.0,0.0,0.0,0.0,0.0,0.0,0.0,0.0,0.0,0.0,0.0,0.0,0.0,0.0,0.0,0.0,0.0,0.0,0.0,0.0,0.0,0.0,0.0,0.0,0.0,0.0,0.0,0.0,0.0,0.0,0.0,0.0,0.0,0.0,0.0,0.0,0.0,0.0,0.0,0.0,0.0,0.0,0.0,0.0,0.0,0.0,0.0,0.0,0.0,0.0,0.0,0.0,0.0,0.0,0.0,0.0,0.0,0.0,0.0,0.0,0.0,0.0,0.0,0.0,0.0,0.0,0.0,0.0,0.0,0.0,0.0,0.0,0.0,0.0,0.0,0.0,0.0,0.0,0.0,0.0,0.0,0.0,0.0,0.0,0.0,0.0,0.0,0.0,0.0,0.0,0.0,0.0,0.0,0.0,0.0,0.0,0.0,0.0,0.0,0.0,0.0,0.0,0.0,0.0,0.0,0.0,0.0,0.0,0.0,0.0,0.0,0.0,0.0,0.0,0.0,0.0,0.0,0.0,0.0,0.0,0.0,0.0,0.0,0.0,0.0,0.0,0.0,0.0,0.0,0.0,0.0,0.0,0.0,0.0,0.0,0.0,0.0,0.0,0.0,0.0,0.0,0.0,0.0,0.0,0.0,0.0,0.0,0.0,0.0,0.0,0.0,0.0,0.0,0.0,0.0,0.0,0.0,0.0,0.0,0.0,0.0,0.0,0.0,0.0,0.0,0.0,0.0,0.0,0.0,0.0,0.0,0.0,0.0,0.0,0.0,0.0,0.0,0.0,0.0,0.0,0.0,0.0,0.0,0.0,0.0,0.0,0.0,0.0,0.0,0.0,0.0,0.0,0.0,0.0,0.0,0.0,0.0,0.0,0.0,0.0,0.0,0.0,0.0,0.0,0.0,0.0,0.0,0.0,0.0,0.0,0.0,0.0,0.0,0.0,0.0,0.0,0.0,0.0,0.0,0.0,0.0,0.0,0.0,0.0,0.0,0.0,0.0,0.0,0.0,0.0,0.0,0.0,0.0,0.0,0.0,0.0,0.0,0.0,0.0,0.0,0.0,0.0,0.0,0.0,0.0,0.0,0.0,0.0,0.0,0.0,0.0,0.0,0.0,0.0,0.0,0.0,0.0,0.0,0.0,0.0,0.0,0.0,0.0,0.0,0.0,0.0,0.0,0.0,0.0,0.0,0.0,0.0,0.0,0.0,0.0,0.0,0.0,0.0,0.0,0.0,0.0,0.0,0.0,0.0,0.0,0.0,0.0,0.0,0.0,0.0,0.0,0.0,0.0,0.0,0.0,0.0,0.0,0.0,0.0,0.0,0.0,0.0,0.0,0.0,0.0,0.0,0.0,0.0,0.0,0.0,0.0,0.0,0.0,0.0,0.0,0.0,0.0,0.0,0.0,0.0,0.0,0.0,0.0,0.0,0.0,0.0,0.0,0.0,0.0,0.0,0.0,0.0,0.0,0.0,0.0,0.0,0.0,0.0,0.0,0.0,0.0,0.0,0.0,0.0,0.0,0.0,0.0,0.0,0.0,0.0,0.0,0.0,0.0,0.0,0.0,0.0,0.0,0.0,0.0,0.0,0.0,0.0,0.0,0.0,0.0,0.0,0.0,0.0,0.0,0.0,0.0,0.0,0.0,0.0,0.0,0.0,0.0,0.0,0.0,0.0,0.0,0.0,0.0,0.0,0.0,0.0,0.0,0.0,0.0,0.0,0.0,0.0,0.0,0.0,0.0,0.0,0.0,0.0,0.0,0.0,0.0,0.0,0.0,0.0,0.0,0.0,0.0,0.0,0.0,0.0,0.0,0.0,0.0,0.0,0.0,0.0,0.0,0.0,0.0,0.0,0.0,0.0,0.0,0.0,0.0,0.0,0.0,0.0,0.0,0.0,0.0,0.0,0.0,0.0,0.0,0.0,0.0,0.0,0.0,0.0,0.0,0.0,0.0,0.0,0.0,0.0,0.0,0.0,0.0,0.0,0.0,0.0,0.0,0.0,0.0,0.0,0.0,0.0,0.0,0.0,0.0,0.0,0.0,0.0,0.0,0.0,0.0,0.0,0.0,0.0,0.0,0.0,0.0,0.0,0.0,0.0,0.0,0.0,0.0,0.0,0.0,0.0,0.0,0.0,0.0,0.0,0.0,0.0,0.0,0.0,0.0,0.0,0.0,0.0,0.0,0.0,0.0,0.0,0.0,0.0,0.0,0.0,0.0,0.0,0.0,0.0,0.0,0.0,0.0,0.0,0.0,0.0,0.0,0.0,0.0,0.0,0.0,0.0,0.0,0.0,0.0,0.0,0.0,0.0,0.0,0.0,0.0,0.0,0.0,0.0,0.0,0.0,0.0,0.0,0.0,0.0,0.0,0.0,0.0,0.0,0.0,0.0,0.0,0.0,0.0,0.0,0.0,0.0,0.0,0.0,0.0,0.0,0.0,0.0,0.0,0.0,0.0,0.0,0.0,0.0,0.0,0.0,0.0,0.0,0.0,0.0,0.0,0.0,0.0,0.0,0.0,0.0,0.0,0.0,0.0,0.0,0.0,0.0,0.0,0.0,0.0,0.0,0.0,0.0,0.0,0.0,0.0,0.0,0.0,0.0,0.0,0.0,0.0,0.0,0.0,0.0,0.0,0.0,0.0,0.0,0.0,0.0,0.0,0.0,0.0,0.0,0.0,0.0,0.0,0.0,0.0,0.0,0.0,0.0,0.0,0.0,0.0,0.0,0.0,0.0,0.0,0.0,0.0,0.0,0.0,0.0,0.0,0.0,0.0,0.0,0.0,0.0,0.0,0.0,0.0,0.0,0.0,0.0,0.0,0.0,0.0,0.0,0.0,0.0,0.0,0.0,0.0,0.0,0.0,0.0,0.0,0.0,0.0,0.0,0.0,0.0,0.0,0.0,0.0,0.0,0.0,0.0,0.0,0.0,0.0,0.0,0.0,0.0,0.0,0.0,0.0,0.0,0.0,0.0,0.0,0.0,0.0,0.0,0.0,0.0,0.0,0.0,0.0,0.0,0.0,0.0,0.0,0.0,0.0,0.0,0.0,0.0,0.0,0.0,0.0,0.0,0.0,0.0,0.0,0.0,0.0,0.0,0.0,0.0,0.0,0.0,0.0,0.0,0.0,0.0,0.0,0.0,0.0,0.0,0.0,0.0,0.0,0.0,0.0,0.0,0.0,0.0,0.0,0.0,0.0,0.0,0.0,0.0,-0.3507,0.0,0.0,0.0,0.0,0.0,0.0,0.0,0.0,0.0,0.0,0.0,0.0,0.0,0.0,0.0,0.0,0.0,0.0,0.0,0.0,0.0,0.0,0.0,0.0,0.0,0.0,0.0,0.0,0.0,0.0,0.0,0.0,0.0,0.0,0.0,0.0,0.0,0.0,0.0,0.0,0.0,0.0,0.0,0.0,0.0,0.0,0.0,0.0,0.0,0.0,0.0,0.0,0.0,0.0,0.0,0.0,0.0,0.0,0.0,0.0,0.0,0.0,0.0,0.0,0.0,0.0,0.0,0.0,0.0,0.0,0.0,0.0,0.0,0.0,0.0,0.0,0.0,0.0,0.0,0.0,0.0,0.0,0.0,0.0,0.0,0.0,0.0,0.0,0.0,0.0,0.0,0.0,0.0,0.0,0.0,0.0,0.0,0.0,0.0,0.0,0.0,0.0,0.0,0.0,0.0,0.0,0.0,0.0,0.0,0.0,-0.4376,-0.4217,-0.4373,-0.4399,-0.431,0.0,0.0,0.0,0.0,0.0,0.0,0.0,0.0,0.0,0.0,0.0,0.0,0.0,0.0,0.0,0.0,0.0,0.0,0.0,0.0,0.0,0.0,0.0,0.0,0.0,0.0,0.0,0.0,0.0,0.0,0.0,0.0,0.0,0.0,0.0,0.0,0.0,0.0,0.0,0.0,0.0,0.0,0.0,0.0,0.0,0.0,0.0,0.0,0.0,0.0,0.0,0.0,0.0,0.0,0.0,0.0,0.0,0.0,0.0,0.0,0.0,0.0,0.0,0.0,0.0,0.0,0.0,0.0,0.0,0.0,0.0,0.0,0.0,0.0,0.0,0.0,0.0,0.0,0.0,0.0,0.0,0.0,0.0,0.0,0.0,0.0,0.0,0.0,0.0,0.0,0.0,0.0,0.0,0.0,0.0,0.0,0.0,0.0,0.0,0.0,0.0,0.0,0.0,0.0,0.0,0.0,0.0,0.0,0.0,0.0,0.0,0.0,-0.5693,-0.5668,-0.5297,0.0,0.0,0.0,0.0,0.0,0.0,0.0,0.0,0.0,0.0,0.0,0.0,0.0,0.0,0.0,0.0,0.0,0.0,0.0,0.0,0.0,0.0,0.0,0.0,0.0,0.0,0.0,0.0,0.0,0.0,0.0,0.0,0.0,0.0,0.0,0.0,0.0,0.0,0.0,0.0,0.0,0.0,0.0,0.0,0.0,0.0,0.0,0.0,0.0,0.0,0.0,0.0,0.0,0.0,0.0,0.0,0.0,0.0,0.0,0.0,0.0,0.0,0.0,0.0,0.0,0.0,0.0,0.0,0.0,0.0,0.0,0.0,0.0,0.0,0.0,0.0,0.0,0.0,0.0,0.0,0.0,0.0,0.0,0.0,0.0,0.0,0.0,0.0,0.0,0.0,0.0,0.0,0.0,0.0,0.0,0.0,0.0,0.0,0.0,0.0,0.0,0.0,0.0,0.0,0.0,0.0,0.0,0.0,0.0,0.0,-0.854,-0.9094,-0.8809,0.0,-0.7596,0.0,0.0,0.0,0.0,0.0,0.0,0.0,0.0,0.0,0.0,0.0,0.0,0.0,0.0,0.0,0.0,0.0,0.0,0.0,0.0,0.0,0.0,0.0,0.0,0.0,0.0,0.0,0.0,0.0,0.0,0.0,0.0,0.0,0.0,0.0,0.0,0.0,0.0,0.0,0.0,0.0,0.0,0.0,0.0,0.0,0.0,0.0,0.0,0.0,0.0,0.0,0.0,0.0,0.0,0.0,0.0,0.0,0.0,0.0,0.0,0.0,0.0,0.0,0.0,0.0,0.0,0.0,0.0,0.0,0.0,0.0,0.0,0.0,0.0,0.0,0.0,0.0,0.0,0.0,0.0,0.0,0.0,0.0,0.0,0.0,0.0,0.0,0.0,0.0,0.0,0.0,0.0,0.0,0.0,0.0,0.0,0.0,0.0,0.0,0.0,0.0,0.0,0.0,0.0,0.0,0.0,0.0,0.0,0.0,0.0,-0.9455,-0.9487,-0.9271,-0.8882,0.0,0.0,0.0,0.0,0.0,0.0,0.0,0.0,0.0,0.0,0.0,0.0,0.0,0.0,0.0,0.0,0.0,0.0,0.0,0.0,0.0,0.0,0.0,0.0,0.0,0.0,0.0,0.0,0.0,0.0,0.0,0.0,0.0,0.0,0.0,0.0,0.0,0.0,0.0,0.0,0.0,0.0,0.0,0.0,0.0,0.0,0.0,0.0,0.0,0.0,0.0,0.0,0.0,0.0,0.0,0.0,0.0,0.0,0.0,0.0,0.0,0.0,0.0,0.0,0.0,0.0,0.0,0.0,0.0,0.0,0.0,0.0,0.0,0.0,0.0,0.0,0.0,0.0,0.0,0.0,0.0,0.0,0.0,0.0,0.0,0.0,0.0,0.0,0.0,0.0,0.0,0.0,0.0,0.0,0.0,0.0,0.0,0.0,0.0,0.0,0.0,0.0,0.0,0.0,0.0,0.0,0.0,0.0,0.0,0.0,-0.9657,-0.9848,-0.9661,-0.9502,-0.9138,-0.8506,0.0,0.0,0.0,0.0,0.0,0.0,0.0,0.0,0.0,0.0,0.0,0.0,0.0,0.0,0.0,0.0,0.0,0.0,0.0,0.0,0.0,0.0,0.0,0.0,0.0,0.0,0.0,0.0,0.0,0.0,0.0,0.0,0.0,0.0,0.0,0.0,0.0,0.0,0.0,0.0,0.0,0.0,0.0,0.0,0.0,0.0,0.0,0.0,0.0,0.0,0.0,0.0,0.0,0.0,0.0,0.0,0.0,0.0,0.0,0.0,0.0,0.0,0.0,0.0,0.0,0.0,0.0,0.0,0.0,0.0,0.0,0.0,0.0,0.0,0.0,0.0,0.0,0.0,0.0,0.0,0.0,0.0,0.0,0.0,0.0,0.0,0.0,0.0,0.0,0.0,0.0,0.0,0.0,0.0,0.0,0.0,0.0,0.0,0.0,0.0,0.0,0.0,0.0,0.0,0.0,0.0,0.0,0.0,-1.0161,-0.9964,-0.9971,-1.0249,-1.0062,-0.9501,0.0,0.0,0.0,0.0,0.0,0.0,0.0,0.0,0.0,0.0,0.0,0.0,0.0,0.0,0.0,0.0,0.0,0.0,0.0,0.0,0.0,0.0,0.0,0.0,0.0,0.0,0.0,0.0,0.0,0.0,0.0,0.0,0.0,0.0,0.0,0.0,0.0,0.0,0.0,0.0,0.0,0.0,0.0,0.0,0.0,0.0,0.0,0.0,0.0,0.0,0.0,0.0,0.0,0.0,0.0,0.0,0.0,0.0,0.0,0.0,0.0,0.0,0.0,0.0,0.0,0.0,0.0,0.0,0.0,0.0,0.0,0.0,0.0,0.0,0.0,0.0,0.0,0.0,0.0,0.0,0.0,0.0,0.0,0.0,0.0,0.0,0.0,0.0,0.0,0.0,0.0,0.0,0.0,0.0,0.0,0.0,0.0,0.0,0.0,0.0,0.0,0.0,0.0,0.0,0.0,0.0,0.0,0.0,0.0,-0.9573,-0.9727,-1.0076,-1.0617,-0.991,-0.9252,0.0,0.0,0.0,0.0,0.0,0.0,0.0,0.0,0.0,0.0,0.0,0.0,0.0,0.0,0.0,0.0,0.0,0.0,0.0,0.0,0.0,0.0,0.0,0.0,0.0,0.0,0.0,0.0,0.0,0.0,0.0,0.0,0.0,0.0,0.0,0.0,0.0,0.0,0.0,0.0,0.0,0.0,0.0,0.0,0.0,0.0,0.0,0.0,0.0,0.0,0.0,0.0,0.0,0.0,0.0,0.0,0.0,0.0,0.0,0.0,0.0,0.0,0.0,0.0,0.0,0.0,0.0,0.0,0.0,0.0,0.0,0.0,0.0,0.0,0.0,0.0,0.0,0.0,0.0,0.0,0.0,0.0,0.0,0.0,0.0,0.0,0.0,0.0,0.0,0.0,0.0,0.0,0.0,0.0,0.0,0.0,0.0,0.0,0.0,0.0,0.0,0.0,0.0,0.0,0.0,0.0,0.0,0.0,0.0,-0.9546,0.0,-1.0353,0.0,-0.9924,-0.9239,0.0,0.0,0.0,0.0,0.0,0.0,0.0,0.0,0.0,0.0,0.0,0.0,0.0,0.0,0.0,0.0,0.0,0.0,0.0,0.0,0.0,0.0,0.0,0.0,0.0,0.0,0.0,0.0,0.0,0.0,0.0,0.0,0.0,0.0,0.0,0.0,0.0,0.0,0.0,0.0,0.0,0.0,0.0,0.0,0.0,0.0,0.0,0.0,0.0,0.0,0.0,0.0,0.0,0.0,0.0,0.0,0.0,0.0,0.0,0.0,0.0,0.0,0.0,0.0,0.0,0.0,0.0,0.0,0.0,0.0,0.0,0.0,0.0,0.0,0.0,0.0,0.0,0.0,0.0,0.0,0.0,0.0,0.0,0.0,0.0,0.0,0.0,0.0,0.0,0.0,0.0,0.0,0.0,0.0,0.0,0.0,0.0,0.0,0.0,0.0,0.0,0.0,0.0,0.0,0.0,0.0,0.0,0.0,-0.9743,-1.0306,-1.069,-1.0812,-1.0546,-1.0188,-0.9544,0.0,0.0,0.0,0.0,0.0,0.0,0.0,0.0,0.0,0.0,0.0,0.0,0.0,0.0,0.0,0.0,0.0,0.0,0.0,0.0,0.0,0.0,0.0,0.0,0.0,0.0,0.0,0.0,0.0,0.0,0.0,0.0,0.0,0.0,0.0,0.0,0.0,0.0,0.0,0.0,0.0,0.0,0.0,0.0,0.0,0.0,0.0,0.0,0.0,0.0,0.0,0.0,0.0,0.0,0.0,0.0,0.0,0.0,0.0,0.0,0.0,0.0,0.0,0.0,0.0,0.0,0.0,0.0,0.0,0.0,0.0,0.0,0.0,0.0,0.0,0.0,0.0,0.0,0.0,0.0,0.0,0.0,0.0,0.0,0.0,0.0,0.0,0.0,0.0,0.0,0.0,0.0,0.0,0.0,0.0,0.0,0.0,0.0,0.0,0.0,0.0,0.0,0.0,0.0,0.0,0.0,0.0,0.0,0.0,-1.1191,-1.1312,-1.1552,-1.1891,-1.0949,-1.0273,0.0,0.0,0.0,0.0,0.0,0.0,0.0,0.0,0.0,0.0,0.0,0.0,0.0,0.0,0.0,0.0,0.0,0.0,0.0,0.0,0.0,0.0,0.0,0.0,0.0,0.0,0.0,0.0,0.0,0.0,0.0,0.0,0.0,0.0,0.0,0.0,0.0,0.0,0.0,0.0,0.0,0.0,0.0,0.0,0.0,0.0,0.0,0.0,0.0,0.0,0.0,0.0,0.0,0.0,0.0,0.0,0.0,0.0,0.0,0.0,0.0,0.0,0.0,0.0,0.0,0.0,0.0,0.0,0.0,0.0,0.0,0.0,0.0,0.0,0.0,0.0,0.0,0.0,0.0,0.0,0.0,0.0,0.0,0.0,0.0,0.0,0.0,0.0,0.0,0.0,0.0,0.0,0.0,0.0,0.0,0.0,0.0,0.0,0.0,0.0,0.0,0.0,0.0,0.0,0.0,0.0,0.0,0.0,0.0,-1.2329,-1.2157,-1.2157,-1.2363,-1.1503,-1.0868,-1.0494,0.0,0.0,0.0,0.0,0.0,0.0,0.0,0.0,0.0,0.0,0.0,0.0,0.0,0.0,0.0,0.0,0.0,0.0,0.0,0.0,0.0,0.0,0.0,0.0,0.0,0.0,0.0,0.0,0.0,0.0,0.0,0.0,0.0,0.0,0.0,0.0,0.0,0.0,0.0,0.0,0.0,0.0,0.0,0.0,0.0,0.0,0.0,0.0,0.0,0.0,0.0,0.0,0.0,0.0,0.0,0.0,0.0,0.0,0.0,0.0,0.0,0.0,0.0,0.0,0.0,0.0,0.0,0.0,0.0,0.0,0.0,0.0,0.0,0.0,0.0,0.0,0.0,0.0,0.0,0.0,0.0,0.0,0.0,0.0,0.0,0.0,0.0,0.0,0.0,0.0,0.0,0.0,0.0,0.0,0.0,0.0,0.0,0.0,0.0,0.0,0.0,0.0,0.0,0.0,0.0,0.0,0.0,0.0,-1.3601,-1.312,-1.2665,-1.218,-1.1955,-1.14,0.0,0.0,0.0,0.0,0.0,0.0,0.0,0.0,0.0,0.0,0.0,0.0,0.0,0.0,0.0,0.0,0.0,0.0,0.0,0.0,0.0,0.0,0.0,0.0,0.0,0.0,0.0,0.0,0.0,0.0,0.0,0.0,0.0,0.0,0.0,0.0,0.0,0.0,0.0,0.0,0.0,0.0,0.0,0.0,0.0,0.0,0.0,0.0,0.0,0.0,0.0,0.0,0.0,0.0,0.0,0.0,0.0,0.0,0.0,0.0,0.0,0.0,0.0,0.0,0.0,0.0,0.0,0.0,0.0,0.0,0.0,0.0,0.0,0.0,0.0,0.0,0.0,0.0,0.0,0.0,0.0,0.0,0.0,0.0,0.0,0.0,0.0,0.0,0.0,0.0,0.0,0.0,0.0,0.0,0.0,0.0,0.0,0.0,0.0,0.0,0.0,0.0,0.0,0.0,0.0,0.0,0.0,0.0,0.0,-1.3644,-1.385,-1.3892,-1.3741,-1.2964,-1.229,0.0,0.0,0.0,0.0,0.0,0.0,0.0,0.0,0.0,0.0,0.0,0.0,0.0,0.0,0.0,0.0,0.0,0.0,0.0,0.0,0.0,0.0,0.0,0.0,0.0,0.0,0.0,0.0,0.0,0.0,0.0,0.0,0.0,0.0,0.0,0.0,0.0,0.0,0.0,0.0,0.0,0.0,0.0,0.0,0.0,0.0,0.0,0.0,0.0,0.0,0.0,0.0,0.0,0.0,0.0,0.0,0.0,0.0,0.0,0.0,0.0,0.0,0.0,0.0,0.0,0.0,0.0,0.0,0.0,0.0,0.0,0.0,0.0,0.0,0.0,0.0,0.0,0.0,0.0,0.0,0.0,0.0,0.0,0.0,0.0,0.0,0.0,0.0,0.0,0.0,0.0,0.0,0.0,0.0,0.0,0.0,0.0,0.0,0.0,0.0,0.0,0.0,0.0,0.0,0.0,0.0,0.0,0.0,-1.5364,-1.4989,-1.4674,-1.4476,-1.4395,-1.3766,-1.3084,0.0,0.0,0.0,0.0,0.0,0.0,0.0,0.0,0.0,0.0,0.0,0.0,0.0,0.0,0.0,0.0,0.0,0.0,0.0,0.0,0.0,0.0,0.0,0.0,0.0,0.0,0.0,0.0,0.0,0.0,0.0,0.0,0.0,0.0,0.0,0.0,0.0,0.0,0.0,0.0,0.0,0.0,0.0,0.0,0.0,0.0,0.0,0.0,0.0,0.0,0.0,0.0,0.0,0.0,0.0,0.0,0.0,0.0,0.0,0.0,0.0,0.0,0.0,0.0,0.0,0.0,0.0,0.0,0.0,0.0,0.0,0.0,0.0,0.0,0.0,0.0,0.0,0.0,0.0,0.0,0.0,0.0,0.0,0.0,0.0,0.0,0.0,0.0,0.0,0.0,0.0,0.0,0.0,0.0,0.0,0.0,0.0,0.0,0.0,0.0,0.0,0.0,0.0,0.0,0.0,0.0,0.0,0.0,-1.6374,-1.7112,-1.5892,-1.5048,-1.4654,-1.4326,-1.3695,0.0,0.0,0.0,0.0,0.0,0.0,0.0,0.0,0.0,0.0,0.0,0.0,0.0,0.0,0.0,0.0,0.0,0.0,0.0,0.0,0.0,0.0,0.0,0.0,0.0,0.0,0.0,0.0,0.0,0.0,0.0,0.0,0.0,0.0,0.0,0.0,0.0,0.0,0.0,0.0,0.0,0.0,0.0,0.0,0.0,0.0,0.0,0.0,0.0,0.0,0.0,0.0,0.0,0.0,0.0,0.0,0.0,0.0,0.0,0.0,0.0,0.0,0.0,0.0,0.0,0.0,0.0,0.0,0.0,0.0,0.0,0.0,0.0,0.0,0.0,0.0,0.0,0.0,0.0,0.0,0.0,0.0,0.0,0.0,0.0,0.0,0.0,0.0,0.0,0.0,0.0,0.0,0.0,0.0,0.0,0.0,0.0,0.0,0.0,0.0,0.0,0.0,0.0,0.0,0.0,0.0,0.0,0.0,-1.9402,-1.8789,-1.8729,-1.7976,-1.6407,-1.4803,-1.3587,0.0,0.0,0.0,0.0,0.0,0.0,0.0,0.0,0.0,0.0,0.0,0.0,0.0,0.0,0.0,0.0,0.0,0.0,0.0,0.0,0.0,0.0,0.0,0.0,0.0,0.0,0.0,0.0,0.0,0.0,0.0,0.0,0.0,0.0,0.0,0.0,0.0,0.0,0.0,0.0,0.0,0.0,0.0,0.0,0.0,0.0,0.0,0.0,-1.0142,0.0,0.0,0.0,0.0,0.0,0.0,0.0,0.0,0.0,0.0,0.0,0.0,0.0,0.0,0.0,0.0,0.0,0.0,0.0,0.0,0.0,0.0,0.0,0.0,0.0,0.0,0.0,0.0,0.0,0.0,0.0,0.0,0.0,0.0,0.0,0.0,0.0,0.0,0.0,0.0,0.0,0.0,0.0,0.0,0.0,0.0,0.0,0.0,0.0,0.0,0.0,0.0,0.0,0.0,0.0,0.0,0.0,0.0,0.0,-2.0828,-2.0628,-2.0094,-1.9202,-1.7945,-1.6909,-1.5634,0.0,0.0,0.0,0.0,0.0,0.0,0.0,0.0,0.0,0.0,0.0,0.0,0.0,0.0,0.0,0.0,0.0,0.0,0.0,0.0,0.0,0.0,0.0,0.0,0.0,0.0,0.0,0.0,0.0,0.0,0.0,0.0,0.0,0.0,0.0,0.0,0.0,0.0,0.0,0.0,0.0,0.0,0.0,0.0,0.0,0.0,0.0,0.0,0.0,0.0,0.0,0.0,0.0,0.0,0.0,0.0,0.0,0.0,0.0,0.0,0.0,0.0,0.0,0.0,0.0,0.0,0.0,0.0,0.0,0.0,0.0,0.0,0.0,0.0,0.0,0.0,0.0,0.0,0.0,0.0,0.0,0.0,0.0,0.0,0.0,0.0,0.0,0.0,0.0,0.0,0.0,0.0,0.0,0.0,0.0,0.0,0.0,0.0,0.0,0.0,0.0,0.0,0.0,0.0,0.0,0.0,0.0,-2.1863,-2.1795,-2.2546,-2.1314,-2.0255,-1.9511,-1.942,-1.8393,-1.6225,0.0,0.0,0.0,0.0,0.0,0.0,0.0,0.0,0.0,0.0,0.0,0.0,0.0,0.0,0.0,0.0,0.0,0.0,0.0,0.0,0.0,0.0,0.0,0.0,0.0,0.0,0.0,0.0,0.0,0.0,0.0,0.0,0.0,0.0,0.0,0.0,0.0,0.0,-1.4937,-1.4415,0.0,0.0,0.0,0.0,0.0,0.0,0.0,0.0,-1.1159,0.0,0.0,0.0,0.0,0.0,0.0,0.0,0.0,0.0,0.0,0.0,0.0,0.0,0.0,0.0,0.0,0.0,0.0,0.0,0.0,0.0,0.0,0.0,0.0,0.0,0.0,0.0,0.0,0.0,0.0,0.0,0.0,0.0,0.0,0.0,0.0,0.0,0.0,0.0,0.0,0.0,0.0,0.0,0.0,0.0,0.0,0.0,0.0,0.0,0.0,0.0,0.0,0.0,0.0,0.0,0.0,-2.4052,-2.3646,-2.3825,-2.467,-2.4438,-2.3305,-2.1222,-2.0947,-2.0434,-1.9478,0.0,0.0,0.0,0.0,0.0,0.0,0.0,0.0,0.0,0.0,0.0,0.0,0.0,0.0,0.0,0.0,0.0,0.0,0.0,0.0,0.0,0.0,0.0,0.0,0.0,0.0,0.0,0.0,0.0,0.0,0.0,0.0,0.0,0.0,0.0,0.0,0.0,0.0,0.0,-1.5328,-1.5292,0.0,0.0,0.0,0.0,0.0,0.0,0.0,0.0,-1.2809,0.0,0.0,0.0,0.0,0.0,0.0,0.0,0.0,0.0,0.0,0.0,0.0,0.0,0.0,0.0,0.0,0.0,0.0,0.0,0.0,0.0,0.0,0.0,0.0,0.0,0.0,0.0,0.0,0.0,0.0,0.0,0.0,0.0,0.0,0.0,0.0,0.0,0.0,0.0,0.0,0.0,0.0,0.0,0.0,0.0,0.0,0.0,0.0,0.0,0.0,0.0,0.0,0.0,0.0,0.0,-2.3859,-2.4038,-2.4451,-2.5162,-2.5203,-2.4501,-2.3005,-2.2531,-2.2082,0.0,0.0,0.0,0.0,0.0,0.0,0.0,0.0,0.0,0.0,0.0,0.0,0.0,0.0,0.0,0.0,0.0,0.0,0.0,0.0,0.0,0.0,0.0,0.0,0.0,0.0,0.0,0.0,0.0,0.0,0.0,0.0,0.0,0.0,0.0,0.0,0.0,0.0,0.0,0.0,-1.6655,-1.6578,-1.5902,0.0,0.0,0.0,0.0,0.0,0.0,-1.48,-1.4309,0.0,0.0,0.0,0.0,0.0,0.0,0.0,0.0,0.0,0.0,0.0,0.0,0.0,0.0,0.0,0.0,0.0,0.0,0.0,0.0,0.0,0.0,0.0,0.0,0.0,0.0,0.0,0.0,0.0,0.0,0.0,0.0,0.0,0.0,0.0,0.0,0.0,0.0,0.0,0.0,0.0,0.0,0.0,0.0,0.0,0.0,0.0,0.0,0.0,0.0,0.0,0.0,0.0,0.0,0.0,-2.3487,-2.3976,-2.4559,-2.5162,-2.5203,-2.4866,-2.4208,-2.3682,-2.3241,0.0,0.0,0.0,0.0,0.0,0.0,0.0,0.0,0.0,0.0,0.0,0.0,0.0,0.0,0.0,0.0,0.0,0.0,0.0,0.0,0.0,0.0,0.0,0.0,0.0,0.0,0.0,0.0,0.0,0.0,0.0,0.0,0.0,0.0,0.0,0.0,0.0,0.0,0.0,0.0,0.0,-1.8112,-1.7023,-1.6911,0.0,0.0,0.0,0.0,-1.6446,-1.6089,0.0,0.0,0.0,0.0,0.0,0.0,0.0,0.0,0.0,0.0,0.0,0.0,0.0,0.0,0.0,0.0,0.0,0.0,0.0,0.0,0.0,0.0,0.0,0.0,0.0,0.0,0.0,0.0,0.0,0.0,0.0,0.0,0.0,0.0,0.0,0.0,0.0,0.0,0.0,0.0,0.0,0.0,0.0,0.0,0.0,0.0,0.0,0.0,0.0,0.0,0.0,0.0,0.0,0.0,0.0,0.0,-2.3472,-2.3806,-2.4344,-2.5171,-2.5203,-2.4757,-2.3901,-2.3812,-2.3375,0.0,0.0,0.0,0.0,0.0,0.0,0.0,0.0,0.0,0.0,0.0,0.0,0.0,0.0,0.0,0.0,0.0,0.0,0.0,0.0,0.0,0.0,0.0,0.0,0.0,0.0,0.0,0.0,0.0,0.0,0.0,0.0,0.0,0.0,0.0,0.0,0.0,0.0,0.0,0.0,0.0,-2.0513,-1.9883,-2.0015,-2.0068,0.0,0.0,-1.9289,-1.9318,-1.8347,0.0,0.0,0.0,0.0,0.0,0.0,0.0,0.0,0.0,0.0,0.0,0.0,0.0,0.0,0.0,0.0,0.0,0.0,0.0,0.0,0.0,0.0,0.0,0.0,0.0,0.0,0.0,0.0,0.0,0.0,0.0,0.0,0.0,0.0,0.0,0.0,0.0,0.0,0.0,0.0,0.0,0.0,0.0,0.0,0.0,0.0,0.0,0.0,0.0,0.0,0.0,0.0,0.0,0.0,0.0,-2.2563,-2.3456,-2.4108,-2.4657,-2.5162,-2.5203,-2.4843,-2.4101,-2.3713,-2.3147,0.0,0.0,0.0,0.0,0.0,0.0,0.0,0.0,0.0,0.0,0.0,0.0,0.0,0.0,0.0,0.0,0.0,0.0,0.0,0.0,0.0,0.0,0.0,0.0,0.0,0.0,0.0,0.0,0.0,0.0,0.0,0.0,0.0,0.0,0.0,0.0,0.0,0.0,0.0,0.0,0.0,0.0,-2.107,-2.0966,0.0,0.0,0.0,-2.001,-2.004,0.0,0.0,0.0,0.0,0.0,0.0,0.0,0.0,0.0,0.0,0.0,0.0,0.0,0.0,0.0,0.0,0.0,0.0,0.0,0.0,0.0,0.0,0.0,0.0,0.0,0.0,0.0,0.0,0.0,0.0,0.0,0.0,0.0,0.0,0.0,0.0,0.0,0.0,0.0,0.0,0.0,0.0,0.0,0.0,0.0,0.0,0.0,0.0,0.0,0.0,0.0,0.0,0.0,0.0,0.0,0.0,0.0,-2.3347,-2.4255,-2.4888,-2.515,-2.5201,-2.492,-2.439,-2.3776,0.0,0.0,0.0,0.0,0.0,0.0,0.0,0.0,0.0,0.0,0.0,0.0,0.0,0.0,0.0,0.0,0.0,0.0,0.0,0.0,0.0,0.0,0.0,0.0,0.0,0.0,0.0,-1.5899,0.0,0.0,0.0,0.0,0.0,0.0,0.0,0.0,0.0,0.0,0.0,0.0,0.0,0.0,-2.1323,-2.1573,-2.1452,-2.1323,0.0,0.0,-2.0424,-2.041,-2.0184,-1.9947,0.0,0.0,0.0,0.0,0.0,0.0,0.0,0.0,0.0,0.0,0.0,0.0,0.0,0.0,0.0,0.0,0.0,0.0,0.0,0.0,0.0,0.0,0.0,0.0,0.0,0.0,0.0,0.0,-2.1149,0.0,0.0,0.0,0.0,0.0,0.0,0.0,0.0,0.0,0.0,0.0,0.0,0.0,0.0,0.0,0.0,0.0,0.0,0.0,0.0,0.0,0.0,0.0,0.0,0.0,-2.2338,-2.2948,-2.4031,-2.4793,-2.5112,-2.5088,-2.4941,-2.4583,-2.4071,-2.3335,0.0,0.0,0.0,0.0,0.0,0.0,0.0,0.0,0.0,0.0,0.0,0.0,0.0,0.0,0.0,0.0,0.0,0.0,0.0,0.0,0.0,0.0,0.0,0.0,0.0,0.0,0.0,0.0,0.0,0.0,0.0,0.0,0.0,0.0,0.0,0.0,0.0,0.0,0.0,0.0,0.0,-2.1587,-2.1601,-2.1803,-2.1924,0.0,0.0,-2.1056,-2.1056,-2.0802,-2.0378,-1.9562,0.0,0.0,0.0,0.0,0.0,0.0,0.0,0.0,0.0,0.0,0.0,0.0,0.0,0.0,0.0,0.0,0.0,0.0,0.0,0.0,0.0,0.0,0.0,0.0,0.0,-1.8994,0.0,0.0,-2.0125,0.0,0.0,0.0,0.0,0.0,0.0,0.0,0.0,0.0,0.0,0.0,0.0,0.0,0.0,0.0,0.0,0.0,0.0,0.0,0.0,0.0,0.0,0.0,0.0,-2.2552,-2.3153,-2.4315,-2.505,-2.5331,-2.5344,-2.5211,-2.4917,-2.4516,-2.3621,0.0,0.0,0.0,0.0,0.0,0.0,0.0,0.0,0.0,0.0,0.0,0.0,0.0,0.0,0.0,0.0,0.0,0.0,0.0,0.0,0.0,0.0,0.0,0.0,0.0,0.0,0.0,0.0,-1.7742,-1.7862,-1.8329,0.0,0.0,0.0,0.0,0.0,0.0,0.0,0.0,0.0,0.0,-2.1979,-2.2348,-2.231,0.0,0.0,-2.1911,-2.1643,-2.1643,-2.1096,-2.0592,-2.0258,-1.9762,0.0,0.0,0.0,0.0,0.0,0.0,0.0,0.0,0.0,0.0,0.0,0.0,0.0,0.0,0.0,0.0,0.0,0.0,0.0,0.0,0.0,0.0,0.0,0.0,0.0,0.0,0.0,0.0,0.0,0.0,0.0,0.0,0.0,0.0,0.0,0.0,0.0,0.0,0.0,0.0,0.0,0.0,0.0,0.0,0.0,0.0,0.0,0.0,0.0,0.0,0.0,0.0,-2.2859,-2.346,-2.4609,-2.5358,-2.5638,-2.5651,-2.5545,-2.5382,-2.489,-2.3968,0.0,0.0,0.0,0.0,0.0,0.0,0.0,0.0,0.0,0.0,0.0,0.0,0.0,0.0,0.0,0.0,0.0,0.0,0.0,0.0,0.0,0.0,0.0,0.0,0.0,0.0,0.0,0.0,-1.8384,-1.8448,-1.8998,0.0,0.0,0.0,0.0,0.0,0.0,0.0,0.0,0.0,0.0,-2.2171,-2.2673,-2.2633,-2.2552,-2.2552,-2.2298,-2.2084,-2.2004,-2.1502,-2.102,-2.0739,0.0,0.0,0.0,0.0,0.0,0.0,0.0,0.0,0.0,0.0,0.0,0.0,0.0,0.0,0.0,0.0,0.0,0.0,0.0,0.0,0.0,0.0,0.0,0.0,0.0,0.0,0.0,-1.7932,0.0,0.0,-1.9978,0.0,0.0,0.0,0.0,0.0,0.0,0.0,0.0,0.0,0.0,0.0,0.0,0.0,0.0,0.0,0.0,0.0,0.0,0.0,0.0,0.0,0.0,-2.3174,-2.3803,-2.4903,-2.5638,-2.5971,-2.5984,-2.5984,-2.5957,-2.5104,-2.4306,-2.3736,0.0,0.0,0.0,0.0,0.0,0.0,0.0,0.0,0.0,0.0,0.0,0.0,0.0,0.0,0.0,0.0,0.0,0.0,0.0,0.0,0.0,0.0,0.0,0.0,0.0,0.0,-1.8544,-1.8744,-1.9025,0.0,0.0,0.0,0.0,0.0,0.0,0.0,0.0,0.0,0.0,-2.1636,-2.2117,-2.2392,-2.2706,-2.2893,-2.2907,-2.2619,-2.2325,-2.2058,-2.1977,-2.167,0.0,0.0,0.0,0.0,0.0,0.0,0.0,0.0,0.0,0.0,0.0,0.0,0.0,0.0,0.0,0.0,0.0,0.0,0.0,0.0,0.0,0.0,0.0,0.0,0.0,0.0,0.0,-1.6876,-1.7284,0.0,0.0,0.0,0.0,0.0,0.0,0.0,0.0,0.0,0.0,0.0,-2.1201,-2.1649,0.0,0.0,0.0,0.0,0.0,0.0,0.0,0.0,0.0,0.0,0.0,0.0,-2.306,-2.4048,-2.5024,-2.5745,-2.6265,-2.6292,-2.6279,-2.6239,-2.581,-2.477,-2.3255,0.0,0.0,0.0,0.0,0.0,0.0,0.0,0.0,0.0,0.0,0.0,0.0,0.0,0.0,0.0,0.0,0.0,0.0,0.0,0.0,0.0,0.0,0.0,0.0,0.0,-1.9214,0.0,0.0,0.0,0.0,0.0,0.0,0.0,0.0,0.0,0.0,0.0,-2.1537,-2.1924,-2.2325,-2.2719,-2.2945,-2.31,-2.3233,0.0,0.0,0.0,0.0,0.0,0.0,0.0,0.0,0.0,0.0,0.0,0.0,0.0,0.0,-2.0557,-1.9338,-1.8852,-1.8536,-1.8394,0.0,0.0,0.0,0.0,0.0,0.0,0.0,0.0,0.0,0.0,0.0,0.0,0.0,0.0,-1.6415,0.0,-1.7274,0.0,0.0,0.0,0.0,0.0,0.0,0.0,0.0,-2.271,-2.2247,-2.0698,-2.1232,-2.1126,0.0,-2.0226,-2.1225,0.0,0.0,0.0,0.0,0.0,0.0,0.0,0.0,-2.3474,-2.4623,-2.5317,-2.5905,-2.636,-2.64,-2.64,-2.6386,-2.6012,-2.5021,-2.3268,-2.2479,-2.1617,0.0,0.0,0.0,0.0,0.0,0.0,0.0,0.0,0.0,0.0,0.0,0.0,0.0,0.0,0.0,0.0,0.0,0.0,0.0,0.0,0.0,0.0,0.0,-1.9401,0.0,0.0,0.0,0.0,0.0,0.0,0.0,0.0,0.0,-2.1443,-2.1924,-2.2445,-2.2846,-2.3094,-2.3287,-2.3581,0.0,0.0,0.0,0.0,0.0,0.0,0.0,-2.2752,-2.2385,-2.2058,-2.1777,-2.147,-2.1657,-2.1823,-2.1655,0.0,0.0,-2.0391,-1.9877,-1.9621,-1.9559,-1.9253,-1.8966,-1.8805,-1.8589,-1.8492,0.0,0.0,0.0,0.0,0.0,0.0,0.0,0.0,-1.6785,-1.672,0.0,-1.8015,0.0,0.0,0.0,0.0,0.0,-2.1397,0.0,0.0,-2.2687,-2.2888,-2.2156,-2.2511,-2.2578,-2.2168,-2.2261,-2.2833,-2.3586,-2.1976,0.0,0.0,0.0,0.0,0.0,0.0,-2.4369,-2.5451,-2.5798,-2.6131,-2.6386,-2.64,-2.64,-2.6373,-2.5838,-2.4997,-2.3924,-2.3803,-2.2867,-2.0882,-2.1002,0.0,0.0,0.0,0.0,0.0,0.0,0.0,0.0,0.0,0.0,0.0,0.0,0.0,0.0,0.0,0.0,0.0,0.0,0.0,0.0,-1.9415,0.0,0.0,0.0,0.0,0.0,0.0,0.0,0.0,0.0,0.0,-2.2245,-2.2639,-2.3174,-2.375,0.0,0.0,0.0,0.0,-2.3857,-2.3884,-2.387,-2.3728,-2.3399,-2.3607,-2.3616,-2.3014,0.0,0.0,-2.2191,-2.2285,-2.2298,-2.1756,-2.1897,-2.197,-2.1649,-2.1296,-2.0997,-2.0775,-2.046,-2.0247,-2.0189,-1.9702,-1.9663,-1.829,0.0,0.0,0.0,0.0,-1.7037,-1.7204,-1.7601,-1.7646,-1.746,-1.7192,-1.7821,0.0,0.0,0.0,0.0,0.0,0.0,-2.1835,-2.082,-2.1319,-2.0749,-1.9369,-1.952,-1.9441,-1.9157,-1.8982,-1.9559,-2.0702,-2.0315,-2.135,-2.3634,0.0,0.0,0.0,0.0,-2.497,-2.5491,-2.585,-2.6145,-2.6373,-2.64,-2.64,-2.6386,-2.6026,-2.5478,-2.4767,-2.4302,-2.3607,-2.2619,-2.2031,0.0,0.0,0.0,0.0,0.0,0.0,0.0,0.0,0.0,0.0,0.0,0.0,0.0,0.0,0.0,0.0,0.0,0.0,0.0,-1.996,-1.98,-2.0013,0.0,0.0,0.0,0.0,0.0,0.0,0.0,0.0,0.0,-2.4209,-2.4379,-2.4436,0.0,0.0,-2.4663,-2.4529,-2.4623,-2.4783,-2.4983,0.0,0.0,0.0,-2.4292,-2.4182,-2.3643,-2.3616,-2.3554,-2.3335,-2.3362,-2.326,-2.2873,-2.2886,-2.2779,-2.2271,-2.1937,-2.1724,-2.1617,-2.1375,-2.1063,-2.0802,-2.0479,-2.0445,-1.8798,-1.8131,-1.8068,-1.784,-1.7514,-1.7477,-1.7632,-1.7942,-1.798,-1.7829,-1.7594,-1.7769,-1.7964,-1.8051,-1.7218,0.0,0.0,0.0,-2.0807,-1.9917,-2.012,-1.9561,-1.8451,-1.846,-1.8403,-1.8233,-1.8022,-1.8723,-2.0129,-1.9437,-2.062,-2.3402,0.0,0.0,-2.2667,-2.3896,-2.4636,-2.4983,-2.5846,-2.6333,-2.6386,-2.64,-2.64,-2.6386,-2.6145,-2.5837,-2.5476,-2.4863,-2.4275,-2.3665,-2.2375,-2.099,0.0,0.0,0.0,0.0,0.0,0.0,0.0,0.0,0.0,0.0,0.0,-1.9192,-1.889,0.0,0.0,0.0,-1.9114,-2.0014,-2.0833,-2.0975,0.0,0.0,0.0,0.0,0.0,0.0,0.0,-2.4258,-2.4796,-2.5224,-2.5411,-2.5569,-2.5491,-2.5197,-2.5211,-2.5224,-2.517,0.0,-2.5317,-2.5491,-2.5518,-2.5346,-2.4999,-2.4946,-2.4823,-2.4369,-2.4182,-2.4062,-2.3955,-2.3977,-2.3834,-2.3581,-2.35,-2.3354,-2.2838,-2.2632,-2.2378,-2.2091,-2.1859,-2.1628,-2.1424,-2.148,-2.1797,-1.9238,-1.8468,-1.8368,-1.8093,-1.7799,-1.799,-1.8041,-1.8012,-1.7879,-1.793,-1.8077,-1.7936,-1.7684,-1.7336,-1.7528,0.0,-1.7917,-1.8623,-1.8939,-1.8906,-1.9125,-1.9012,-1.864,-1.8834,-1.8858,-1.8624,-1.868,-1.949,-2.0832,-1.9134,-1.9594,-2.2171,-2.1344,-2.09,-2.1035,-2.2676,-2.3653,-2.3925,-2.5671,-2.6467,-2.6202,-2.6188,-2.6136,-2.5938,-2.5727,-2.5569,-2.5516,-2.4977,-2.4438,-2.3812,-2.1985,-2.0477,-1.9475,0.0,0.0,0.0,0.0,0.0,0.0,0.0,0.0,0.0,0.0,0.0,0.0,0.0,0.0,-1.6551,-1.8214,0.0,-2.1587,-2.2206,0.0,0.0,0.0,-2.3174,-2.3686,-2.4199,-2.4661,-2.5117,0.0,0.0,-2.6038,0.0,-2.6332,-2.6065,-2.5758,-2.5665,-2.5957,-2.5732,-2.5585,-2.5611,-2.5598,-2.5571,-2.5531,-2.5453,-2.5344,-2.505,-2.485,-2.4569,-2.4302,-2.4235,-2.4128,-2.3897,-2.3843,-2.3701,-2.342,-2.3327,-2.3113,-2.2325,-2.2158,-2.2091,-2.2248,-2.2747,-2.3533,-1.8604,-1.832,-1.8288,-1.8039,-1.7659,-1.7687,-1.7639,-1.7627,-1.8017,-1.8047,-1.7905,-1.8225,-1.8114,-1.7692,-1.7717,-1.7752,-1.7846,-1.8154,-1.8331,-1.8331,-1.8376,-1.8217,-1.7905,-1.8322,-1.8386,-1.8151,-1.848,-1.8888,-1.9269,-1.8806,-1.8878,-1.9442,-1.9251,-1.9936,-2.1526,-2.2459,-2.28,-2.2494,-2.4063,-2.4735,-2.444,-2.4415,-2.3747,-2.2304,-2.2247,-2.199,-2.1585,-2.1448,-2.1216,-2.086,-1.9826,-1.8684,-1.7404,-1.6997,0.0,0.0,0.0,0.0,0.0,0.0,0.0,0.0,0.0,-1.7882,-1.8016,0.0,-1.7433,0.0,-1.7693,-1.8478,-1.9317,-1.9284,0.0,0.0,-2.0254,-2.0946,-2.3221,-2.3399,-2.3933,-2.5589,-2.6105,-2.6293,-2.6293,-2.6346,-2.636,-2.6293,-2.6226,-2.6172,-2.6024,-2.6145,-2.6186,-2.6172,-2.6159,-2.6106,-2.5917,-2.5651,-2.5424,-2.5168,-2.5061,-2.4877,-2.4583,-2.4492,-2.4399,-2.4168,-2.4102,-2.3981,-2.375,-2.3661,-2.3607,-2.3402,-2.3014,-2.295,-2.3785,-2.4126,-2.4714,-1.8769,-1.8525,-1.8593,-1.8396,-1.7974,-1.7826,-1.7609,-1.7521,-1.777,-1.7806,-1.7646,-1.7833,-1.7785,-1.7485,-1.7683,-1.7741,-1.7734,-1.8144,-1.8277,-1.8217,-1.8217,-1.8083,-1.7838,-1.8132,-1.8244,-1.8244,-1.8539,-1.8833,-1.9061,-1.8915,-1.8834,-1.8858,-1.8703,-1.9202,-2.0428,-2.1328,-2.1628,-2.1242,-2.2564,-2.3113,-2.2785,-2.2774,-2.2229,-2.1076,-2.0866,-2.0654,-2.0444,-2.0162,-1.9989,-1.9876,-1.8644,-1.7447,-1.6499,-1.5841,-1.5456,0.0,0.0,0.0,0.0,0.0,0.0,0.0,0.0,0.0,0.0,0.0,-1.7121,-1.7771,-1.7846,-1.8326,-1.938,-1.9656,-2.0022,-2.07,-2.044,-2.1149,-2.3456,-2.3544,-2.4143,-2.595,-2.6293,-2.64,-2.64,-2.64,-2.64,-2.64,-2.64,-2.6333,-2.6238,-2.6293,-2.64,-2.64,-2.64,-2.6346,-2.6198,-2.5944,-2.5703,-2.5543,-2.5396,-2.517,-2.489,-2.4836,-2.4743,-2.4462,-2.4396,-2.4302,-2.4035,-2.4004,-2.3928,-2.379,-2.3536,-2.37,-2.4529,-2.5516,-2.6559,-1.9237,-1.8949,-1.8979,-1.885,-1.8559,-1.8152,-1.7874,-1.7642,-1.7561,-1.7487,-1.7385,-1.727,-1.7121,-1.7058,-1.751,-1.7628,-1.7559,-1.8112,-1.8358,-1.8233,-1.8233,-1.8093,-1.7931,-1.7982,-1.8191,-1.8471,-1.8571,-1.8799,-1.9267,-1.8994,-1.8987,-1.9223,-1.8907,-1.8753,-1.8858,-1.9955,-2.039,-2.0228,-2.1205,-2.1558,-2.123,-2.1178,-2.0905,-2.0373,-2.0043,-1.9936,-2.0001,-1.9507,-1.9287,-1.9304,-1.7644,-1.6497,-1.6142,-1.4748,-1.4329,0.0,-1.5247,0.0,0.0,0.0,0.0,0.0,0.0,0.0,0.0,-1.6177,-1.6673,-1.8131,-1.8058,-1.8527,-1.9976,-2.0755,-2.1149,-2.1128,-2.1149,-2.1763,-2.3254,-2.3464,-2.4142,-2.591,-2.6149,-2.6202,-2.6427,-2.6466,-2.6546,-2.648,-2.6466,-2.644,-2.6386,-2.6386,-2.64,-2.64,-2.64,-2.6386,-2.6346,-2.6212,-2.6038,-2.5971,-2.577,-2.5478,-2.5184,-2.513,-2.505,-2.4786,-2.4733,-2.4639,-2.4422,-2.4356,-2.4235,-2.4084,-2.4116,-2.4467,-2.5331,-2.663,-2.8048,-1.9569,-1.9528,-1.925,-1.9061,-1.8884,-1.8681,-1.8369,-1.8009,-1.7982,-1.7833,-1.7534,-1.7317,-1.7175,-1.7141,-1.7138,-1.7115,-1.7095,-1.7227,-1.7279,-1.7252,-1.7252,-1.7169,-1.7017,-1.7423,-1.753,-1.7422,-1.7818,-1.8051,-1.8015,-1.8091,-1.8336,-1.8825,-1.8896,-1.9065,-1.9354,0.0,0.0,0.0,-2.0141,-1.9961,-1.9642,-1.9622,-1.8764,-1.7016,-1.6776,0.0,-1.6233,-1.6147,-1.6074,-1.6104,-1.5629,0.0,0.0,0.0,0.0,0.0,0.0,0.0,0.0,0.0,0.0,0.0,-1.6092,-1.5505,-1.6204,-1.6022,-1.6054,-1.6449,-1.6741,-1.7079,-1.7468,-1.7519,-1.7605,-1.7708,-1.7639,-1.8238,-1.9874,-2.0167,-2.1232,-2.4166,-2.4759,-2.5351,-2.6546,-2.6947,-2.6987,-2.6787,-2.6747,-2.664,-2.6426,-2.64,-2.64,-2.64,-2.64,-2.64,-2.64,-2.6333,-2.6199,-2.6065,-2.5957,-2.5758,-2.5504,-2.5438,-2.5438,-2.5331,-2.5344,-2.528,-2.5251,-2.5077,-2.4863,-2.4836,-2.5335,-2.6195,-2.7339,-2.7411,-2.7937,-1.9861,0.0,-1.9495,-1.9298,0.0,-1.8938,-1.8759,-1.8409,-1.8186,-1.7968,-1.7745,-1.7514,-1.7378,-1.7297,-1.7148,-1.7046,-1.6978,-1.6978,-1.6978,-1.6978,-1.6978,-1.6937,-1.6863,-1.7117,-1.7258,-1.7283,-1.7516,-1.7748,-1.7911,-1.7836,-1.8024,-1.8434,-1.8409,-1.8471,-1.8706,-1.8712,-1.8912,-1.923,-1.8846,-1.8558,-1.8322,-1.812,-1.7425,-1.6186,0.0,0.0,0.0,0.0,0.0,0.0,0.0,0.0,0.0,0.0,0.0,-1.483,-1.4749,-1.5035,-1.5763,-1.5294,-1.5424,-1.6454,-1.606,-1.5891,-1.6272,-1.6311,-1.6308,-1.6316,-1.6633,-1.6844,-1.6809,-1.6844,-1.6885,-1.6922,-1.6893,-1.7493,-1.8971,-1.9325,-2.0623,-2.3622,-2.4422,-2.5116,-2.6811,-2.7161,-2.7201,-2.7054,-2.6907,-2.6774,-2.6627,-2.648,-2.64,-2.64,-2.64,-2.64,-2.64,-2.6386,-2.636,-2.6238,-2.6212,-2.6052,-2.5785,-2.5732,-2.5692,-2.5558,-2.5518,-2.5518,-2.5504,-2.5384,-2.5251,-2.5179,-2.5417,-2.6111,-2.7286,-2.7393,-2.7657,-2.0112,-1.9841,-1.9752,-1.9583,-1.9312,-1.9169,-1.8979,-1.8793,0.0,0.0,0.0,-1.7751,-1.7548,-1.7453,-1.7277,-1.7127,-1.7019,-1.6992,-1.6978,-1.6978,-1.6978,-1.6992,-1.7019,-1.6992,-1.7172,-1.7397,-1.7221,-1.7436,-1.785,-1.7593,-1.7651,-1.7966,-1.7773,-1.7706,-1.7888,-1.7985,-1.8094,-1.8181,-1.7886,-1.764,-1.7429,-1.7068,-1.6744,-1.6454,-1.6209,-1.5934,-1.5586,-1.557,-1.548,-1.5302,-1.5294,-1.5294,-1.5333,-1.5262,-1.5318,-1.5504,-1.5545,-1.5561,-1.5569,-1.5756,-1.5894,-1.5959,-1.6235,-1.6405,-1.6397,-1.6631,-1.6777,-1.673,-1.699,-1.7076,-1.7003,-1.7092,-1.7218,-1.725,-1.7201,-1.7657,-1.8849,-1.8992,-2.0088,-2.2961,-2.3492,-2.4324,-2.5966,-2.6648,-2.6936,-2.6912,-2.6917,-2.6947,-2.6867,-2.66,-2.64,-2.64,-2.64,-2.64,-2.64,-2.64,-2.64,-2.6373,-2.6373,-2.6306,-2.6145,-2.6065,-2.5971,-2.5758,-2.5665,-2.5692,-2.5678,-2.5638,-2.5518,-2.5315,-2.5222,-2.5452,-2.6373,-2.6862,-2.714,-2.0288,-2.0227,-2.0092,-1.9942,-1.9766,-1.9691,-1.9324,-1.88,-1.8423,-1.8206,-1.805,-1.7901,-1.7758,-1.7548,-1.7317,-1.7182,-1.7154,-1.7039,-1.6978,0.0,-1.6978,-1.7046,-1.7154,-1.7039,-1.7024,-1.7029,-1.6762,-1.6609,-1.655,-1.6552,-1.6753,-1.7199,-1.7386,-1.7567,-1.7838,-1.7632,-1.773,-1.8188,-1.8127,-1.794,-1.757,-1.7413,-1.721,-1.6998,-1.6674,-1.6341,-1.5942,-1.5934,-1.5845,-1.5747,-1.5739,-1.5699,-1.5699,-1.5561,-1.5488,-1.552,-1.5658,-1.574,-1.5788,-1.604,-1.6365,-1.6623,-1.6704,-1.6736,-1.6736,-1.6777,-1.693,-1.7234,-1.7323,-1.7469,-1.7713,-1.7578,-1.7562,-1.7729,-1.7518,-1.7465,-1.7778,-1.7628,-1.8244,-2.016,-2.0363,-2.1274,-2.3039,-2.4589,-2.5565,-2.5657,-2.6654,-2.7468,-2.7202,-2.6774,-2.6426,-2.64,-2.64,-2.64,-2.6453,-2.64,-2.6413,-2.64,-2.64,-2.6373,-2.6306,-2.6332,-2.6266,-2.6253,-2.6199,-2.6226,-2.6226,-2.6091,-2.5931,-2.581,-2.5598,-2.5577,-2.581,-2.5711,-2.5929,-2.0334,-2.0329,-2.0254,-2.0139,-1.9976,-1.9664,-1.9379,-1.9094,-1.8721,-1.8382,-1.8097,-1.8016,-1.786,-1.7588,-1.75,-1.7392,-1.7311,-1.7249,-1.7222,-1.7216,-1.7216,-1.7249,-1.7304,-1.7249,-1.7175,-1.708,-1.6876,-1.6693,-1.6493,-1.6388,-1.6448,-1.6764,-1.6821,-1.699,-1.732,-1.7232,-1.7361,-1.7753,-1.7789,-1.7872,-1.8079,-1.7713,-1.7445,-1.7258,-1.7006,-1.6698,-1.6349,-1.6332,-1.63,-1.6219,-1.6113,-1.6056,-1.6056,-1.5983,-1.5943,-1.5951,-1.6113,-1.6252,-1.6252,-1.6357,-1.6568,-1.6785,-1.6766,-1.6898,-1.7136,-1.7182,-1.7307,-1.7396,-1.7551,-1.7689,-1.7716,-1.7643,-1.7627,-1.7754,-1.7534,-1.7429,-1.7478,-1.7274,-1.7814,-1.9413,-1.9839,-2.0563,-2.2214,-2.3285,-2.4314,-2.5077,-2.6675,-2.7547,-2.7362,-2.7095,-2.6867,-2.6907,-2.6907,-2.6867,-2.6854,-2.672,-2.664,-2.6627,-2.648,-2.6413,-2.64,-2.64,-2.64,-2.64,-2.64,-2.64,-2.64,-2.6332,-2.6185,-2.5998,-2.5904,-2.5718,-2.5558,-2.5245,-2.505,-2.0512,-2.032,-2.0313,-2.0288,-2.0119,-1.9746,-1.9542,-1.944,-1.904,-1.8626,-1.8267,-1.8179,-1.7996,-1.7703,-1.7629,-1.7527,-1.7426,-1.7439,-1.7419,-1.7419,-1.7419,-1.7439,-1.7412,-1.7439,-1.7358,-1.7229,-1.7066,-1.6904,-1.6682,-1.6432,-1.6395,-1.6405,-1.6327,-1.6398,-1.6722,-1.6722,-1.6906,-1.726,-1.7252,-1.756,-1.816,-1.7744,-1.7515,-1.7387,-1.7169,-1.6904,-1.6607,-1.6505,-1.6489,-1.6526,-1.6358,-1.6303,-1.638,-1.6389,-1.6381,-1.643,-1.6519,-1.66,-1.6641,-1.6641,-1.6722,-1.6849,-1.6866,-1.7003,-1.7348,-1.7543,-1.7562,-1.7551,-1.7754,-1.7822,-1.7757,-1.7732,-1.7762,-1.7754,-1.7607,-1.7575,-1.7603,-1.7388,-1.772,-1.923,-1.9422,-1.9862,-2.1062,-2.1799,-2.2945,-2.5051,-2.6777,-2.7667,-2.755,-2.751,-2.7496,-2.7469,-2.7403,-2.7282,-2.7296,-2.7081,-2.6947,-2.6921,-2.668,-2.6547,-2.6507,-2.6453,-2.64,-2.64,-2.64,-2.64,-2.64,-2.6386,-2.6293,-2.6158,-2.6105,-2.5972,-2.5705,-2.5433,-2.485,-2.0661,-2.0469,-2.0512,-2.0374,-2.0288,-2.0098,-1.9868,-1.9671,-1.9298,-1.8993,-1.8681,-1.8416,-1.8206,-1.803,-1.7717,-1.7595,-1.7561,-1.7433,-1.7426,-1.7433,-1.7419,-1.7494,-1.7554,-1.7494,-1.7412,-1.7365,-1.7127,-1.6931,-1.6723,-1.654,-1.6442,-1.6327,-1.6178,-1.616,-1.6182,-1.6182,-1.6417,-1.6892,-1.677,-1.6855,-1.7191,-1.7334,-1.7429,-1.7406,-1.7093,-1.6835,-1.6596,-1.6195,-1.6127,-1.637,-1.6242,-1.6321,-1.6701,-1.6606,-1.6633,-1.6744,-1.6674,-1.6649,-1.6768,-1.6785,-1.6874,-1.7063,-1.7096,-1.7177,-1.7388,-1.7551,-1.7668,-1.7827,-1.79,-1.7973,-1.8149,-1.8111,-1.8087,-1.807,-1.7932,-1.7875,-1.7843,-1.7583,-1.7518,-1.7727,-1.7909,-1.7756,-1.837,-1.9592,-2.1746,-2.4796,-2.6681,-2.7968,-2.8125,-2.8072,-2.8058,-2.7991,-2.7697,-2.7389,-2.7362,-2.7296,-2.7269,-2.7201,-2.6974,-2.6814,-2.6747,-2.66,-2.64,-2.648,-2.6426,-2.644,-2.64,-2.64,-2.6386,-2.6319,-2.6279,-2.6253,-2.6038,-2.588,-2.5536,-2.0682,-2.0539,-2.0539,-2.0395,-2.0295,-1.9983,-1.982,-1.9807,-1.9278,-1.9054,-1.8986,-1.8708,-1.8403,-1.8091,-1.7962,-1.7867,-1.7772,-1.7711,-1.7684,-1.7684,-1.7684,-1.7717,-1.7758,-1.7717,-1.7643,-1.7487,-1.7338,-1.7161,-1.6939,-1.6723,-1.6527,-1.6435,-1.6286,-1.6218,-1.6205,-1.613,-1.6225,-1.6424,-1.6369,-1.6405,-1.6559,-1.6958,-1.7172,-1.7113,-1.6977,-1.678,-1.6499,-1.6287,-1.6212,-1.6272,-1.6105,-1.6191,-1.6676,-1.6649,-1.6781,-1.7125,-1.7201,-1.7242,-1.7271,-1.7279,-1.7303,-1.7421,-1.7376,-1.7457,-1.7681,-1.777,-1.7875,-1.803,-1.807,-1.8103,-1.8168,-1.8176,-1.8176,-1.8152,-1.8022,-1.7957,-1.8054,-1.7754,-1.7607,-1.7716,-1.7603,-1.7534,-1.7759,-1.9133,-2.1259,-2.3808,-2.5757,-2.7185,-2.83,-2.8537,-2.843,-2.839,-2.819,-2.7989,-2.7857,-2.7657,-2.7549,-2.751,-2.7322,-2.7094,-2.7054,-2.7014,-2.6867,-2.668,-2.6627,-2.6547,-2.6439,-2.64,-2.64,-2.64,-2.6386,-2.6346,-2.6265,-2.6252,-2.5934,-2.0743,-2.0607,-2.0496,-2.0422,-2.0356,-2.0003,-1.9881,-1.9861,-1.9345,-1.9149,-1.9162,-1.8891,-1.8559,-1.8233,-1.8131,-1.803,-1.7935,-1.7936,-1.7942,-1.797,-1.7942,-1.7936,-1.7976,-1.7936,-1.7792,-1.7595,-1.748,-1.7399,-1.7236,-1.6958,-1.6754,-1.6632,-1.6463,-1.6347,-1.63,-1.6191,-1.6123,-1.6133,-1.6133,-1.6133,-1.6198,-1.6559,-1.6797,-1.6788,-1.6777,-1.6645,-1.6425,-1.627,-1.6219,-1.6234,-1.6041,-1.6173,-1.6666,-1.6628,-1.6808,-1.728,-1.7646,-1.7773,-1.7684,-1.7716,-1.7741,-1.7786,-1.77,-1.7749,-1.7932,-1.7949,-1.7997,-1.8144,-1.8176,-1.8168,-1.8176,-1.8176,-1.8176,-1.8168,-1.8054,-1.8046,-1.8182,-1.7892,-1.7786,-1.794,-1.7827,-1.7676,-1.7932,-1.923,-2.1041,-2.2378,-2.4119,-2.5642,-2.7147,-2.7518,-2.7836,-2.7965,-2.828,-2.8537,-2.8272,-2.8125,-2.7923,-2.7762,-2.7589,-2.7429,-2.7403,-2.7376,-2.7282,-2.6947,-2.6894,-2.6734,-2.66,-2.652,-2.6413,-2.64,-2.64,-2.64,-2.636,-2.6333,-2.6096,-2.0899,-2.0743,-2.0537,-2.0469,-2.0512,-2.0343,-2.02,-2.0044,-1.9603,-1.9339,-1.9183,-1.8918,-1.8674,-1.8491,-1.8233,-1.8091,-1.8057,-1.7928,-1.799,-1.8043,-1.799,-1.7941,-1.8063,-1.799,-1.7799,-1.7642,-1.7602,-1.75,-1.7392,-1.7121,-1.6971,-1.6944,-1.6666,-1.6456,-1.6347,-1.632,-1.6225,-1.613,-1.6153,-1.6139,-1.6139,-1.6169,-1.632,-1.6587,-1.6479,-1.6387,-1.631,-1.5891,-1.5877,-1.6351,-1.6188,-1.6299,-1.6812,-1.6733,-1.6809,-1.7165,-1.7928,-1.8257,-1.7997,-1.807,-1.8152,-1.8127,-1.8014,-1.7981,-1.8127,-1.803,-1.8014,-1.8206,-1.8192,-1.8192,-1.8176,-1.8176,-1.8176,-1.8176,-1.8168,-1.8206,-1.8168,-1.8038,-1.7997,-1.8087,-1.8005,-1.7924,-1.7954,-1.9364,-2.0239,-2.0984,-2.2251,-2.3598,-2.4208,-2.5313,-2.6038,-2.6565,-2.7515,-2.8775,-2.8323,-2.835,-2.8377,-2.8232,-2.7936,-2.7696,-2.7589,-2.7482,-2.7362,-2.7215,-2.7081,-2.6934,-2.676,-2.6614,-2.652,-2.6466,-2.6466,-2.6453,-2.6413,-2.607,-2.5859,-2.0851,-2.0621,-2.0503,-2.0428,-2.039,-2.0248,-2.0153,-2.0078,-1.9827,-1.9576,-1.9359,-1.9237,-1.9054,-1.8803,-1.8409,-1.8186,-1.8084,-1.799,-1.7948,-1.807,-1.803,-1.8091,-1.8219,-1.8179,-1.8077,-1.7935,-1.7833,-1.7656,-1.7433,-1.7311,-1.7209,-1.71,-1.6917,-1.6741,-1.6547,-1.6439,-1.6415,-1.6361,-1.6279,-1.6266,-1.6327,-1.6178,-1.6237,-1.6517,-1.634,-1.6167,-1.607,-1.5868,-1.5827,-1.5884,-1.5829,-1.6035,-1.6508,-1.6799,-1.7122,-1.7591,-1.793,-1.8232,-1.8413,-1.8493,-1.8525,-1.8509,-1.8363,-1.8328,-1.8353,-1.8192,-1.8111,-1.8223,-1.8345,-1.8353,-1.8247,-1.8176,-1.8176,-1.8176,-1.8176,-1.8184,-1.8192,-1.8263,-1.8241,-1.8184,-1.8111,-1.8127,-1.8316,-1.8736,-1.9492,-2.0665,-2.1432,-2.2288,-2.3401,-2.4262,-2.4531,-2.4777,-2.6068,-2.7297,-2.6947,-2.813,-2.8748,-2.8551,-2.8323,-2.8163,-2.803,-2.7978,-2.7857,-2.7669,-2.7455,-2.7201,-2.7108,-2.6987,-2.6814,-2.668,-2.6667,-2.6533,-2.6426,-2.6175,-2.5885,-2.0919,-2.0689,-2.0516,-2.0422,-2.039,-2.0288,-2.022,-2.0159,-2.001,-1.978,-1.9529,-1.9406,-1.9217,-1.8966,-1.862,-1.8409,-1.828,-1.8057,-1.807,-1.828,-1.8213,-1.8247,-1.8362,-1.8342,-1.8267,-1.8152,-1.8009,-1.7799,-1.7582,-1.7514,-1.7439,-1.7338,-1.7195,-1.7019,-1.6842,-1.672,-1.6632,-1.6479,-1.6422,-1.6429,-1.6483,-1.6334,-1.6313,-1.6469,-1.6374,-1.6225,-1.6076,-1.6119,-1.6001,-1.583,-1.5803,-1.5979,-1.6321,-1.6753,-1.7258,-1.7698,-1.7979,-1.8277,-1.8729,-1.8858,-1.8899,-1.8891,-1.8736,-1.867,-1.8654,-1.8451,-1.8328,-1.8345,-1.841,-1.8434,-1.8369,-1.8322,-1.8306,-1.8217,-1.8271,-1.8304,-1.8273,-1.8428,-1.846,-1.8387,-1.8306,-1.8377,-1.8451,-1.832,-1.8909,-2.0146,-2.0203,-2.0862,-2.1872,-2.2678,-2.2845,-2.2986,-2.4528,-2.5488,-2.5795,-2.6883,-2.8382,-2.8451,-2.8681,-2.8591,-2.8457,-2.8406,-2.8299,-2.8096,-2.7883,-2.7602,-2.7469,-2.7362,-2.7215,-2.7014,-2.6827,-2.6694,-2.6494,-2.6294,-2.603,-2.1129,-2.0946,-2.0675,-2.0489,-2.0476,-2.0449,-2.0381,-2.0315,-2.018,-1.9956,-1.9711,-1.9379,-1.9203,-1.8986,-1.8861,-1.8735,-1.8674,-1.8308,-1.8328,-1.8711,-1.845,-1.8409,-1.8525,-1.8423,-1.8342,-1.8287,-1.8152,-1.8002,-1.7881,-1.7711,-1.7582,-1.7548,-1.7473,-1.7263,-1.6992,-1.6965,-1.6829,-1.6632,-1.6558,-1.6486,-1.6524,-1.6503,-1.6517,-1.6527,-1.6615,-1.6615,-1.6486,-1.6459,-1.6422,-1.6313,-1.6286,-1.6232,-1.6239,-1.6609,-1.704,-1.7414,-1.8004,-1.8545,-1.8882,-1.9077,-1.915,-1.9126,-1.9061,-1.8972,-1.8915,-1.8687,-1.8499,-1.8508,-1.8532,-1.8524,-1.854,-1.8598,-1.8574,-1.8273,-1.841,-1.8499,-1.8532,-1.8615,-1.8728,-1.8696,-1.8574,-1.8508,-1.8467,-1.8347,-1.8541,-1.8684,-1.8745,-1.8806,-1.945,-2.0523,-2.1151,-2.1513,-2.2784,-2.3995,-2.4725,-2.5582,-2.7144,-2.8354,-2.8793,-2.8965,-2.8831,-2.8724,-2.8684,-2.8551,-2.8268,-2.8043,-2.7909,-2.7789,-2.7617,-2.7388,-2.7148,-2.6934,-2.6747,-2.6573,-2.6161,-2.1224,-2.0987,-2.0783,-2.0702,-2.0682,-2.0587,-2.0449,-2.0471,-2.0417,-2.018,-1.9841,-1.9705,-1.9468,-1.9128,-1.8884,-1.8877,-1.902,-1.862,-1.8531,-1.8779,-1.866,-1.8633,-1.8667,-1.864,-1.8518,-1.8321,-1.8165,-1.8016,-1.7936,-1.7819,-1.7751,-1.7602,-1.7548,-1.7473,-1.7283,-1.7182,-1.706,-1.6978,-1.673,-1.6727,-1.6802,-1.6625,-1.6666,-1.6944,-1.6937,-1.6965,-1.7114,-1.679,-1.6615,-1.656,-1.6459,-1.6388,-1.6323,-1.6389,-1.6657,-1.7019,-1.7232,-1.76,-1.8057,-1.8517,-1.8754,-1.8772,-1.889,-1.8996,-1.8964,-1.8777,-1.8647,-1.8655,-1.8736,-1.8777,-1.8696,-1.8793,-1.8785,-1.8574,-1.8606,-1.8639,-1.8663,-1.8704,-1.8842,-1.9013,-1.8826,-1.8663,-1.8631,-1.8558,-1.8509,-1.8532,-1.8548,-1.8574,-1.8758,-1.9204,-1.9482,-1.9604,-2.1205,-2.25,-2.2887,-2.3727,-2.5192,-2.678,-2.773,-2.8577,-2.8653,-2.9001,-2.8975,-2.8855,-2.8628,-2.8441,-2.8364,-2.8217,-2.7989,-2.7816,-2.7629,-2.7415,-2.7147,-2.6825,-2.6477,-2.1299,-2.1055,-2.0736,-2.0607,-2.06,-2.0499,-2.0401,-2.0471,-2.0455,-2.0322,-2.0003,-1.9895,-1.9657,-1.9305,-1.9088,-1.9115,-1.925,-1.9033,-1.8945,-1.8905,-1.8854,-1.882,-1.882,-1.882,-1.8647,-1.8416,-1.8247,-1.8097,-1.8004,-1.7887,-1.7819,-1.7745,-1.7724,-1.7656,-1.7514,-1.7412,-1.7324,-1.7188,-1.7005,-1.6937,-1.6944,-1.6842,-1.6904,-1.7148,-1.7216,-1.7324,-1.7419,-1.7169,-1.6953,-1.6836,-1.6639,-1.6483,-1.6395,-1.6388,-1.6593,-1.6913,-1.7042,-1.7213,-1.7754,-1.8248,-1.8507,-1.8533,-1.8848,-1.9094,-1.9102,-1.8923,-1.8826,-1.8842,-1.8907,-1.8939,-1.8866,-1.898,-1.9069,-1.8939,-1.8858,-1.8858,-1.8899,-1.8923,-1.9004,-1.9134,-1.8996,-1.8858,-1.8818,-1.8744,-1.872,-1.8663,-1.8688,-1.8769,-1.8793,-1.8818,-1.8801,-1.8881,-1.9827,-2.055,-2.0744,-2.1783,-2.3209,-2.4813,-2.6314,-2.7333,-2.7972,-2.8842,-2.9232,-2.9028,-2.8815,-2.8655,-2.8577,-2.8524,-2.8377,-2.8243,-2.807,-2.7936,-2.7667,-2.7212,-2.6808,-2.1367,-2.1143,-2.0614,-2.041,-2.0397,-2.0376,-2.0313,-2.0376,-2.0422,-2.0383,-2.0126,-1.9969,-1.9732,-1.9495,-1.9379,-1.9366,-1.9367,-1.9468,-1.9352,-1.9142,-1.8945,-1.8816,-1.8827,-1.882,-1.8667,-1.8511,-1.8369,-1.824,-1.8097,-1.7941,-1.7929,-1.7963,-1.7867,-1.7812,-1.7697,-1.7609,-1.744,-1.729,-1.7216,-1.7134,-1.7046,-1.7127,-1.7209,-1.7249,-1.7473,-1.7561,-1.7588,-1.7527,-1.7345,-1.7039,-1.6781,-1.6639,-1.6564,-1.6551,-1.6814,-1.7109,-1.7141,-1.7286,-1.7745,-1.8141,-1.8347,-1.8298,-1.8861,-1.9207,-1.901,-1.8988,-1.8948,-1.8899,-1.9013,-1.9013,-1.9086,-1.9183,-1.9265,-1.9281,-1.9135,-1.9077,-1.9224,-1.9281,-1.9281,-1.9265,-1.9151,-1.9037,-1.8972,-1.885,-1.8866,-1.8883,-1.8858,-1.8899,-1.8956,-1.898,-1.8915,-1.9109,-1.9385,-1.9522,-1.9973,-2.0391,-2.1684,-2.2325,-2.4196,-2.5903,-2.7587,-2.8751,-2.97,-2.9442,-2.9161,-2.9018,-2.8871,-2.8858,-2.8711,-2.8484,-2.839,-2.839,-2.8094,-2.7584,-2.7273,-2.155,-2.119,-2.0933,-2.0756,-2.0648,-2.0539,-2.0415,-2.0422,-2.0455,-2.0374,-2.0254,-2.0105,-1.9868,-1.9603,-1.9481,-1.9313,-1.9332,-1.9325,-1.9298,-1.921,-1.9135,-1.8952,-1.8854,-1.882,-1.8687,-1.8538,-1.8403,-1.8301,-1.824,-1.8009,-1.8044,-1.8186,-1.8024,-1.7963,-1.7941,-1.7758,-1.7568,-1.7467,-1.7412,-1.7344,-1.7311,-1.7331,-1.7419,-1.7528,-1.7554,-1.7656,-1.7779,-1.7704,-1.75,-1.7338,-1.7236,-1.7073,-1.689,-1.6863,-1.6885,-1.6804,-1.6714,-1.6724,-1.7001,-1.7638,-1.7858,-1.7636,-1.8558,-1.8968,-1.8217,-1.8821,-1.8937,-1.8838,-1.8937,-1.9183,-1.9191,-1.9281,-1.9314,-1.9306,-1.9289,-1.9273,-1.9306,-1.9314,-1.9314,-1.9297,-1.9257,-1.9175,-1.9045,-1.9053,-1.9061,-1.9021,-1.9045,-1.9094,-1.9183,-1.92,-1.9094,-1.9142,-1.9314,-1.9257,-1.9339,-1.9617,-1.9949,-2.0104,-2.1886,-2.4451,-2.6655,-2.8958,-2.9873,-3.0394,-2.994,-2.9673,-2.9459,-2.9325,-2.9058,-2.8818,-2.8564,-2.8513,-2.8212,-2.778,-2.7724,-2.1414,-2.1095,-2.0831,-2.0627,-2.0499,-2.0465,-2.0354,-2.039,-2.0492,-2.0401,-2.0322,-2.0173,-1.9969,-1.9807,-1.9596,-1.9488,-1.94,-1.9393,-1.9366,-1.9284,-1.9223,-1.9067,-1.8891,-1.8861,-1.8715,-1.8626,-1.8477,-1.8416,-1.8312,-1.8165,-1.8172,-1.824,-1.8077,-1.8072,-1.8057,-1.7874,-1.7704,-1.7588,-1.75,-1.744,-1.7379,-1.7433,-1.7555,-1.7595,-1.7649,-1.7806,-1.7921,-1.788,-1.7738,-1.7555,-1.7453,-1.7365,-1.7277,-1.7195,-1.7087,-1.6897,-1.6795,-1.672,-1.6828,-1.729,-1.7466,-1.7394,-1.827,-1.839,-1.8117,-1.8421,-1.8524,-1.8325,-1.8512,-1.872,-1.8968,-1.9214,-1.9435,-1.9623,-1.9524,-1.9451,-1.9386,-1.942,-1.942,-1.9354,-1.9346,-1.9281,-1.9159,-1.9257,-1.924,-1.9151,-1.9232,-1.9265,-1.9297,-1.9314,-1.9314,-1.9314,-1.933,-1.9306,-1.9281,-1.9462,-1.9544,-1.9526,-2.0588,-2.302,-2.509,-2.7882,-2.8904,-2.943,-2.9939,-3.0229,-2.9742,-2.9503,-2.9566,-2.9272,-2.8915,-2.8671,-2.8532,-2.8085,-2.8013,-2.1157,-2.0967,-2.0566,-2.0295,-2.0193,-2.0288,-2.0239,-2.0207,-2.0431,-2.0415,-2.0286,-2.0193,-2.0051,-1.9888,-1.9807,-1.9671,-1.9705,-1.9677,-1.9556,-1.9434,-1.9298,-1.9135,-1.9061,-1.8884,-1.8847,-1.8721,-1.8599,-1.8552,-1.8498,-1.8382,-1.8342,-1.8348,-1.8219,-1.8138,-1.8152,-1.8009,-1.7853,-1.7737,-1.773,-1.7669,-1.7609,-1.7669,-1.773,-1.7751,-1.7887,-1.7989,-1.8084,-1.8091,-1.7996,-1.7683,-1.7507,-1.7555,-1.7616,-1.7467,-1.7385,-1.7304,-1.7161,-1.7026,-1.7083,-1.7279,-1.7354,-1.7405,-1.7771,-1.8004,-1.7894,-1.795,-1.8041,-1.784,-1.7756,-1.8126,-1.8474,-1.9025,-1.946,-1.9696,-1.9747,-1.9768,-1.9597,-1.954,-1.9532,-1.9516,-1.9378,-1.9379,-1.9338,-1.9338,-1.9289,-1.9289,-1.9338,-1.9297,-1.9289,-1.9321,-1.9297,-1.9314,-1.9338,-1.9379,-1.9354,-1.933,-1.9363,-1.947,-2.0314,-2.1983,-2.3125,-2.5279,-2.67,-2.7729,-2.8548,-2.9192,-2.9443,-2.9442,-2.9689,-2.9593,-2.9098,-2.9192,-2.9272,-2.8565,-2.8224,-2.1353,-2.0994,-2.0892,-2.0634,-2.0336,-2.0368,-2.0354,-2.0239,-2.0401,-2.0519,-2.0465,-2.0343,-2.0187,-2.0037,-1.9943,-1.9834,-1.9732,-1.9725,-1.9637,-1.965,-1.9318,-1.9278,-1.9244,-1.9067,-1.8884,-1.8769,-1.8606,-1.8599,-1.862,-1.8491,-1.8443,-1.8599,-1.8403,-1.8328,-1.8382,-1.8253,-1.8213,-1.8172,-1.8158,-1.8118,-1.8084,-1.8104,-1.8138,-1.8095,-1.8192,-1.8226,-1.826,-1.8274,-1.824,-1.8131,-1.7928,-1.7772,-1.7779,-1.7629,-1.7561,-1.7507,-1.7433,-1.7317,-1.7323,-1.7482,-1.7502,-1.7228,-1.7636,-1.7742,-1.6983,-1.764,-1.7756,-1.7647,-1.7763,-1.7972,-1.8212,-1.8857,-1.9265,-1.9466,-1.9827,-2.0025,-1.9825,-1.9735,-1.9678,-1.9581,-1.9597,-1.9622,-1.9475,-1.9459,-1.9451,-1.9443,-1.937,-1.933,-1.9321,-1.9394,-1.9386,-1.9362,-1.9459,-1.9558,-1.9485,-1.9477,-1.9427,-1.946,-2.0164,-2.0672,-2.1847,-2.2972,-2.453,-2.5989,-2.7286,-2.7889,-2.8645,-2.93,-2.9544,-2.9393,-2.9322,-2.9251,-2.907,-2.8638,-2.8316,-2.1319,-2.1095,-2.1028,-2.0824,-2.058,-2.0614,-2.0566,-2.0401,-2.0442,-2.0539,-2.0449,-2.0327,-2.0248,-2.0092,-1.9942,-1.9793,-1.9752,-1.9725,-1.9725,-1.9671,-1.942,-1.9359,-1.9366,-1.921,-1.9013,-1.8864,-1.8715,-1.8701,-1.8752,-1.8633,-1.8613,-1.8786,-1.8538,-1.8457,-1.8498,-1.8403,-1.8314,-1.8301,-1.8321,-1.8321,-1.8321,-1.8321,-1.8369,-1.8403,-1.8423,-1.8443,-1.8525,-1.845,-1.8389,-1.828,-1.8104,-1.7968,-1.7968,-1.7894,-1.7826,-1.7738,-1.7554,-1.748,-1.7514,-1.7545,-1.75,-1.7235,-1.7545,-1.7349,-1.7044,-1.7352,-1.7364,-1.7146,-1.7251,-1.7479,-1.7953,-1.8492,-1.8959,-1.9477,-1.9794,-1.9927,-1.9819,-1.9873,-1.9849,-1.9711,-1.9719,-1.9719,-1.967,-1.9646,-1.9638,-1.9638,-1.95,-1.9419,-1.9508,-1.9565,-1.9549,-1.9565,-1.9678,-1.9703,-1.9605,-1.9581,-1.9613,-1.9605,-1.979,-2.0,-2.0395,-2.1419,-2.2538,-2.3895,-2.5286,-2.7087,-2.787,-2.857,-2.9151,-2.943,-2.9384,-2.911,-2.8763,-2.8242,-2.8124,-2.1231,-2.1204,-2.1082,-2.0933,-2.079,-2.079,-2.0702,-2.0553,-2.0503,-2.0573,-2.0462,-2.041,-2.0295,-2.0139,-2.0024,-1.9868,-1.9793,-1.9718,-1.9718,-1.9576,-1.9427,-1.9393,-1.9359,-1.9196,-1.9067,-1.9,-1.8905,-1.8909,-1.8841,-1.8861,-1.8823,-1.8854,-1.8721,-1.8674,-1.8599,-1.8504,-1.8457,-1.8443,-1.8437,-1.843,-1.8437,-1.845,-1.8538,-1.8647,-1.8586,-1.8647,-1.8701,-1.8613,-1.8464,-1.8271,-1.8199,-1.8124,-1.8091,-1.8057,-1.803,-1.7887,-1.7758,-1.769,-1.7602,-1.7541,-1.7439,-1.7399,-1.7405,-1.7344,-1.7269,-1.716,-1.7117,-1.6949,-1.6985,-1.7134,-1.7689,-1.8265,-1.8918,-1.9425,-1.957,-1.9614,-1.9643,-1.979,-1.974,-1.9728,-1.965,-1.9682,-1.9771,-1.9833,-1.9833,-1.9808,-1.967,-1.9547,-1.9687,-1.9743,-1.9735,-1.976,-1.9873,-1.9906,-1.9825,-1.9695,-1.9727,-1.9701,-1.9709,-1.9687,-1.9581,-2.0283,-2.1358,-2.1905,-2.332,-2.5003,-2.6248,-2.6689,-2.7471,-2.8763,-2.8578,-2.7491,-2.7419,-2.7713,-2.7757,-2.1333,-2.1211,-2.1184,-2.1021,-2.0817,-2.0906,-2.0804,-2.053,-2.0675,-2.0655,-2.0483,-2.0449,-2.0404,-2.0295,-2.0268,-2.0092,-1.9568,-1.9495,-1.9462,-1.9294,-1.9212,-1.9291,-1.9379,-1.9115,-1.9006,-1.9122,-1.9122,-1.902,-1.8871,-1.8986,-1.8993,-1.8979,-1.9,-1.8986,-1.8898,-1.8871,-1.8735,-1.864,-1.8691,-1.864,-1.866,-1.8742,-1.8871,-1.8966,-1.881,-1.8803,-1.885,-1.8687,-1.847,-1.8278,-1.8294,-1.8213,-1.8118,-1.8002,-1.7989,-1.8009,-1.7928,-1.786,-1.7833,-1.7663,-1.7575,-1.7527,-1.7494,-1.7412,-1.7405,-1.7365,-1.7311,-1.727,-1.7183,-1.7323,-1.7438,-1.7967,-1.8309,-1.8696,-1.8957,-1.915,-1.9031,-1.9092,-1.921,-1.9262,-1.9389,-1.962,-1.966,-1.9843,-1.9935,-1.9902,-1.9774,-1.9685,-1.9753,-1.9836,-1.9887,-1.9936,-2.006,-2.0068,-2.0044,-1.989,-1.9817,-1.9747,-1.9755,-1.9841,-1.9768,-1.9743,-2.0259,-2.0899,-2.1515,-2.2683,-2.3694,-2.4625,-2.5453,-2.6445,-2.6063,-2.5525,-2.59,-2.6318,-2.6906,-2.1335,-2.1326,-2.1245,-2.1177,-2.1109,-2.1028,-2.0919,-2.0777,-2.0695,-2.0614,-2.0476,-2.0401,-2.0334,-2.0322,-2.0234,-1.9378,-1.8234,-1.9152,-1.8704,-1.7999,-1.8503,-1.9278,-1.9468,-1.9149,-1.9162,-1.9291,-1.9373,-1.9176,-1.8823,-1.8972,-1.9067,-1.9027,-1.9067,-1.9054,-1.8979,-1.8884,-1.8857,-1.8834,-1.8827,-1.8827,-1.8827,-1.8857,-1.8979,-1.9074,-1.8959,-1.8898,-1.9006,-1.8816,-1.8633,-1.8552,-1.8477,-1.8355,-1.8233,-1.8158,-1.8131,-1.8186,-1.8131,-1.8091,-1.8091,-1.7974,-1.7953,-1.7996,-1.7907,-1.7846,-1.7772,-1.7704,-1.7582,-1.7467,-1.7372,-1.7406,-1.7521,-1.7812,-1.8076,-1.8347,-1.8618,-1.8647,-1.8599,-1.8609,-1.8644,-1.876,-1.8971,-1.9181,-1.9413,-1.9623,-1.9941,-1.9982,-1.9863,-1.9807,-1.9752,-1.9752,-1.9768,-1.9947,-2.0011,-2.0071,-2.0063,-2.0019,-1.9687,-1.9636,-1.9846,-1.9882,-1.9987,-1.9936,-1.9817,-1.9983,-2.0518,-2.1218,-2.2018,-2.3229,-2.3683,-2.4083,-2.4082,-2.4101,-2.4488,-2.4977,-2.5464,-2.1375,-2.1362,-2.1272,-2.1285,-2.1274,-2.1116,-2.0973,-2.0906,-2.0702,-2.058,-2.0399,-1.9735,-1.9367,-1.9246,-1.8461,-1.7097,-1.5134,-1.7018,-1.6674,-1.6544,-1.7312,-1.8521,-1.9374,-1.9393,-1.9264,-1.9386,-1.9427,-1.9385,-1.902,-1.9101,-1.9122,-1.9142,-1.9115,-1.9101,-1.9088,-1.904,-1.8905,-1.8915,-1.885,-1.8857,-1.8884,-1.8884,-1.9051,-1.9217,-1.8986,-1.8938,-1.9128,-1.885,-1.8701,-1.8626,-1.8552,-1.8437,-1.8382,-1.8362,-1.8375,-1.8396,-1.8355,-1.8321,-1.8308,-1.8294,-1.8247,-1.824,-1.8294,-1.8219,-1.8077,-1.7887,-1.7765,-1.7595,-1.7527,-1.7609,-1.7744,-1.771,-1.7985,-1.8273,-1.8396,-1.8366,-1.8302,-1.8239,-1.8168,-1.8291,-1.8509,-1.8778,-1.9061,-1.9303,-1.96,-1.9607,-1.9499,-1.9499,-1.9498,-1.9415,-1.9467,-1.9723,-1.9904,-1.9965,-2.0025,-2.007,-1.9642,-1.9205,-1.9634,-2.0011,-2.0103,-2.0143,-2.0033,-1.9936,-1.9912,-2.0585,-2.1201,-2.1487,-2.162,-2.1903,-2.2288,-2.2774,-2.3179,-2.3328,-2.358,-2.1375,-2.1362,-2.1279,-2.1224,-2.1218,-2.1068,-2.0926,-2.0811,-2.0756,-2.0661,-2.0342,-1.8009,-1.7027,-1.6394,-1.44,-1.3125,-1.2688,-1.3137,-1.3971,-1.4567,-1.5778,-1.7362,-1.9019,-1.9291,-1.9325,-1.9434,-1.9366,-1.9244,-1.9196,-1.9467,-1.9461,-1.9386,-1.942,-1.9501,-1.9318,-1.9244,-1.9284,-1.9169,-1.9135,-1.9196,-1.9271,-1.9189,-1.9298,-1.9373,-1.9217,-1.9047,-1.9156,-1.8884,-1.866,-1.8613,-1.8464,-1.8423,-1.8477,-1.8504,-1.8586,-1.8586,-1.8498,-1.8321,-1.8348,-1.8389,-1.8382,-1.8389,-1.8362,-1.8247,-1.8152,-1.8036,-1.7955,-1.8036,-1.7996,-1.8023,-1.8097,-1.8091,-1.8174,-1.8182,-1.8204,-1.817,-1.8074,-1.8081,-1.8005,-1.7888,-1.8145,-1.8514,-1.884,-1.9033,-1.9187,-1.9187,-1.9187,-1.9179,-1.9142,-1.9075,-1.9296,-1.9608,-1.982,-1.9934,-1.9896,-1.995,-1.9636,-1.9001,-1.9363,-1.9918,-1.9946,-2.0041,-2.0539,-2.041,-2.0219,-1.9917,-2.0334,-2.0317,-1.9776,-1.9898,-2.0559,-2.1208,-2.1893,-2.1913,-2.1768,-1.9987,-2.124,-2.1238,-2.1211,-2.1197,-2.1062,-2.0967,-2.0878,-2.0716,-2.06,-1.9934,-1.7557,-1.5509,-1.3694,-1.2441,-1.1211,-1.0279,-1.0897,-1.1224,-1.2206,-1.3808,-1.6008,-1.7302,-1.8632,-1.9413,-1.9495,-1.9501,-1.9508,-1.9501,-1.9474,-1.9488,-1.9468,-1.9495,-1.9481,-1.944,-1.9345,-1.9271,-1.921,-1.921,-1.9284,-1.9352,-1.9312,-1.9312,-1.9515,-1.925,-1.9223,-1.921,-1.9094,-1.8918,-1.8884,-1.8776,-1.8721,-1.8776,-1.8796,-1.883,-1.8857,-1.8782,-1.8674,-1.8606,-1.8647,-1.862,-1.8579,-1.8552,-1.8511,-1.8369,-1.8274,-1.8192,-1.8213,-1.8219,-1.8267,-1.8308,-1.826,-1.8267,-1.8247,-1.8186,-1.8118,-1.8077,-1.8002,-1.7949,-1.7833,-1.7813,-1.8176,-1.8548,-1.8719,-1.8828,-1.8835,-1.882,-1.8806,-1.878,-1.8664,-1.9024,-1.9468,-1.9723,-1.993,-1.9846,-1.98,-1.957,-1.9136,-1.9052,-1.9517,-1.9555,-1.9776,-2.0292,-2.0438,-2.0131,-1.9901,-1.9755,-1.9501,-1.9349,-1.9118,-1.8904,-1.9759,-2.0552,-2.0162,-2.0406,-1.9559,-2.1206,-2.1272,-2.1252,-2.119,-2.1021,-2.0939,-2.0906,-2.0661,-2.0094,-1.8557,-1.5656,-1.2491,-1.0476,-0.9691,-0.845,-0.7035,-0.8845,-0.8905,-0.9612,-1.1411,-1.3997,-1.5889,-1.7708,-1.881,-1.9597,-1.9691,-1.9684,-1.9603,-1.9569,-1.9522,-1.9488,-1.9529,-1.9508,-1.9468,-1.942,-1.9366,-1.9366,-1.9352,-1.9406,-1.9461,-1.94,-1.9406,-1.942,-1.9366,-1.9312,-1.9386,-1.9264,-1.9183,-1.9149,-1.9074,-1.9006,-1.902,-1.902,-1.902,-1.904,-1.9,-1.8938,-1.885,-1.883,-1.8864,-1.8854,-1.8715,-1.8613,-1.8593,-1.8552,-1.8518,-1.8437,-1.8382,-1.8396,-1.8416,-1.8409,-1.8416,-1.8409,-1.8355,-1.826,-1.8172,-1.8097,-1.7996,-1.7874,-1.7874,-1.7888,-1.8191,-1.8329,-1.8453,-1.846,-1.8446,-1.8473,-1.8437,-1.8317,-1.8708,-1.9177,-1.9307,-1.9465,-1.9465,-1.9396,-1.926,-1.9237,-1.9152,-1.912,-1.9204,-1.955,-2.006,-2.0085,-1.9939,-1.9969,-1.9896,-1.9464,-1.9066,-1.9169,-1.9197,-1.895,-1.9112,-1.8893,-1.9591,-2.137,-2.1421,-2.1428,-2.1346,-2.1197,-2.0906,-2.0797,-2.0817,-2.0627,-1.9007,-1.6147,-1.1535,-0.789,-0.5635,-0.5497,-0.5165,-0.4377,-0.4377,-0.5847,-0.7317,-0.8667,-1.1417,-1.3697,-1.5584,-1.6997,-1.869,-1.8527,-1.8703,-1.9488,-1.894,-1.9279,-1.9644,-1.961,-1.9691,-1.9684,-1.963,-1.9616,-1.9623,-1.9623,-1.9637,-1.9677,-1.9657,-1.9671,-1.9643,-1.9501,-1.942,-1.936,-1.9298,-1.921,-1.921,-1.9169,-1.9189,-1.9183,-1.9162,-1.9156,-1.9183,-1.9162,-1.9088,-1.9006,-1.8911,-1.8868,-1.8735,-1.8701,-1.8715,-1.8769,-1.8504,-1.8484,-1.866,-1.8586,-1.8579,-1.8613,-1.8626,-1.8586,-1.8572,-1.8511,-1.8403,-1.8308,-1.8206,-1.8091,-1.7983,-1.7929,-1.7949,-1.7915,-1.8136,-1.8198,-1.8198,-1.8267,-1.824,-1.8233,-1.8219,-1.8441,-1.8753,-1.8834,-1.8894,-1.8942,-1.8913,-1.9119,-1.9174,-1.9078,-1.8942,-1.8853,-1.9334,-2.0011,-1.9862,-1.9805,-1.9911,-1.9961,-1.9439,-1.9182,-1.9515,-1.9573,-1.9417,-1.9414,-1.9532,-2.0384,-2.028,-2.1713,-2.1713,-2.157,-2.1274,-2.1129,-2.0994,-2.0892,-2.0685,-1.7993,-1.3724,-0.9908,-0.6617,-0.4601,-0.4022,-0.4007,-0.3981,-0.3978,-0.4771,-0.575,-0.7293,-0.9079,-1.1153,-1.2683,-1.3857,-1.4893,-1.5037,-1.5959,-1.7138,-1.7567,-1.8613,-1.9136,-1.9691,-1.9725,-1.9725,-1.9725,-1.9725,-1.9732,-1.9725,-1.9725,-1.9725,-1.9725,-1.9725,-1.9711,-1.963,-1.9515,-1.944,-1.9379,-1.9298,-1.923,-1.921,-1.9264,-1.9318,-1.9264,-1.9271,-1.9312,-1.9271,-1.9189,-1.9142,-1.9061,-1.9033,-1.9027,-1.8986,-1.8959,-1.9,-1.883,-1.8789,-1.883,-1.8762,-1.8728,-1.8715,-1.8708,-1.8694,-1.8708,-1.866,-1.8545,-1.845,-1.8355,-1.8219,-1.8057,-1.8051,-1.8031,-1.7976,-1.7915,-1.7915,-1.7977,-1.8004,-1.8023,-1.807,-1.8111,-1.8376,-1.8538,-1.8622,-1.8768,-1.8817,-1.8942,-1.9083,-1.9027,-1.8978,-1.8888,-1.8846,-1.9498,-1.9998,-1.9822,-1.9736,-1.9897,-1.9785,-1.9316,-1.9235,-1.9485,-1.9745,-1.9901,-1.9987,-2.0065,-2.073,-2.0183,-2.1876,-2.1903,-2.1713,-2.1362,-2.1231,-2.1095,-2.098,-2.0777,-1.7547,-1.2082,-0.8702,-0.5997,-0.4367,-0.3975,-0.3967,-0.4012,-0.4007,-0.3996,-0.4677,-0.5739,-0.71,-0.832,-0.9677,-1.1254,-1.1475,-1.2038,-1.3347,-1.608,-1.5899,-1.7602,-1.9159,-1.9786,-1.9834,-1.9725,-1.9725,-1.9739,-1.9773,-1.9739,-1.9725,-1.9725,-1.9725,-1.9725,-1.9725,-1.9711,-1.9569,-1.9474,-1.9406,-1.9373,-1.9312,-1.9298,-1.9359,-1.9406,-1.9427,-1.9413,-1.9406,-1.9373,-1.9271,-1.9264,-1.9223,-1.9203,-1.9162,-1.9169,-1.9189,-1.9217,-1.9142,-1.9054,-1.9101,-1.8966,-1.8888,-1.8823,-1.8789,-1.8796,-1.8868,-1.8813,-1.8654,-1.8593,-1.8504,-1.8355,-1.8199,-1.8158,-1.8124,-1.8104,-1.8057,-1.8072,-1.8085,-1.8091,-1.8165,-1.8219,-1.8253,-1.8287,-1.8436,-1.8551,-1.8656,-1.8839,-1.9001,-1.9057,-1.8853,-1.8818,-1.8838,-1.8979,-1.9639,-1.9915,-1.9723,-1.9694,-1.9813,-1.9949,-1.9942,-1.9665,-1.9405,-1.9762,-2.0119,-2.0139,-2.0188,-2.026,-2.1969,-2.2086,-2.1943,-2.1713,-2.1355,-2.1129,-2.1007,-2.081,-1.9978,-1.7027,-1.1844,-0.7024,-0.4461,-0.4053,-0.3988,-0.4045,-0.4042,-0.3976,-0.3971,-0.4217,-0.4599,-0.5858,-0.6916,-0.8164,-0.8785,-1.1185,-1.113,-1.1882,-1.5197,-1.5197,-1.6999,-1.9045,-1.9681,-1.9929,-1.9759,-1.9725,-1.98,-1.9834,-1.98,-1.9759,-1.9752,-1.9745,-1.9725,-1.9725,-1.9725,-1.959,-1.9468,-1.9434,-1.9406,-1.9386,-1.9386,-1.9461,-1.9637,-1.9576,-1.9583,-1.961,-1.9488,-1.936,-1.942,-1.9291,-1.9257,-1.9271,-1.9312,-1.9325,-1.9373,-1.9312,-1.9237,-1.9284,-1.9135,-1.9006,-1.8938,-1.8891,-1.8977,-1.897,-1.8915,-1.8789,-1.8735,-1.8647,-1.8491,-1.8355,-1.8328,-1.8314,-1.8301,-1.828,-1.8219,-1.8219,-1.826,-1.8314,-1.8375,-1.8375,-1.8403,-1.8389,-1.8512,-1.8525,-1.8752,-1.8972,-1.9036,-1.8773,-1.8765,-1.8898,-1.9018,-1.939,-1.9548,-1.9512,-1.9534,-1.9612,-2.0199,-2.0771,-2.0167,-1.9628,-1.9969,-2.0269,-2.0267,-2.0364,-2.0494,-2.2201,-2.2099,-2.1943,-2.1713,-2.1362,-2.1224,-2.1034,-2.018,-1.69,-1.3984,-1.1468,-0.6484,-0.4112,-0.4098,-0.4079,-0.4071,-0.4071,-0.4069,-0.4065,-0.3982,-0.4061,-0.4433,-0.531,-0.5815,-0.6074,-0.647,-0.6984,-0.85,-1.0521,-1.2412,-1.4882,-1.692,-1.9303,-1.9989,-1.9949,-1.9888,-1.9875,-1.9969,-1.9895,-1.98,-1.9786,-1.9786,-1.9739,-1.9739,-1.9739,-1.9596,-1.9387,-1.9434,-1.9434,-1.9434,-1.9434,-1.9508,-1.9671,-1.9671,-1.9576,-1.9603,-1.9522,-1.9488,-1.9542,-1.9529,-1.9575,-1.9555,-1.9488,-1.9501,-1.9563,-1.944,-1.9413,-1.9386,-1.9257,-1.9149,-1.9108,-1.9094,-1.9101,-1.9081,-1.9033,-1.8952,-1.8877,-1.8762,-1.8691,-1.8525,-1.8464,-1.8416,-1.8396,-1.8443,-1.8416,-1.845,-1.8498,-1.8545,-1.8606,-1.8518,-1.8434,-1.8434,-1.8477,-1.8491,-1.8612,-1.8905,-1.899,-1.8795,-1.8951,-1.9244,-1.9351,-1.9358,-1.9344,-1.9346,-1.9346,-1.9389,-1.9898,-2.0221,-2.0031,-1.9823,-2.0324,-2.0693,-2.0857,-2.0909,-2.0878,-2.2249,-2.2099,-2.1943,-2.1679,-2.1367,-2.1197,-2.0973,-1.9869,-1.5764,-1.3235,-1.1442,-0.7471,-0.4902,-0.438,-0.4112,-0.4102,-0.4102,-0.4101,-0.4098,-0.4011,-0.409,-0.4218,-0.4143,-0.4071,-0.4532,-0.4098,-0.4357,-0.5634,-0.8563,-0.9962,-1.2859,-1.617,-1.8755,-1.9914,-2.0173,-2.0105,-2.0031,-2.0098,-2.0044,-1.9956,-1.9929,-1.9875,-1.98,-1.9766,-1.9719,-1.9651,-1.9495,-1.9434,-1.9434,-1.9434,-1.9454,-1.9508,-1.9576,-1.9596,-1.9563,-1.959,-1.9596,-1.9569,-1.9624,-1.9711,-1.9684,-1.9691,-1.9725,-1.9725,-1.9718,-1.9563,-1.9529,-1.9474,-1.9359,-1.9312,-1.9284,-1.9278,-1.9237,-1.921,-1.9176,-1.9094,-1.9081,-1.8972,-1.8816,-1.8701,-1.8626,-1.8565,-1.8552,-1.8565,-1.8599,-1.8674,-1.8742,-1.8782,-1.8803,-1.8681,-1.8593,-1.8593,-1.8599,-1.8613,-1.864,-1.8725,-1.8817,-1.8807,-1.9001,-1.9247,-1.9335,-1.927,-1.9219,-1.9284,-1.9596,-1.972,-1.9533,-1.9598,-1.991,-2.0346,-2.086,-2.1231,-2.143,-2.1421,-2.1313,-2.2242,-2.2099,-2.1943,-2.1625,-2.1245,-2.1068,-2.0817,-2.0235,-1.7471,-1.4774,-1.2083,-0.9198,-0.6442,-0.4387,-0.4063,-0.4062,-0.4061,-0.4062,-0.4059,-0.4058,-0.4121,-0.4121,-0.4058,-0.4055,-0.4118,-0.4059,-0.4319,-0.5147,-0.7785,-0.8734,-1.148,-1.5686,-1.8408,-1.9633,-2.0041,-2.0295,-2.0234,-2.0261,-2.0193,-2.0126,-2.0092,-2.0064,-1.9976,-1.9908,-1.9841,-1.9719,-1.9583,-1.9495,-1.9474,-1.9461,-1.9461,-1.9542,-1.9603,-1.9718,-1.9725,-1.9657,-1.9711,-1.9711,-1.9718,-1.9725,-1.9725,-1.9725,-1.9725,-1.9725,-1.9718,-1.9698,-1.9677,-1.9583,-1.9501,-1.9468,-1.944,-1.9379,-1.9325,-1.9305,-1.9291,-1.9278,-1.9312,-1.9203,-1.9033,-1.8918,-1.885,-1.8823,-1.8871,-1.8884,-1.883,-1.8952,-1.9006,-1.8979,-1.8959,-1.8796,-1.8721,-1.8701,-1.8715,-1.8793,-1.8813,-1.8807,-1.8807,-1.882,-1.8868,-1.9056,-1.9087,-1.9182,-1.9196,-1.937,-2.0037,-2.011,-1.9763,-1.9965,-2.0395,-2.0843,-2.1237,-2.149,-2.1702,-2.184,-2.179,-2.2154,-2.2086,-2.1842,-2.1591,-2.134,-2.0994,-2.0722,-2.0108,-1.7593,-1.4838,-1.2147,-0.939,-0.6956,-0.426,-0.4066,-0.4066,-0.4066,-0.4066,-0.4066,-0.4066,-0.4066,-0.4066,-0.4066,-0.4066,-0.4066,-0.4066,-0.426,-0.4581,-0.5673,-0.6892,-1.0994,-1.585,-1.7229,-1.8588,-1.9724,-2.0395,-2.0388,-2.0354,-2.0259,-2.0282,-2.0234,-2.0187,-2.0105,-2.0044,-1.9949,-1.9834,-1.9752,-1.9644,-1.9617,-1.9596,-1.9596,-1.9698,-1.9705,-1.9725,-1.9725,-1.9725,-1.9725,-1.9725,-1.9725,-1.9725,-1.9725,-1.9725,-1.9725,-1.9725,-1.9725,-1.9725,-1.9725,-1.9691,-1.961,-1.9569,-1.9556,-1.9515,-1.9481,-1.9468,-1.9434,-1.9406,-1.9413,-1.9278,-1.9122,-1.9074,-1.9013,-1.904,-1.9108,-1.9088,-1.9054,-1.9203,-1.9257,-1.9203,-1.9108,-1.8938,-1.883,-1.881,-1.882,-1.882,-1.882,-1.8813,-1.8813,-1.8827,-1.8888,-1.8915,-1.8926,-1.9029,-1.9114,-1.9289,-1.9609,-1.9755,-1.9784,-1.9987,-2.0131,-2.091,-2.1382,-2.1654,-2.1909,-2.2025,-2.2001,-2.2038,-2.1923,-2.1753,-2.155,-2.1313,-2.1001,-2.0777,-2.0315,-1.877,-1.652,-1.3861,-1.1133,-0.8301,-0.5866,-0.4774,-0.4066,-0.4066,-0.4066,-0.4066,-0.4066,-0.4066,-0.4066,-0.4066,-0.4066,-0.4066,-0.4066,-0.4066,-0.4195,-0.4774,-0.6828,-1.0545,-1.2595,-1.4647,-1.7147,-1.8606,-1.9687,-2.0462,-2.0442,-2.0401,-2.0424,-2.037,-2.0315,-2.0268,-2.018,-2.0078,-2.0031,-1.9956,-1.9854,-1.9813,-1.982,-1.9807,-1.9773,-1.9752,-1.9725,-1.9725,-1.9725,-1.9725,-1.9725,-1.9725,-1.9725,-1.9725,-1.9725,-1.9725,-1.9725,-1.9725,-1.9725,-1.9725,-1.9711,-1.9718,-1.9718,-1.9718,-1.9718,-1.9718,-1.9711,-1.959,-1.9529,-1.942,-1.9298,-1.9237,-1.9203,-1.9203,-1.9223,-1.9237,-1.9223,-1.9257,-1.9373,-1.9373,-1.9278,-1.9189,-1.9054,-1.8945,-1.8898,-1.8816,-1.882,-1.882,-1.8827,-1.8827,-1.8861,-1.8884,-1.8891,-1.8837,-1.8895,-1.8994,-1.8981,-1.8946,-1.9165,-1.9442,-1.9407,-1.956,-2.0385,-2.0963,-2.0983,-2.1413,-2.2014,-2.2016,-2.193,-2.1746,-2.1645,-2.1462,-2.1211,-2.1034,-2.0892,-2.0712,-1.9976,-1.8616,-1.5778,-1.3399,-1.0224,-0.6766,-0.4968,-0.4131,-0.4066,-0.4066,-0.4066,-0.4066,-0.4066,-0.4066,-0.4066,-0.4066,-0.4066,-0.4066,-0.4066,-0.4131,-0.4774,-0.6251,-0.7597,-0.8494,-1.3235,-1.6121,-1.7147,-1.9452,-2.0412,-2.0469,-2.0462,-2.0505,-2.0519,-2.0442,-2.0422,-2.03,-2.0302,-2.0254,-2.0153,-2.0078,-2.0031,-1.9929,-1.9847,-1.9854,-1.9766,-1.9725,-1.9725,-1.9725,-1.9725,-1.9725,-1.9725,-1.9725,-1.9725,-1.9725,-1.9725,-1.9725,-1.9725,-1.9725,-1.9725,-1.9725,-1.9725,-1.9725,-1.9725,-1.9725,-1.9725,-1.9725,-1.9691,-1.9596,-1.9549,-1.9447,-1.9379,-1.9352,-1.9345,-1.9379,-1.942,-1.9406,-1.9413,-1.9529,-1.9515,-1.94,-1.9312,-1.9196,-1.9074,-1.8993,-1.8905,-1.8888,-1.8834,-1.8841,-1.8841,-1.8888,-1.8918,-1.8891,-1.8803,-1.885,-1.8932,-1.8925,-1.8918,-1.8884,-1.9039,-1.9077,-1.9275,-1.9748,-2.0146,-2.0146,-2.0659,-2.1468,-2.1848,-2.1835,-2.1652,-2.1421,-2.1272,-2.1184,-2.0933,-2.0749,-2.0718,-1.8333,-1.5881,-1.3518,-1.2287,-0.9714,-0.5866,-0.471,-0.4066,-0.4066,-0.4066,-0.4066,-0.4066,-0.4066,-0.4066,-0.4066,-0.4066,-0.4066,-0.4066,-0.4066,-0.4066,-0.4389,-0.5159,-0.6379,-0.8237,-1.1891,-1.3875,-1.6121,-1.8682,-2.0031,-2.0412,-2.0031,-2.0031,-2.0094,-2.0349,-2.0449,-2.0388,-2.034,-2.0343,-2.0248,-2.0166,-2.0037,-1.9902,-1.9881,-1.9793,-1.9732,-1.9725,-1.9725,-1.9725,-1.9732,-1.9739,-1.9732,-1.9739,-1.9752,-1.9732,-1.9732,-1.9725,-1.9725,-1.9725,-1.9725,-1.9725,-1.9725,-1.9725,-1.9725,-1.9725,-1.9725,-1.9725,-1.9725,-1.9725,-1.9725,-1.9596,-1.9522,-1.9508,-1.9495,-1.9522,-1.9563,-1.959,-1.9664,-1.9677,-1.9684,-1.9569,-1.9508,-1.9406,-1.9203,-1.9101,-1.9013,-1.8932,-1.8857,-1.8888,-1.8902,-1.8915,-1.8918,-1.8864,-1.8789,-1.8898,-1.9013,-1.9027,-1.902,-1.9013,-1.8993,-1.9011,-1.9197,-1.955,-1.9616,-1.9689,-1.9914,-2.0545,-2.1094,-2.1706,-2.141,-1.9986,-1.9396,-1.912,-1.7912,-1.7258,-1.695,-1.5437,-1.3082,-1.0741,-1.0224,-0.8626,-0.5544,-0.4774,-0.4066,-0.4066,-0.4066,-0.4066,-0.4066,-0.4066,-0.4066,-0.4066,-0.4066,-0.4066,-0.4066,-0.4066,-0.4066,-0.4066,-0.426,-0.5353,-0.6828,-0.9201,-1.2019,-1.4711,-1.7205,-1.9452,-2.0412,-1.9452,-1.8809,-1.9007,-1.9516,-2.0349,-2.0435,-2.0345,-2.0291,-2.0404,-2.0329,-2.0227,-2.0058,-1.9969,-1.9868,-1.9759,-1.9725,-1.9725,-1.9745,-1.9766,-1.9793,-1.9759,-1.9712,-1.9732,-1.9793,-1.9739,-1.9739,-1.9814,-1.9807,-1.9732,-1.9725,-1.9725,-1.9725,-1.9725,-1.9725,-1.9725,-1.9725,-1.9725,-1.9725,-1.9725,-1.9698,-1.9596,-1.959,-1.9643,-1.9664,-1.9691,-1.9691,-1.9705,-1.9705,-1.9718,-1.9718,-1.9617,-1.9563,-1.9373,-1.9237,-1.9156,-1.9033,-1.8932,-1.8918,-1.8932,-1.8938,-1.8952,-1.8925,-1.8918,-1.9013,-1.9094,-1.9101,-1.9135,-1.9189,-1.9162,-1.9088,-1.912,-1.9321,-1.9369,-1.9365,-1.9585,-1.976,-2.0161,-2.0301,-1.9956,-1.7561,-1.6554,-1.6265,-1.3971,-1.2898,-1.2682,-1.2162,-1.0672,-0.85,-0.7919,-0.7726,-0.6763,-0.5417,-0.4581,-0.4066,-0.4066,-0.4066,-0.4066,-0.4066,-0.4066,-0.4066,-0.4066,-0.4066,-0.4066,-0.4066,-0.4066,-0.4066,-0.4131,-0.4324,-0.471,-0.6828,-0.9647,-1.2275,-1.503,-1.7593,-1.8491,-1.7981,-1.6504,-1.7083,-1.8039,-1.8485,-1.9127,-1.9834,-1.9967,-1.9961,-2.0322,-2.0261,-2.0261,-2.0031,-1.9854,-1.982,-1.978,-1.978,-1.98,-1.9793,-1.9766,-1.9725,-1.9841,-1.9868,-1.9868,-1.9725,-1.9725,-1.98,-1.9759,-1.9745,-1.9725,-1.9725,-1.9725,-1.9725,-1.9725,-1.9725,-1.9725,-1.9725,-1.9725,-1.9725,-1.9725,-1.9718,-1.9711,-1.9718,-1.9725,-1.9725,-1.9725,-1.9725,-1.9725,-1.9725,-1.9725,-1.9711,-1.959,-1.9474,-1.9393,-1.9345,-1.921,-1.9054,-1.9061,-1.9088,-1.904,-1.9054,-1.9033,-1.9047,-1.9156,-1.9203,-1.9176,-1.9217,-1.9325,-1.9284,-1.9196,-1.9242,-1.9235,-1.9219,-1.9262,-1.9289,-1.9459,-1.949,-1.464,-1.4472,-1.3775,-1.3502,-1.3367,-1.2608,-1.2393,-1.1942,-0.9872,-0.8631,-0.76,-0.5737,-0.4903,-0.4903,-0.4516,-0.4066,-0.4066,-0.4066,-0.4066,-0.4066,-0.4066,-0.4066,-0.4324,-0.4645,-0.4195,-0.4195,-0.426,-0.4195,-0.4131,-0.4066,-0.4131,-0.4323,-0.6699,-0.9454,-1.2275,-1.4711,-1.6376,-1.7083,-1.6567,-1.5222,-1.3235,-1.3619,-1.3683,-1.4647,-1.6057,-1.6764,-1.7657,-1.9388,-2.0071,-2.0282,-2.0078,-1.9922,-1.9854,-1.9834,-1.9827,-1.9827,-1.9881,-1.9827,-1.9807,-1.9847,-1.9875,-1.9807,-1.9746,-1.9752,-1.9766,-1.9773,-1.9725,-1.9725,-1.9725,-1.9725,-1.9725,-1.9725,-1.9725,-1.9725,-1.9725,-1.9725,-1.9725,-1.9725,-1.9725,-1.9718,-1.9725,-1.9725,-1.9725,-1.9725,-1.9725,-1.9725,-1.9725,-1.9725,-1.9725,-1.9617,-1.9563,-1.9535,-1.9501,-1.9379,-1.9223,-1.9264,-1.9284,-1.9217,-1.9149,-1.9122,-1.9162,-1.9305,-1.9332,-1.9284,-1.9379,-1.9508,-1.9434,-1.9318,-1.9298,-1.9337,-1.9217,-1.9228,-1.9203,-1.9262,-1.9354]},{"header":{"parameterUnit":"m.s-1","parameterCategory":1,"la1":31.0,"la2":29.5877,"lo1":-88.7671,"lo2":-86.6584,"dy":0.0162,"dx":0.0185,"nx":115,"ny":88,"refTime":"2024-06-18T06:00:00:Z","depth":0,"parameterNumber":3,"parameterNumberName":"V-component_of_WINDS"},"data":[0.0,0.0,0.0,0.0,0.0,0.0,0.0,0.0,0.0,0.0,0.0,0.0,0.0,0.0,0.0,0.0,0.0,0.0,0.0,0.0,0.0,0.0,0.0,0.0,0.0,0.0,0.0,0.0,0.0,0.0,0.0,0.0,0.0,0.0,0.0,0.0,0.0,0.0,0.0,0.0,0.0,0.0,0.0,0.0,0.0,0.0,0.0,0.0,0.0,0.0,0.0,0.0,0.0,0.0,0.0,0.0,0.0,0.0,0.0,0.0,0.0,0.0,0.0,0.0,0.0,0.0,0.0,0.0,0.0,0.0,0.0,0.0,0.0,0.0,0.0,0.0,0.0,0.0,0.0,0.0,0.0,0.0,0.0,0.0,0.0,0.0,0.0,0.0,0.0,0.0,0.0,0.0,0.0,0.0,0.0,0.0,0.0,0.0,0.0,0.0,0.0,0.0,0.0,0.0,0.0,0.0,0.0,0.0,0.0,0.0,0.0,0.0,0.0,0.0,0.0,0.0,0.0,0.0,0.0,0.0,0.0,0.0,0.0,0.0,0.0,0.0,0.0,0.0,0.0,0.0,0.0,0.0,0.0,0.0,0.0,0.0,0.0,0.0,0.0,0.0,0.0,0.0,0.0,0.0,0.0,0.0,0.0,0.0,0.0,0.0,0.0,0.0,0.0,0.0,0.0,0.0,0.0,0.0,0.0,0.0,0.0,0.0,0.0,0.0,0.0,0.0,0.0,0.0,0.0,0.0,0.0,0.0,0.0,0.0,0.0,0.0,0.0,0.0,0.0,0.0,0.0,0.0,0.0,0.0,0.0,0.0,0.0,0.0,0.0,0.0,0.0,0.0,0.0,0.0,0.0,0.0,0.0,0.0,0.0,0.0,0.0,0.0,0.0,0.0,0.0,0.0,0.0,0.0,0.0,0.0,0.0,0.0,0.0,0.0,0.0,0.0,0.0,0.0,0.0,0.0,0.0,0.0,0.0,0.0,0.0,0.0,0.0,0.0,0.0,0.0,0.0,0.0,0.0,0.0,0.0,0.0,0.0,0.0,0.0,0.0,0.0,0.0,0.0,0.0,0.0,0.0,0.0,0.0,0.0,0.0,0.0,0.0,0.0,0.0,0.0,0.0,0.0,0.0,0.0,0.0,0.0,0.0,0.0,0.0,0.0,0.0,0.0,0.0,0.0,0.0,0.0,0.0,0.0,0.0,0.0,0.0,0.0,0.0,0.0,0.0,0.0,0.0,0.0,0.0,0.0,0.0,0.0,0.0,0.0,0.0,0.0,0.0,0.0,0.0,0.0,0.0,0.0,0.0,0.0,0.0,0.0,0.0,0.0,0.0,0.0,0.0,0.0,0.0,0.0,0.0,0.0,0.0,0.0,0.0,0.0,0.0,0.0,0.0,0.0,0.0,0.0,0.0,0.0,0.0,0.0,0.0,0.0,0.0,0.0,0.0,0.0,0.0,0.0,0.0,0.0,0.0,0.0,0.0,0.0,0.0,0.0,0.0,0.0,0.0,0.0,0.0,0.0,0.0,0.0,0.0,0.0,0.0,0.0,0.0,0.0,0.0,0.0,0.0,0.0,0.0,0.0,0.0,0.0,0.0,0.0,0.0,0.0,0.0,0.0,0.0,0.0,0.0,0.0,0.0,0.0,0.0,0.0,0.0,0.0,0.0,0.0,0.0,0.0,0.0,0.0,0.0,0.0,0.0,0.0,0.0,0.0,0.0,0.0,0.0,0.0,0.0,0.0,0.0,0.0,0.0,0.0,0.0,0.0,0.0,0.0,0.0,0.0,0.0,0.0,0.0,0.0,0.0,0.0,0.0,0.0,0.0,0.0,0.0,0.0,0.0,0.0,0.0,0.0,0.0,0.0,0.0,0.0,0.0,0.0,0.0,0.0,0.0,0.0,0.0,0.0,0.0,0.0,0.0,0.0,0.0,0.0,0.0,0.0,0.0,0.0,0.0,0.0,0.0,0.0,0.0,0.0,0.0,0.0,0.0,0.0,0.0,0.0,0.0,0.0,0.0,0.0,0.0,0.0,0.0,0.0,0.0,0.0,0.0,0.0,0.0,0.0,0.0,0.0,0.0,0.0,0.0,0.0,0.0,0.0,0.0,0.0,0.0,0.0,0.0,0.0,0.0,0.0,0.0,0.0,0.0,0.0,0.0,0.0,0.0,0.0,0.0,0.0,0.0,0.0,0.0,0.0,0.0,0.0,0.0,0.0,0.0,0.0,0.0,0.0,0.0,0.0,0.0,0.0,0.0,0.0,0.0,0.0,0.0,0.0,0.0,0.0,0.0,0.0,0.0,0.0,0.0,0.0,0.0,0.0,0.0,0.0,0.0,0.0,0.0,0.0,0.0,0.0,0.0,0.0,0.0,0.0,0.0,0.0,0.0,0.0,0.0,0.0,0.0,0.0,0.0,0.0,0.0,0.0,0.0,0.0,0.0,0.0,0.0,0.0,0.0,0.0,0.0,0.0,0.0,0.0,0.0,0.0,0.0,0.0,0.0,0.0,0.0,0.0,0.0,0.0,0.0,0.0,0.0,0.0,0.0,0.0,0.0,0.0,0.0,0.0,0.0,0.0,0.0,0.0,0.0,0.0,0.0,0.0,0.0,0.0,0.0,0.0,0.0,0.0,0.0,0.0,0.0,0.0,0.0,0.0,0.0,0.0,0.0,0.0,0.0,0.0,0.0,0.0,0.0,0.0,0.0,0.0,0.0,0.0,0.0,0.0,0.0,0.0,0.0,0.0,0.0,0.0,0.0,0.0,0.0,0.0,0.0,0.0,0.0,0.0,0.0,0.0,0.0,0.0,0.0,0.0,0.0,0.0,0.0,0.0,0.0,0.0,0.0,0.0,0.0,0.0,0.0,0.0,0.0,0.0,0.0,0.0,0.0,0.0,0.0,0.0,0.0,0.0,0.0,0.0,0.0,0.0,0.0,0.0,0.0,0.0,0.0,0.0,0.0,0.0,0.0,0.0,0.0,0.0,0.0,0.0,0.0,0.0,0.0,0.0,0.0,0.0,0.0,0.0,0.0,0.0,0.0,0.0,0.0,0.0,0.0,0.0,0.0,0.0,0.0,0.0,0.0,0.0,0.0,0.0,0.0,0.0,0.0,0.0,0.0,0.0,0.0,0.0,0.0,0.0,0.0,0.0,0.0,0.0,0.0,0.0,0.0,0.0,0.0,0.0,0.0,0.0,0.0,0.0,0.0,0.0,0.0,0.0,0.0,0.0,0.0,0.0,0.0,0.0,0.0,0.0,0.0,0.0,0.0,0.0,0.0,0.0,0.0,0.0,0.0,0.0,0.0,0.0,0.0,0.0,0.0,0.0,0.0,0.0,0.0,0.0,0.0,0.0,0.0,0.0,0.0,0.0,0.0,0.0,0.0,0.0,0.0,0.0,0.0,0.0,0.0,0.0,0.0,0.0,0.0,0.0,0.0,0.0,0.0,0.0,0.0,0.0,0.0,0.0,0.0,0.0,0.0,0.0,0.0,0.0,0.0,0.0,0.0,0.0,0.0,0.0,0.0,0.0,0.0,0.0,0.0,0.0,0.0,0.0,0.0,0.0,0.0,0.0,0.0,0.0,0.0,0.0,0.0,0.0,0.0,0.0,0.0,0.0,0.0,0.0,0.0,0.0,0.0,0.0,0.0,0.0,0.0,0.0,0.0,0.0,0.0,0.0,0.0,0.0,0.0,0.0,0.0,0.0,0.0,0.0,0.0,0.0,0.0,0.0,0.0,0.0,0.0,0.0,0.0,0.0,0.0,0.0,0.0,0.0,0.0,0.0,0.0,0.0,0.0,0.0,0.0,0.0,0.0,0.0,0.0,0.0,0.0,0.0,0.0,0.0,0.0,0.0,0.0,0.0,0.0,0.0,0.0,0.0,0.0,0.0,0.0,0.0,0.0,0.0,0.0,0.0,0.0,0.0,0.0,0.0,0.0,0.0,0.0,0.0,0.0,0.0,0.0,0.0,0.0,0.0,0.0,0.0,0.0,0.0,0.0,0.0,0.0,0.0,0.0,0.0,0.0,0.0,0.0,0.0,0.0,0.0,0.0,0.0,0.0,0.0,0.0,0.0,0.0,0.0,0.0,0.0,0.0,0.0,0.0,0.0,0.0,0.0,0.0,0.0,0.0,0.0,0.0,0.0,0.0,0.0,0.0,0.0,0.0,0.0,0.0,0.0,0.0,0.0,0.0,0.0,0.0,0.0,0.0,0.0,0.0,0.0,0.0,0.0,0.0,0.0,0.0,4.9759,0.0,0.0,0.0,0.0,0.0,0.0,0.0,0.0,0.0,0.0,0.0,0.0,0.0,0.0,0.0,0.0,0.0,0.0,0.0,0.0,0.0,0.0,0.0,0.0,0.0,0.0,0.0,0.0,0.0,0.0,0.0,0.0,0.0,0.0,0.0,0.0,0.0,0.0,0.0,0.0,0.0,0.0,0.0,0.0,0.0,0.0,0.0,0.0,0.0,0.0,0.0,0.0,0.0,0.0,0.0,0.0,0.0,0.0,0.0,0.0,0.0,0.0,0.0,0.0,0.0,0.0,0.0,0.0,0.0,0.0,0.0,0.0,0.0,0.0,0.0,0.0,0.0,0.0,0.0,0.0,0.0,0.0,0.0,0.0,0.0,0.0,0.0,0.0,0.0,0.0,0.0,0.0,0.0,0.0,0.0,0.0,0.0,0.0,0.0,0.0,0.0,0.0,0.0,0.0,0.0,0.0,0.0,0.0,0.0,0.0,5.3728,5.2487,5.3689,5.2942,4.9892,0.0,0.0,0.0,0.0,0.0,0.0,0.0,0.0,0.0,0.0,0.0,0.0,0.0,0.0,0.0,0.0,0.0,0.0,0.0,0.0,0.0,0.0,0.0,0.0,0.0,0.0,0.0,0.0,0.0,0.0,0.0,0.0,0.0,0.0,0.0,0.0,0.0,0.0,0.0,0.0,0.0,0.0,0.0,0.0,0.0,0.0,0.0,0.0,0.0,0.0,0.0,0.0,0.0,0.0,0.0,0.0,0.0,0.0,0.0,0.0,0.0,0.0,0.0,0.0,0.0,0.0,0.0,0.0,0.0,0.0,0.0,0.0,0.0,0.0,0.0,0.0,0.0,0.0,0.0,0.0,0.0,0.0,0.0,0.0,0.0,0.0,0.0,0.0,0.0,0.0,0.0,0.0,0.0,0.0,0.0,0.0,0.0,0.0,0.0,0.0,0.0,0.0,0.0,0.0,0.0,0.0,0.0,0.0,0.0,0.0,0.0,0.0,5.4744,5.3647,4.9876,0.0,0.0,0.0,0.0,0.0,0.0,0.0,0.0,0.0,0.0,0.0,0.0,0.0,0.0,0.0,0.0,0.0,0.0,0.0,0.0,0.0,0.0,0.0,0.0,0.0,0.0,0.0,0.0,0.0,0.0,0.0,0.0,0.0,0.0,0.0,0.0,0.0,0.0,0.0,0.0,0.0,0.0,0.0,0.0,0.0,0.0,0.0,0.0,0.0,0.0,0.0,0.0,0.0,0.0,0.0,0.0,0.0,0.0,0.0,0.0,0.0,0.0,0.0,0.0,0.0,0.0,0.0,0.0,0.0,0.0,0.0,0.0,0.0,0.0,0.0,0.0,0.0,0.0,0.0,0.0,0.0,0.0,0.0,0.0,0.0,0.0,0.0,0.0,0.0,0.0,0.0,0.0,0.0,0.0,0.0,0.0,0.0,0.0,0.0,0.0,0.0,0.0,0.0,0.0,0.0,0.0,0.0,0.0,0.0,0.0,5.5282,5.6618,5.6821,0.0,4.9894,0.0,0.0,0.0,0.0,0.0,0.0,0.0,0.0,0.0,0.0,0.0,0.0,0.0,0.0,0.0,0.0,0.0,0.0,0.0,0.0,0.0,0.0,0.0,0.0,0.0,0.0,0.0,0.0,0.0,0.0,0.0,0.0,0.0,0.0,0.0,0.0,0.0,0.0,0.0,0.0,0.0,0.0,0.0,0.0,0.0,0.0,0.0,0.0,0.0,0.0,0.0,0.0,0.0,0.0,0.0,0.0,0.0,0.0,0.0,0.0,0.0,0.0,0.0,0.0,0.0,0.0,0.0,0.0,0.0,0.0,0.0,0.0,0.0,0.0,0.0,0.0,0.0,0.0,0.0,0.0,0.0,0.0,0.0,0.0,0.0,0.0,0.0,0.0,0.0,0.0,0.0,0.0,0.0,0.0,0.0,0.0,0.0,0.0,0.0,0.0,0.0,0.0,0.0,0.0,0.0,0.0,0.0,0.0,0.0,0.0,5.6123,5.6316,5.4847,5.2377,0.0,0.0,0.0,0.0,0.0,0.0,0.0,0.0,0.0,0.0,0.0,0.0,0.0,0.0,0.0,0.0,0.0,0.0,0.0,0.0,0.0,0.0,0.0,0.0,0.0,0.0,0.0,0.0,0.0,0.0,0.0,0.0,0.0,0.0,0.0,0.0,0.0,0.0,0.0,0.0,0.0,0.0,0.0,0.0,0.0,0.0,0.0,0.0,0.0,0.0,0.0,0.0,0.0,0.0,0.0,0.0,0.0,0.0,0.0,0.0,0.0,0.0,0.0,0.0,0.0,0.0,0.0,0.0,0.0,0.0,0.0,0.0,0.0,0.0,0.0,0.0,0.0,0.0,0.0,0.0,0.0,0.0,0.0,0.0,0.0,0.0,0.0,0.0,0.0,0.0,0.0,0.0,0.0,0.0,0.0,0.0,0.0,0.0,0.0,0.0,0.0,0.0,0.0,0.0,0.0,0.0,0.0,0.0,0.0,0.0,5.5653,5.6571,5.6405,5.4411,5.1659,4.824,0.0,0.0,0.0,0.0,0.0,0.0,0.0,0.0,0.0,0.0,0.0,0.0,0.0,0.0,0.0,0.0,0.0,0.0,0.0,0.0,0.0,0.0,0.0,0.0,0.0,0.0,0.0,0.0,0.0,0.0,0.0,0.0,0.0,0.0,0.0,0.0,0.0,0.0,0.0,0.0,0.0,0.0,0.0,0.0,0.0,0.0,0.0,0.0,0.0,0.0,0.0,0.0,0.0,0.0,0.0,0.0,0.0,0.0,0.0,0.0,0.0,0.0,0.0,0.0,0.0,0.0,0.0,0.0,0.0,0.0,0.0,0.0,0.0,0.0,0.0,0.0,0.0,0.0,0.0,0.0,0.0,0.0,0.0,0.0,0.0,0.0,0.0,0.0,0.0,0.0,0.0,0.0,0.0,0.0,0.0,0.0,0.0,0.0,0.0,0.0,0.0,0.0,0.0,0.0,0.0,0.0,0.0,0.0,5.7627,5.6511,5.6549,5.8127,5.7247,5.4054,0.0,0.0,0.0,0.0,0.0,0.0,0.0,0.0,0.0,0.0,0.0,0.0,0.0,0.0,0.0,0.0,0.0,0.0,0.0,0.0,0.0,0.0,0.0,0.0,0.0,0.0,0.0,0.0,0.0,0.0,0.0,0.0,0.0,0.0,0.0,0.0,0.0,0.0,0.0,0.0,0.0,0.0,0.0,0.0,0.0,0.0,0.0,0.0,0.0,0.0,0.0,0.0,0.0,0.0,0.0,0.0,0.0,0.0,0.0,0.0,0.0,0.0,0.0,0.0,0.0,0.0,0.0,0.0,0.0,0.0,0.0,0.0,0.0,0.0,0.0,0.0,0.0,0.0,0.0,0.0,0.0,0.0,0.0,0.0,0.0,0.0,0.0,0.0,0.0,0.0,0.0,0.0,0.0,0.0,0.0,0.0,0.0,0.0,0.0,0.0,0.0,0.0,0.0,0.0,0.0,0.0,0.0,0.0,0.0,5.4121,5.5164,5.7324,6.0402,5.6203,5.2472,0.0,0.0,0.0,0.0,0.0,0.0,0.0,0.0,0.0,0.0,0.0,0.0,0.0,0.0,0.0,0.0,0.0,0.0,0.0,0.0,0.0,0.0,0.0,0.0,0.0,0.0,0.0,0.0,0.0,0.0,0.0,0.0,0.0,0.0,0.0,0.0,0.0,0.0,0.0,0.0,0.0,0.0,0.0,0.0,0.0,0.0,0.0,0.0,0.0,0.0,0.0,0.0,0.0,0.0,0.0,0.0,0.0,0.0,0.0,0.0,0.0,0.0,0.0,0.0,0.0,0.0,0.0,0.0,0.0,0.0,0.0,0.0,0.0,0.0,0.0,0.0,0.0,0.0,0.0,0.0,0.0,0.0,0.0,0.0,0.0,0.0,0.0,0.0,0.0,0.0,0.0,0.0,0.0,0.0,0.0,0.0,0.0,0.0,0.0,0.0,0.0,0.0,0.0,0.0,0.0,0.0,0.0,0.0,0.0,5.3967,0.0,5.8902,0.0,5.628,5.2395,0.0,0.0,0.0,0.0,0.0,0.0,0.0,0.0,0.0,0.0,0.0,0.0,0.0,0.0,0.0,0.0,0.0,0.0,0.0,0.0,0.0,0.0,0.0,0.0,0.0,0.0,0.0,0.0,0.0,0.0,0.0,0.0,0.0,0.0,0.0,0.0,0.0,0.0,0.0,0.0,0.0,0.0,0.0,0.0,0.0,0.0,0.0,0.0,0.0,0.0,0.0,0.0,0.0,0.0,0.0,0.0,0.0,0.0,0.0,0.0,0.0,0.0,0.0,0.0,0.0,0.0,0.0,0.0,0.0,0.0,0.0,0.0,0.0,0.0,0.0,0.0,0.0,0.0,0.0,0.0,0.0,0.0,0.0,0.0,0.0,0.0,0.0,0.0,0.0,0.0,0.0,0.0,0.0,0.0,0.0,0.0,0.0,0.0,0.0,0.0,0.0,0.0,0.0,0.0,0.0,0.0,0.0,0.0,5.3217,5.8077,6.0627,6.1121,5.9621,5.778,5.4126,0.0,0.0,0.0,0.0,0.0,0.0,0.0,0.0,0.0,0.0,0.0,0.0,0.0,0.0,0.0,0.0,0.0,0.0,0.0,0.0,0.0,0.0,0.0,0.0,0.0,0.0,0.0,0.0,0.0,0.0,0.0,0.0,0.0,0.0,0.0,0.0,0.0,0.0,0.0,0.0,0.0,0.0,0.0,0.0,0.0,0.0,0.0,0.0,0.0,0.0,0.0,0.0,0.0,0.0,0.0,0.0,0.0,0.0,0.0,0.0,0.0,0.0,0.0,0.0,0.0,0.0,0.0,0.0,0.0,0.0,0.0,0.0,0.0,0.0,0.0,0.0,0.0,0.0,0.0,0.0,0.0,0.0,0.0,0.0,0.0,0.0,0.0,0.0,0.0,0.0,0.0,0.0,0.0,0.0,0.0,0.0,0.0,0.0,0.0,0.0,0.0,0.0,0.0,0.0,0.0,0.0,0.0,0.0,0.0,5.8947,5.9759,6.1026,6.2631,5.784,5.4271,0.0,0.0,0.0,0.0,0.0,0.0,0.0,0.0,0.0,0.0,0.0,0.0,0.0,0.0,0.0,0.0,0.0,0.0,0.0,0.0,0.0,0.0,0.0,0.0,0.0,0.0,0.0,0.0,0.0,0.0,0.0,0.0,0.0,0.0,0.0,0.0,0.0,0.0,0.0,0.0,0.0,0.0,0.0,0.0,0.0,0.0,0.0,0.0,0.0,0.0,0.0,0.0,0.0,0.0,0.0,0.0,0.0,0.0,0.0,0.0,0.0,0.0,0.0,0.0,0.0,0.0,0.0,0.0,0.0,0.0,0.0,0.0,0.0,0.0,0.0,0.0,0.0,0.0,0.0,0.0,0.0,0.0,0.0,0.0,0.0,0.0,0.0,0.0,0.0,0.0,0.0,0.0,0.0,0.0,0.0,0.0,0.0,0.0,0.0,0.0,0.0,0.0,0.0,0.0,0.0,0.0,0.0,0.0,0.0,6.1112,6.1465,6.2182,6.3415,5.9006,5.5747,5.383,0.0,0.0,0.0,0.0,0.0,0.0,0.0,0.0,0.0,0.0,0.0,0.0,0.0,0.0,0.0,0.0,0.0,0.0,0.0,0.0,0.0,0.0,0.0,0.0,0.0,0.0,0.0,0.0,0.0,0.0,0.0,0.0,0.0,0.0,0.0,0.0,0.0,0.0,0.0,0.0,0.0,0.0,0.0,0.0,0.0,0.0,0.0,0.0,0.0,0.0,0.0,0.0,0.0,0.0,0.0,0.0,0.0,0.0,0.0,0.0,0.0,0.0,0.0,0.0,0.0,0.0,0.0,0.0,0.0,0.0,0.0,0.0,0.0,0.0,0.0,0.0,0.0,0.0,0.0,0.0,0.0,0.0,0.0,0.0,0.0,0.0,0.0,0.0,0.0,0.0,0.0,0.0,0.0,0.0,0.0,0.0,0.0,0.0,0.0,0.0,0.0,0.0,0.0,0.0,0.0,0.0,0.0,0.0,6.416,6.5217,6.459,6.2297,6.1147,5.831,0.0,0.0,0.0,0.0,0.0,0.0,0.0,0.0,0.0,0.0,0.0,0.0,0.0,0.0,0.0,0.0,0.0,0.0,0.0,0.0,0.0,0.0,0.0,0.0,0.0,0.0,0.0,0.0,0.0,0.0,0.0,0.0,0.0,0.0,0.0,0.0,0.0,0.0,0.0,0.0,0.0,0.0,0.0,0.0,0.0,0.0,0.0,0.0,0.0,0.0,0.0,0.0,0.0,0.0,0.0,0.0,0.0,0.0,0.0,0.0,0.0,0.0,0.0,0.0,0.0,0.0,0.0,0.0,0.0,0.0,0.0,0.0,0.0,0.0,0.0,0.0,0.0,0.0,0.0,0.0,0.0,0.0,0.0,0.0,0.0,0.0,0.0,0.0,0.0,0.0,0.0,0.0,0.0,0.0,0.0,0.0,0.0,0.0,0.0,0.0,0.0,0.0,0.0,0.0,0.0,0.0,0.0,0.0,0.0,6.4191,6.6223,6.6973,6.6246,6.2498,5.9246,0.0,0.0,0.0,0.0,0.0,0.0,0.0,0.0,0.0,0.0,0.0,0.0,0.0,0.0,0.0,0.0,0.0,0.0,0.0,0.0,0.0,0.0,0.0,0.0,0.0,0.0,0.0,0.0,0.0,0.0,0.0,0.0,0.0,0.0,0.0,0.0,0.0,0.0,0.0,0.0,0.0,0.0,0.0,0.0,0.0,0.0,0.0,0.0,0.0,0.0,0.0,0.0,0.0,0.0,0.0,0.0,0.0,0.0,0.0,0.0,0.0,0.0,0.0,0.0,0.0,0.0,0.0,0.0,0.0,0.0,0.0,0.0,0.0,0.0,0.0,0.0,0.0,0.0,0.0,0.0,0.0,0.0,0.0,0.0,0.0,0.0,0.0,0.0,0.0,0.0,0.0,0.0,0.0,0.0,0.0,0.0,0.0,0.0,0.0,0.0,0.0,0.0,0.0,0.0,0.0,0.0,0.0,0.0,6.3841,6.5414,6.7406,6.8287,6.7905,6.4764,6.1554,0.0,0.0,0.0,0.0,0.0,0.0,0.0,0.0,0.0,0.0,0.0,0.0,0.0,0.0,0.0,0.0,0.0,0.0,0.0,0.0,0.0,0.0,0.0,0.0,0.0,0.0,0.0,0.0,0.0,0.0,0.0,0.0,0.0,0.0,0.0,0.0,0.0,0.0,0.0,0.0,0.0,0.0,0.0,0.0,0.0,0.0,0.0,0.0,0.0,0.0,0.0,0.0,0.0,0.0,0.0,0.0,0.0,0.0,0.0,0.0,0.0,0.0,0.0,0.0,0.0,0.0,0.0,0.0,0.0,0.0,0.0,0.0,0.0,0.0,0.0,0.0,0.0,0.0,0.0,0.0,0.0,0.0,0.0,0.0,0.0,0.0,0.0,0.0,0.0,0.0,0.0,0.0,0.0,0.0,0.0,0.0,0.0,0.0,0.0,0.0,0.0,0.0,0.0,0.0,0.0,0.0,0.0,0.0,6.4033,6.707,6.8493,6.8763,6.7849,6.7041,6.426,0.0,0.0,0.0,0.0,0.0,0.0,0.0,0.0,0.0,0.0,0.0,0.0,0.0,0.0,0.0,0.0,0.0,0.0,0.0,0.0,0.0,0.0,0.0,0.0,0.0,0.0,0.0,0.0,0.0,0.0,0.0,0.0,0.0,0.0,0.0,0.0,0.0,0.0,0.0,0.0,0.0,0.0,0.0,0.0,0.0,0.0,0.0,0.0,0.0,0.0,0.0,0.0,0.0,0.0,0.0,0.0,0.0,0.0,0.0,0.0,0.0,0.0,0.0,0.0,0.0,0.0,0.0,0.0,0.0,0.0,0.0,0.0,0.0,0.0,0.0,0.0,0.0,0.0,0.0,0.0,0.0,0.0,0.0,0.0,0.0,0.0,0.0,0.0,0.0,0.0,0.0,0.0,0.0,0.0,0.0,0.0,0.0,0.0,0.0,0.0,0.0,0.0,0.0,0.0,0.0,0.0,0.0,0.0,6.4978,6.662,6.8258,6.8582,6.7367,6.6257,6.3923,0.0,0.0,0.0,0.0,0.0,0.0,0.0,0.0,0.0,0.0,0.0,0.0,0.0,0.0,0.0,0.0,0.0,0.0,0.0,0.0,0.0,0.0,0.0,0.0,0.0,0.0,0.0,0.0,0.0,0.0,0.0,0.0,0.0,0.0,0.0,0.0,0.0,0.0,0.0,0.0,0.0,0.0,0.0,0.0,0.0,0.0,0.0,0.0,5.3262,0.0,0.0,0.0,0.0,0.0,0.0,0.0,0.0,0.0,0.0,0.0,0.0,0.0,0.0,0.0,0.0,0.0,0.0,0.0,0.0,0.0,0.0,0.0,0.0,0.0,0.0,0.0,0.0,0.0,0.0,0.0,0.0,0.0,0.0,0.0,0.0,0.0,0.0,0.0,0.0,0.0,0.0,0.0,0.0,0.0,0.0,0.0,0.0,0.0,0.0,0.0,0.0,0.0,0.0,0.0,0.0,0.0,0.0,0.0,6.556,6.7341,6.8521,6.837,6.6973,6.6275,6.4499,0.0,0.0,0.0,0.0,0.0,0.0,0.0,0.0,0.0,0.0,0.0,0.0,0.0,0.0,0.0,0.0,0.0,0.0,0.0,0.0,0.0,0.0,0.0,0.0,0.0,0.0,0.0,0.0,0.0,0.0,0.0,0.0,0.0,0.0,0.0,0.0,0.0,0.0,0.0,0.0,0.0,0.0,0.0,0.0,0.0,0.0,0.0,0.0,0.0,0.0,0.0,0.0,0.0,0.0,0.0,0.0,0.0,0.0,0.0,0.0,0.0,0.0,0.0,0.0,0.0,0.0,0.0,0.0,0.0,0.0,0.0,0.0,0.0,0.0,0.0,0.0,0.0,0.0,0.0,0.0,0.0,0.0,0.0,0.0,0.0,0.0,0.0,0.0,0.0,0.0,0.0,0.0,0.0,0.0,0.0,0.0,0.0,0.0,0.0,0.0,0.0,0.0,0.0,0.0,0.0,0.0,0.0,6.3159,6.5615,6.8124,6.8642,6.8106,6.6534,6.6357,6.4946,6.2176,0.0,0.0,0.0,0.0,0.0,0.0,0.0,0.0,0.0,0.0,0.0,0.0,0.0,0.0,0.0,0.0,0.0,0.0,0.0,0.0,0.0,0.0,0.0,0.0,0.0,0.0,0.0,0.0,0.0,0.0,0.0,0.0,0.0,0.0,0.0,0.0,0.0,0.0,5.1877,5.3563,0.0,0.0,0.0,0.0,0.0,0.0,0.0,0.0,5.4694,0.0,0.0,0.0,0.0,0.0,0.0,0.0,0.0,0.0,0.0,0.0,0.0,0.0,0.0,0.0,0.0,0.0,0.0,0.0,0.0,0.0,0.0,0.0,0.0,0.0,0.0,0.0,0.0,0.0,0.0,0.0,0.0,0.0,0.0,0.0,0.0,0.0,0.0,0.0,0.0,0.0,0.0,0.0,0.0,0.0,0.0,0.0,0.0,0.0,0.0,0.0,0.0,0.0,0.0,0.0,0.0,6.3069,6.2931,6.4365,6.755,6.7717,6.7207,6.6049,6.5317,6.3717,6.1193,0.0,0.0,0.0,0.0,0.0,0.0,0.0,0.0,0.0,0.0,0.0,0.0,0.0,0.0,0.0,0.0,0.0,0.0,0.0,0.0,0.0,0.0,0.0,0.0,0.0,0.0,0.0,0.0,0.0,0.0,0.0,0.0,0.0,0.0,0.0,0.0,0.0,0.0,0.0,5.3675,5.4334,0.0,0.0,0.0,0.0,0.0,0.0,0.0,0.0,5.4531,0.0,0.0,0.0,0.0,0.0,0.0,0.0,0.0,0.0,0.0,0.0,0.0,0.0,0.0,0.0,0.0,0.0,0.0,0.0,0.0,0.0,0.0,0.0,0.0,0.0,0.0,0.0,0.0,0.0,0.0,0.0,0.0,0.0,0.0,0.0,0.0,0.0,0.0,0.0,0.0,0.0,0.0,0.0,0.0,0.0,0.0,0.0,0.0,0.0,0.0,0.0,0.0,0.0,0.0,0.0,6.1553,6.3033,6.4965,6.741,6.752,6.6863,6.5532,6.4746,6.3124,0.0,0.0,0.0,0.0,0.0,0.0,0.0,0.0,0.0,0.0,0.0,0.0,0.0,0.0,0.0,0.0,0.0,0.0,0.0,0.0,0.0,0.0,0.0,0.0,0.0,0.0,0.0,0.0,0.0,0.0,0.0,0.0,0.0,0.0,0.0,0.0,0.0,0.0,0.0,0.0,5.4055,5.465,5.4891,0.0,0.0,0.0,0.0,0.0,0.0,5.3822,5.3753,0.0,0.0,0.0,0.0,0.0,0.0,0.0,0.0,0.0,0.0,0.0,0.0,0.0,0.0,0.0,0.0,0.0,0.0,0.0,0.0,0.0,0.0,0.0,0.0,0.0,0.0,0.0,0.0,0.0,0.0,0.0,0.0,0.0,0.0,0.0,0.0,0.0,0.0,0.0,0.0,0.0,0.0,0.0,0.0,0.0,0.0,0.0,0.0,0.0,0.0,0.0,0.0,0.0,0.0,0.0,6.0105,6.2973,6.5467,6.741,6.752,6.6728,6.5181,6.4626,6.2998,0.0,0.0,0.0,0.0,0.0,0.0,0.0,0.0,0.0,0.0,0.0,0.0,0.0,0.0,0.0,0.0,0.0,0.0,0.0,0.0,0.0,0.0,0.0,0.0,0.0,0.0,0.0,0.0,0.0,0.0,0.0,0.0,0.0,0.0,0.0,0.0,0.0,0.0,0.0,0.0,0.0,5.5231,5.5249,5.5529,0.0,0.0,0.0,0.0,5.4323,5.3777,0.0,0.0,0.0,0.0,0.0,0.0,0.0,0.0,0.0,0.0,0.0,0.0,0.0,0.0,0.0,0.0,0.0,0.0,0.0,0.0,0.0,0.0,0.0,0.0,0.0,0.0,0.0,0.0,0.0,0.0,0.0,0.0,0.0,0.0,0.0,0.0,0.0,0.0,0.0,0.0,0.0,0.0,0.0,0.0,0.0,0.0,0.0,0.0,0.0,0.0,0.0,0.0,0.0,0.0,0.0,0.0,6.0949,6.2118,6.4254,6.7323,6.752,6.6769,6.5336,6.5202,6.3573,0.0,0.0,0.0,0.0,0.0,0.0,0.0,0.0,0.0,0.0,0.0,0.0,0.0,0.0,0.0,0.0,0.0,0.0,0.0,0.0,0.0,0.0,0.0,0.0,0.0,0.0,0.0,0.0,0.0,0.0,0.0,0.0,0.0,0.0,0.0,0.0,0.0,0.0,0.0,0.0,0.0,5.5885,5.4535,5.5651,5.6378,0.0,0.0,5.4375,5.4365,5.4536,0.0,0.0,0.0,0.0,0.0,0.0,0.0,0.0,0.0,0.0,0.0,0.0,0.0,0.0,0.0,0.0,0.0,0.0,0.0,0.0,0.0,0.0,0.0,0.0,0.0,0.0,0.0,0.0,0.0,0.0,0.0,0.0,0.0,0.0,0.0,0.0,0.0,0.0,0.0,0.0,0.0,0.0,0.0,0.0,0.0,0.0,0.0,0.0,0.0,0.0,0.0,0.0,0.0,0.0,0.0,5.9456,6.1206,6.3424,6.5513,6.741,6.752,6.6778,6.522,6.4822,6.2741,0.0,0.0,0.0,0.0,0.0,0.0,0.0,0.0,0.0,0.0,0.0,0.0,0.0,0.0,0.0,0.0,0.0,0.0,0.0,0.0,0.0,0.0,0.0,0.0,0.0,0.0,0.0,0.0,0.0,0.0,0.0,0.0,0.0,0.0,0.0,0.0,0.0,0.0,0.0,0.0,0.0,0.0,5.6262,5.6926,0.0,0.0,0.0,5.5071,5.506,0.0,0.0,0.0,0.0,0.0,0.0,0.0,0.0,0.0,0.0,0.0,0.0,0.0,0.0,0.0,0.0,0.0,0.0,0.0,0.0,0.0,0.0,0.0,0.0,0.0,0.0,0.0,0.0,0.0,0.0,0.0,0.0,0.0,0.0,0.0,0.0,0.0,0.0,0.0,0.0,0.0,0.0,0.0,0.0,0.0,0.0,0.0,0.0,0.0,0.0,0.0,0.0,0.0,0.0,0.0,0.0,0.0,6.1624,6.4872,6.7012,6.7831,6.7854,6.7208,6.578,6.4882,0.0,0.0,0.0,0.0,0.0,0.0,0.0,0.0,0.0,0.0,0.0,0.0,0.0,0.0,0.0,0.0,0.0,0.0,0.0,0.0,0.0,0.0,0.0,0.0,0.0,0.0,0.0,4.3681,0.0,0.0,0.0,0.0,0.0,0.0,0.0,0.0,0.0,0.0,0.0,0.0,0.0,0.0,5.7127,5.77,5.8245,5.8584,0.0,0.0,5.6209,5.6172,5.5548,5.4803,0.0,0.0,0.0,0.0,0.0,0.0,0.0,0.0,0.0,0.0,0.0,0.0,0.0,0.0,0.0,0.0,0.0,0.0,0.0,0.0,0.0,0.0,0.0,0.0,0.0,0.0,0.0,0.0,5.8107,0.0,0.0,0.0,0.0,0.0,0.0,0.0,0.0,0.0,0.0,0.0,0.0,0.0,0.0,0.0,0.0,0.0,0.0,0.0,0.0,0.0,0.0,0.0,0.0,0.0,6.1166,6.2731,6.5912,6.8004,6.8761,6.8811,6.8408,6.754,6.6022,6.4004,0.0,0.0,0.0,0.0,0.0,0.0,0.0,0.0,0.0,0.0,0.0,0.0,0.0,0.0,0.0,0.0,0.0,0.0,0.0,0.0,0.0,0.0,0.0,0.0,0.0,0.0,0.0,0.0,0.0,0.0,0.0,0.0,0.0,0.0,0.0,0.0,0.0,0.0,0.0,0.0,0.0,5.7737,5.7774,5.9198,6.0236,0.0,0.0,5.785,5.785,5.7152,5.5893,5.3654,0.0,0.0,0.0,0.0,0.0,0.0,0.0,0.0,0.0,0.0,0.0,0.0,0.0,0.0,0.0,0.0,0.0,0.0,0.0,0.0,0.0,0.0,0.0,0.0,0.0,5.9339,0.0,0.0,5.9501,0.0,0.0,0.0,0.0,0.0,0.0,0.0,0.0,0.0,0.0,0.0,0.0,0.0,0.0,0.0,0.0,0.0,0.0,0.0,0.0,0.0,0.0,0.0,0.0,6.1961,6.3613,6.6806,6.8825,6.9596,6.9633,6.9265,6.8458,6.7357,6.4897,0.0,0.0,0.0,0.0,0.0,0.0,0.0,0.0,0.0,0.0,0.0,0.0,0.0,0.0,0.0,0.0,0.0,0.0,0.0,0.0,0.0,0.0,0.0,0.0,0.0,0.0,0.0,0.0,4.8746,4.916,5.0445,0.0,0.0,0.0,0.0,0.0,0.0,0.0,0.0,0.0,0.0,5.8883,5.9871,6.0677,0.0,0.0,6.0199,5.9465,5.9465,5.796,5.648,5.5563,5.4205,0.0,0.0,0.0,0.0,0.0,0.0,0.0,0.0,0.0,0.0,0.0,0.0,0.0,0.0,0.0,0.0,0.0,0.0,0.0,0.0,0.0,0.0,0.0,0.0,0.0,0.0,0.0,0.0,0.0,0.0,0.0,0.0,0.0,0.0,0.0,0.0,0.0,0.0,0.0,0.0,0.0,0.0,0.0,0.0,0.0,0.0,0.0,0.0,0.0,0.0,0.0,0.0,6.2805,6.4457,6.7614,6.9669,7.044,7.0477,7.0183,6.9619,6.8385,6.5852,0.0,0.0,0.0,0.0,0.0,0.0,0.0,0.0,0.0,0.0,0.0,0.0,0.0,0.0,0.0,0.0,0.0,0.0,0.0,0.0,0.0,0.0,0.0,0.0,0.0,0.0,0.0,0.0,5.0508,5.0859,5.2197,0.0,0.0,0.0,0.0,0.0,0.0,0.0,0.0,0.0,0.0,5.9895,6.1251,6.1765,6.1961,6.1961,6.1263,6.0676,6.0456,5.8976,5.7655,5.6884,0.0,0.0,0.0,0.0,0.0,0.0,0.0,0.0,0.0,0.0,0.0,0.0,0.0,0.0,0.0,0.0,0.0,0.0,0.0,0.0,0.0,0.0,0.0,0.0,0.0,0.0,0.0,6.2924,0.0,0.0,6.1032,0.0,0.0,0.0,0.0,0.0,0.0,0.0,0.0,0.0,0.0,0.0,0.0,0.0,0.0,0.0,0.0,0.0,0.0,0.0,0.0,0.0,0.0,6.3563,6.5288,6.8421,7.044,7.1233,7.127,7.127,7.1197,6.8972,6.6893,6.5105,0.0,0.0,0.0,0.0,0.0,0.0,0.0,0.0,0.0,0.0,0.0,0.0,0.0,0.0,0.0,0.0,0.0,0.0,0.0,0.0,0.0,0.0,0.0,0.0,0.0,0.0,5.0949,5.1499,5.227,0.0,0.0,0.0,0.0,0.0,0.0,0.0,0.0,0.0,0.0,5.9343,6.0664,6.152,6.2279,6.2793,6.2829,6.2144,6.1337,6.0603,6.0382,5.9538,0.0,0.0,0.0,0.0,0.0,0.0,0.0,0.0,0.0,0.0,0.0,0.0,0.0,0.0,0.0,0.0,0.0,0.0,0.0,0.0,0.0,0.0,0.0,0.0,0.0,0.0,0.0,6.9624,6.7591,0.0,0.0,0.0,0.0,0.0,0.0,0.0,0.0,0.0,0.0,0.0,6.9617,7.095,0.0,0.0,0.0,0.0,0.0,0.0,0.0,0.0,0.0,0.0,0.0,0.0,6.3356,6.6072,6.8752,7.0734,7.2041,7.2114,7.2078,7.2092,7.0793,6.8054,6.3783,0.0,0.0,0.0,0.0,0.0,0.0,0.0,0.0,0.0,0.0,0.0,0.0,0.0,0.0,0.0,0.0,0.0,0.0,0.0,0.0,0.0,0.0,0.0,0.0,0.0,5.27,0.0,0.0,0.0,0.0,0.0,0.0,0.0,0.0,0.0,0.0,0.0,5.9171,6.0236,6.1337,6.2316,6.3148,6.3466,6.3833,0.0,0.0,0.0,0.0,0.0,0.0,0.0,0.0,0.0,0.0,0.0,0.0,0.0,0.0,5.6576,5.3403,5.2416,5.2073,5.2123,0.0,0.0,0.0,0.0,0.0,0.0,0.0,0.0,0.0,0.0,0.0,0.0,0.0,0.0,7.4622,0.0,7.1779,0.0,0.0,0.0,0.0,0.0,0.0,0.0,0.0,7.4425,7.5257,7.432,7.5915,7.5539,0.0,7.2627,7.0385,0.0,0.0,0.0,0.0,0.0,0.0,0.0,0.0,6.4494,6.765,6.9559,7.1174,7.2422,7.2532,7.2532,7.2496,7.1468,6.8628,6.382,6.1655,5.9391,0.0,0.0,0.0,0.0,0.0,0.0,0.0,0.0,0.0,0.0,0.0,0.0,0.0,0.0,0.0,0.0,0.0,0.0,0.0,0.0,0.0,0.0,0.0,5.3214,0.0,0.0,0.0,0.0,0.0,0.0,0.0,0.0,0.0,5.8914,6.0236,6.1667,6.2768,6.3343,6.398,6.4787,0.0,0.0,0.0,0.0,0.0,0.0,0.0,6.2511,6.1398,6.0603,5.9832,5.8988,5.9501,5.9857,5.9294,0.0,0.0,5.593,5.5078,5.4837,5.4569,5.4844,5.4985,5.4421,5.4371,5.428,0.0,0.0,0.0,0.0,0.0,0.0,0.0,0.0,7.9178,7.8872,0.0,7.7263,0.0,0.0,0.0,0.0,0.0,7.5868,0.0,0.0,8.0781,8.1495,7.9388,8.083,8.073,7.9263,7.9764,7.8179,7.4521,6.9171,0.0,0.0,0.0,0.0,0.0,0.0,6.6953,6.9926,7.0881,7.1674,7.2496,7.2532,7.2532,7.2459,7.0991,6.8678,6.5618,6.5288,6.2719,5.7373,5.7703,0.0,0.0,0.0,0.0,0.0,0.0,0.0,0.0,0.0,0.0,0.0,0.0,0.0,0.0,0.0,0.0,0.0,0.0,0.0,0.0,5.3251,0.0,0.0,0.0,0.0,0.0,0.0,0.0,0.0,0.0,0.0,6.1117,6.2095,6.3563,6.5141,0.0,0.0,0.0,0.0,6.5435,6.5508,6.5472,6.5191,6.4396,6.4861,6.4774,6.3123,0.0,0.0,6.097,6.1227,6.1263,5.9673,6.0162,6.026,5.938,5.851,5.7788,5.7079,5.6404,5.5816,5.5754,5.5928,5.5817,9.0913,0.0,0.0,0.0,0.0,8.6144,8.6987,8.874,8.6978,8.5341,8.3801,8.2511,0.0,0.0,0.0,0.0,0.0,0.0,8.061,8.1605,8.3372,8.3999,8.3686,8.4132,8.379,8.2773,8.1811,8.0309,7.8285,7.665,7.2223,6.5266,0.0,0.0,0.0,0.0,6.8605,7.0036,7.0903,7.1711,7.2459,7.2532,7.2532,7.2496,7.1505,7.0,6.7931,6.6769,6.4861,6.2144,6.0529,0.0,0.0,0.0,0.0,0.0,0.0,0.0,0.0,0.0,0.0,0.0,0.0,0.0,0.0,0.0,0.0,0.0,0.0,0.0,5.484,5.4399,5.4987,0.0,0.0,0.0,0.0,0.0,0.0,0.0,0.0,0.0,6.6512,6.6866,6.7136,0.0,0.0,6.776,6.7393,6.765,6.8091,6.8641,0.0,0.0,0.0,6.6856,6.6439,6.4848,6.4774,6.4714,6.4004,6.4077,6.3906,6.2842,6.2879,6.2585,6.119,6.0272,5.9685,5.9391,5.923,5.8968,5.8439,5.7932,5.7239,9.6705,9.2736,9.1355,9.0723,9.0628,9.0436,9.1241,9.2574,9.1173,8.9889,8.8702,8.783,8.5197,8.1421,8.1003,0.0,0.0,0.0,8.503,8.5844,8.672,8.6888,8.6571,8.6849,8.6581,8.5779,8.4785,8.3593,8.226,8.2146,7.867,7.2159,0.0,0.0,6.8865,7.0019,7.1045,7.1793,7.2109,7.2349,7.2496,7.2532,7.2532,7.2496,7.1711,7.0866,6.9876,6.8311,6.6696,6.5131,6.3186,6.1394,0.0,0.0,0.0,0.0,0.0,0.0,0.0,0.0,0.0,0.0,0.0,5.5444,5.4474,0.0,0.0,0.0,5.6008,5.6812,5.7432,5.7629,0.0,0.0,0.0,0.0,0.0,0.0,0.0,6.6536,6.8128,6.9302,6.9816,7.0132,7.0036,6.9229,6.9265,6.9302,6.9155,0.0,6.9559,7.0036,7.011,6.9756,6.8802,6.8655,6.8201,6.6953,6.6439,6.6109,6.5815,6.5765,6.5485,6.4787,6.4567,6.4163,6.2854,6.2181,6.1484,6.0591,6.0467,6.0343,5.9876,5.9316,5.8493,10.1632,9.9949,9.6748,9.4454,9.292,9.3639,9.3907,9.3754,9.3064,9.3054,9.3543,9.2814,9.151,8.9707,8.8117,0.0,8.8557,8.9289,8.9582,8.9669,9.0461,8.9926,8.8408,8.9085,8.896,8.8092,8.812,8.7464,8.615,8.5863,8.4035,8.0802,7.7789,7.5683,7.4428,7.4026,7.4171,7.4741,7.4159,7.3464,7.2604,7.2567,7.2545,7.2491,7.1779,7.1337,7.119,6.9807,6.8299,6.678,6.547,6.3375,6.0497,0.0,0.0,0.0,0.0,0.0,0.0,0.0,0.0,0.0,0.0,0.0,0.0,0.0,0.0,5.82,5.946,0.0,6.0855,6.2169,0.0,0.0,0.0,6.4768,6.5746,6.7056,6.8218,6.9009,0.0,0.0,7.1417,0.0,7.2224,7.149,7.077,7.0513,7.1197,7.0697,7.0293,7.0367,7.033,7.0257,7.0146,7.005,6.9633,6.8825,6.8274,6.7504,6.6769,6.6586,6.6292,6.5545,6.5398,6.5118,6.4347,6.409,6.3503,6.1337,6.0774,6.0591,6.0408,6.0139,5.9457,10.3854,10.2913,10.2086,10.0384,9.8269,9.8423,9.8154,9.7481,9.7211,9.6491,9.5444,9.5145,9.3734,9.1548,9.1145,9.1059,9.1279,9.2055,9.2418,9.2418,9.2648,9.1843,9.0272,9.0308,8.9618,8.823,8.8122,8.7916,8.7593,8.7534,8.6719,8.5272,8.4435,8.1664,7.713,7.8003,7.8066,7.7017,7.5885,7.46,7.3175,7.3101,7.2951,7.267,7.2483,7.1785,7.0602,7.0154,6.953,6.8496,6.64,6.5025,6.453,6.1159,0.0,0.0,0.0,0.0,0.0,0.0,0.0,0.0,0.0,5.9887,5.6494,0.0,6.0548,0.0,6.2343,6.3783,6.5084,6.4972,0.0,0.0,6.7699,6.7979,7.0163,7.0187,7.0254,7.0666,7.16,7.2239,7.2239,7.2386,7.2422,7.2239,7.2055,7.1784,7.138,7.1711,7.1945,7.1908,7.1872,7.1725,7.1087,7.0477,6.9853,6.9032,6.8738,6.8348,6.754,6.7407,6.715,6.6402,6.6219,6.5888,6.5141,6.5007,6.4861,6.4187,6.3123,6.1898,6.0869,6.0567,6.0034,10.6444,10.5059,10.5443,10.4328,10.226,10.1096,10.0183,9.9365,9.8885,9.8164,9.7279,9.6808,9.5665,9.4052,9.3976,9.3726,9.3409,9.4166,9.43,9.3993,9.3993,9.3303,9.2037,9.194,9.1201,8.9926,8.9865,8.9804,8.9676,8.8988,8.8606,8.8481,8.7755,8.5727,8.2508,8.1917,8.1071,7.9799,7.7729,7.5894,7.4238,7.4201,7.3713,7.2751,7.2323,7.1734,7.086,7.0168,6.9568,6.9031,6.7228,6.5974,6.5412,6.3241,6.1848,0.0,0.0,0.0,0.0,0.0,0.0,0.0,0.0,0.0,0.0,0.0,6.3757,6.3944,6.6312,6.8246,6.9294,6.9987,7.1142,7.294,7.2323,7.2119,7.3004,7.2729,7.2286,7.1906,7.2239,7.2532,7.2532,7.2532,7.2532,7.2532,7.2532,7.2349,7.1967,7.2239,7.2532,7.2532,7.2532,7.2386,7.1857,7.116,7.0499,7.0059,6.9655,6.9155,6.8385,6.8238,6.7981,6.721,6.7026,6.6769,6.6035,6.5839,6.5742,6.5251,6.4554,6.3494,6.2172,6.1224,6.0181,10.9098,10.7126,10.7636,10.6905,10.5251,10.2943,10.1366,10.0375,9.9596,9.9173,9.8913,9.7942,9.7096,9.6432,9.6232,9.5694,9.5032,9.5683,9.5557,9.4905,9.4905,9.4454,9.361,9.3601,9.3043,9.2072,9.2051,9.1886,9.1629,9.0329,9.0051,9.068,8.9429,8.8703,8.8481,8.5796,8.3724,8.2276,7.9485,7.7243,7.5591,7.5565,7.4749,7.3153,7.2272,7.1734,7.1513,7.0191,6.9401,6.9315,6.8224,6.6942,6.5501,6.5509,6.4802,0.0,6.3508,0.0,0.0,0.0,0.0,0.0,0.0,0.0,0.0,6.7221,6.7341,6.7813,7.0941,7.3119,7.3587,7.5479,7.6749,7.6835,7.6749,7.6211,7.5034,7.4845,7.4301,7.2916,7.2831,7.2853,7.273,7.2716,7.2812,7.2753,7.2716,7.2642,7.2496,7.2496,7.2532,7.2532,7.2532,7.2496,7.2386,7.1894,7.1417,7.1233,7.0683,7.0,6.9192,6.9045,6.8825,6.8214,6.8068,6.7811,6.71,6.6916,6.6586,6.6059,6.559,6.4792,6.3493,6.1982,6.0494,11.0983,11.0395,10.9175,10.8098,10.7098,10.5944,10.4174,10.2135,10.1981,10.1135,9.976,9.8211,9.7403,9.7211,9.6577,9.6145,9.6029,9.6164,9.6155,9.6001,9.6001,9.554,9.4694,9.458,9.3726,9.2315,9.22,9.1796,9.1087,9.147,9.166,9.176,9.2105,9.191,9.1052,0.0,0.0,0.0,8.0406,7.8598,7.6987,7.6911,7.6321,7.5008,7.4141,0.0,7.1741,7.136,7.1216,7.1169,7.0315,0.0,0.0,0.0,0.0,0.0,0.0,0.0,0.0,0.0,0.0,0.0,7.005,6.9222,6.7657,7.0627,7.2981,7.3814,7.571,7.7236,7.7989,7.7818,7.7999,7.8656,7.8151,7.7452,7.6847,7.677,7.6077,7.4375,7.4674,7.4682,7.3684,7.4037,7.4147,7.3597,7.3487,7.3193,7.2606,7.2532,7.2532,7.2532,7.2532,7.2532,7.2532,7.2349,7.1982,7.149,7.1197,7.077,7.0073,6.9889,6.9889,6.9596,6.9633,6.9573,6.9376,6.8898,6.8311,6.8238,6.6761,6.504,6.3633,6.2666,6.1747,11.2637,0.0,11.056,10.9444,0.0,10.7405,10.6049,10.4405,10.3135,10.1904,10.0635,9.9327,9.8557,9.8096,9.725,9.6673,9.6288,9.6288,9.6288,9.6288,9.6288,9.6057,9.5634,9.5549,9.4849,9.3534,9.3093,9.2651,9.2142,9.1759,9.1921,9.2676,9.2283,9.2072,9.1944,9.0707,8.803,8.3919,8.2243,8.0786,7.9558,7.8682,7.7599,7.615,0.0,0.0,0.0,0.0,0.0,0.0,0.0,0.0,0.0,0.0,0.0,6.9769,6.9387,6.9246,6.9484,7.0069,7.104,7.2532,7.358,7.3577,7.2093,7.4925,7.6723,7.6761,7.8252,7.9245,7.9292,7.9245,7.9436,7.9827,7.9474,7.8904,7.808,7.7872,7.7134,7.5492,7.5442,7.5338,7.4419,7.4625,7.4735,7.4331,7.3927,7.356,7.3156,7.2753,7.2532,7.2532,7.2532,7.2532,7.2532,7.2496,7.2422,7.1967,7.1894,7.1578,7.0844,7.0697,7.0587,7.022,7.011,7.011,7.0073,6.9743,6.9376,6.8944,6.7982,6.6713,6.5268,6.395,6.2856,11.406,11.2165,11.2022,11.106,10.9521,10.8713,10.7636,10.6241,0.0,0.0,0.0,10.0673,9.9837,9.8981,9.798,9.7134,9.6519,9.6365,9.6288,9.6288,9.6288,9.6365,9.6519,9.6365,9.5857,9.5022,9.4061,9.3505,9.3188,9.1846,9.1874,9.2967,9.197,9.1625,9.2027,9.0416,8.8441,8.6229,8.4375,8.299,8.1996,8.0515,7.8987,7.7411,7.6465,7.5165,7.3522,7.3446,7.3025,7.2185,7.2147,7.2147,7.2138,7.1994,7.2261,7.2941,7.3132,7.3208,7.3246,7.4125,7.4775,7.508,7.6379,7.7182,7.7144,7.8452,7.914,7.871,7.9933,8.0553,8.021,8.063,8.1003,8.1156,8.0926,8.0268,7.9274,7.8919,7.8203,7.6593,7.6391,7.613,7.5545,7.5514,7.5412,7.5213,7.4713,7.4037,7.3817,7.3083,7.2532,7.2532,7.2532,7.2532,7.2532,7.2532,7.2532,7.2459,7.2459,7.2275,7.1711,7.149,7.1233,7.077,7.0513,7.0587,7.055,7.044,7.011,6.9435,6.9178,6.8761,6.7491,6.5865,6.4524,11.5061,11.4714,11.3945,11.3099,11.2099,11.1318,10.9241,10.628,10.4482,10.3251,10.2366,10.152,10.0712,9.9837,9.8211,9.7442,9.7288,9.6634,9.6288,0.0,9.6288,9.6673,9.7288,9.6634,9.624,9.5962,9.4462,9.3299,9.2674,9.2396,9.236,9.2516,9.2958,9.2805,9.2037,9.0446,8.9391,8.8901,8.644,8.4403,8.2884,8.192,8.0964,7.9971,7.8443,7.6876,7.5204,7.5165,7.4745,7.3887,7.3849,7.3858,7.3858,7.3208,7.2864,7.3017,7.3667,7.4049,7.4078,7.5462,7.6991,7.8414,7.8796,7.8949,7.8949,7.914,7.9866,8.1079,8.1499,8.2187,8.3333,8.2923,8.2846,8.341,8.2416,8.1509,8.1241,8.0554,7.9616,7.8306,7.8737,7.8537,7.7467,7.7399,7.7246,7.6681,7.5926,7.5469,7.461,7.3435,7.2606,7.2532,7.2532,7.2532,7.2679,7.2532,7.2569,7.2532,7.2532,7.2459,7.2275,7.2224,7.2165,7.2129,7.1982,7.2055,7.2055,7.1564,7.1123,7.0793,7.033,6.9797,6.9378,6.8539,6.7328,11.5687,11.5291,11.4868,11.4214,11.3291,11.1522,10.9906,10.829,10.6174,10.4251,10.2635,10.2174,10.1289,10.0067,9.925,9.8634,9.8173,9.7827,9.7673,9.7634,9.7634,9.7827,9.8134,9.7827,9.7403,9.6865,9.5711,9.4672,9.3835,9.2941,9.2692,9.2993,9.3022,9.2515,9.15,9.0761,9.01,8.9506,8.6949,8.5456,8.5053,8.3333,8.2073,8.1194,8.0009,7.8557,7.6914,7.6838,7.6685,7.6303,7.5806,7.5539,7.5539,7.5195,7.5004,7.5042,7.5806,7.6256,7.6256,7.6953,7.7946,7.9178,7.9302,7.9713,8.0621,8.105,8.1423,8.1843,8.2569,8.3219,8.3572,8.3228,8.3152,8.3524,8.2493,8.1996,8.2225,8.127,8.0354,7.9902,7.9757,7.9331,7.8438,7.8453,7.8304,7.7612,7.6788,7.5814,7.505,7.4316,7.3817,7.3802,7.3802,7.3817,7.378,7.3413,7.3193,7.3156,7.2753,7.2569,7.2532,7.2532,7.2532,7.2532,7.2532,7.2532,7.2532,7.2224,7.1821,7.1307,7.105,7.066,7.022,6.9835,6.8825,11.633,11.561,11.5572,11.5061,11.4099,11.1983,11.0829,11.0252,10.7982,10.5636,10.3597,10.3097,10.2058,10.0721,10.0298,9.9721,9.9144,9.8904,9.8788,9.8788,9.8788,9.8904,9.9067,9.8904,9.8442,9.7711,9.6788,9.5865,9.4912,9.3489,9.2979,9.3335,9.2595,9.1828,9.1055,9.1055,9.0664,8.9841,8.7734,8.6796,8.7071,8.4844,8.3295,8.2684,8.1652,8.039,7.8976,7.8917,7.8841,7.8594,7.7791,7.7323,7.7267,7.7105,7.7067,7.7296,7.7717,7.8099,7.829,7.829,7.8672,7.9484,7.956,8.021,8.1614,8.2531,8.2846,8.2569,8.3524,8.4069,8.3763,8.3649,8.3563,8.3524,8.2837,8.2684,8.3037,8.1805,8.0974,8.1271,8.0704,8.0033,7.9645,7.9446,7.9041,7.8112,7.7083,7.6145,7.5564,7.5454,7.5417,7.5344,7.516,7.483,7.4867,7.4404,7.4037,7.3964,7.3303,7.2936,7.2826,7.2679,7.2532,7.2532,7.2532,7.2532,7.2532,7.2496,7.2239,7.1747,7.16,7.1358,7.0624,7.0473,6.981,11.7176,11.6457,11.633,11.5918,11.5061,11.3984,11.2676,11.1203,10.9444,10.7713,10.5944,10.4443,10.3251,10.2251,10.0798,10.0106,9.9913,9.9183,9.8827,9.8865,9.8788,9.9211,9.9875,9.9211,9.875,9.8481,9.7134,9.6019,9.5143,9.4104,9.3249,9.2595,9.1748,9.1355,9.1192,9.1192,9.1071,9.0865,8.9934,8.9044,8.8184,8.6403,8.5428,8.5313,8.3782,8.2519,8.1571,8.1651,8.1307,8.0461,7.961,7.9115,7.8996,7.8337,7.8252,7.8987,7.8443,7.8328,7.9101,7.9178,7.9598,8.0277,8.043,8.0812,8.1805,8.2569,8.3343,8.3868,8.4212,8.4556,8.5158,8.5206,8.5091,8.5015,8.4365,8.4098,8.3945,8.2722,8.1977,8.2731,8.2052,8.1566,8.139,8.1024,8.0108,7.8644,7.7901,7.7365,7.7142,7.6995,7.6959,7.6775,7.5968,7.5124,7.505,7.4867,7.4793,7.4735,7.4111,7.367,7.3487,7.3083,7.2532,7.2753,7.2606,7.2642,7.2532,7.2532,7.2496,7.2312,7.2202,7.2129,7.1417,7.1225,7.0519,11.7292,11.6484,11.6484,11.6034,11.5099,11.333,11.2406,11.1972,10.9329,10.8059,10.7675,10.6097,10.4366,10.2597,10.1866,10.1327,10.0789,10.0442,10.0289,10.0289,10.0289,10.0481,10.0712,10.0481,10.0058,9.949,9.8327,9.7326,9.6374,9.5143,9.4027,9.321,9.2364,9.1979,9.1902,9.1479,9.1145,9.1109,9.0802,9.0438,8.9894,8.8268,8.7073,8.6527,8.5837,8.4841,8.3662,8.3544,8.3161,8.2273,8.143,8.0935,8.0837,8.0483,8.0456,8.0783,8.0926,8.1117,8.1471,8.1509,8.1623,8.1958,8.1967,8.235,8.3181,8.3601,8.4098,8.4824,8.5015,8.5167,8.5473,8.5511,8.5511,8.5397,8.4785,8.448,8.4938,8.3524,8.2837,8.3572,8.3037,8.2493,8.2445,8.2057,8.1289,8.0213,7.9567,7.9091,7.8823,7.8405,7.8112,7.8002,7.7451,7.69,7.6408,7.5858,7.5689,7.5454,7.494,7.4441,7.4331,7.4221,7.3817,7.3303,7.3156,7.2936,7.2518,7.2532,7.2532,7.2532,7.2496,7.2386,7.2041,7.2004,7.1496,11.7638,11.6869,11.6611,11.6187,11.5445,11.3445,11.2753,11.2637,10.9713,10.8598,10.8675,10.7136,10.5251,10.3405,10.2828,10.2251,10.1712,10.1394,10.1433,10.1587,10.1433,10.1394,10.1625,10.1394,10.0904,10.0106,9.9452,9.8673,9.775,9.6172,9.5018,9.4326,9.3364,9.271,9.2441,9.1825,9.1441,9.1201,9.1201,9.1201,9.0991,8.9894,8.8737,8.7903,8.7587,8.6897,8.5746,8.5696,8.5427,8.4748,8.399,8.3447,8.331,8.3119,8.2843,8.2626,8.3467,8.384,8.3419,8.3572,8.3687,8.3677,8.3496,8.3725,8.4365,8.4441,8.4671,8.5358,8.5511,8.5473,8.5511,8.5511,8.5511,8.5473,8.4938,8.49,8.531,8.4174,8.3677,8.4403,8.3868,8.3381,8.3247,8.2676,8.1911,8.1556,8.1099,8.0712,8.026,7.9637,7.9154,7.9109,7.9038,7.8405,7.7546,7.7142,7.6717,7.6276,7.5799,7.5234,7.516,7.5087,7.483,7.4037,7.3891,7.3575,7.3083,7.2863,7.2569,7.2532,7.2532,7.2532,7.2422,7.2473,7.231,11.8523,11.7638,11.6841,11.6457,11.633,11.5368,11.4561,11.3676,11.1175,10.9675,10.879,10.729,10.5905,10.4866,10.3405,10.2597,10.2404,10.1673,10.1702,10.2327,10.1702,10.175,10.2443,10.1702,10.0943,10.0375,10.0144,9.9567,9.8634,9.7096,9.6249,9.6095,9.4518,9.3326,9.271,9.2556,9.2018,9.1479,9.1317,9.124,9.124,9.1115,9.0533,8.9769,8.8915,8.8416,8.8271,8.8427,8.835,8.8224,8.734,8.6883,8.6745,8.6084,8.5233,8.4604,8.5723,8.5893,8.4671,8.5015,8.5397,8.5282,8.4747,8.4594,8.5282,8.4824,8.4747,8.5425,8.5588,8.5588,8.5511,8.5511,8.5511,8.5511,8.5473,8.5425,8.5473,8.4862,8.4671,8.5091,8.4709,8.4327,8.4241,8.3046,8.2515,8.2248,8.1793,8.1455,8.1398,8.0898,8.0585,8.0413,8.0052,7.9192,7.7818,7.7892,7.7965,7.7436,7.6754,7.6093,7.5799,7.5506,7.5175,7.4771,7.4404,7.4001,7.3648,7.3244,7.2863,7.2716,7.2716,7.2679,7.2569,7.261,7.252,11.8254,11.6946,11.6649,11.6226,11.5638,11.483,11.4291,11.3868,11.2445,11.1021,10.979,10.9098,10.8059,10.6636,10.4405,10.3135,10.2558,10.1702,10.1789,10.2481,10.2251,10.2597,10.3328,10.3097,10.252,10.1712,10.1135,10.0135,9.8865,9.8173,9.7596,9.698,9.5942,9.4941,9.4143,9.3527,9.3095,9.2787,9.2326,9.2249,9.2595,9.1748,9.15,9.2204,9.0926,8.9965,8.9427,8.9423,8.9192,8.8666,8.8359,8.8123,8.7996,8.7702,8.7321,8.6949,8.7398,8.7416,8.6859,8.7001,8.7154,8.7078,8.639,8.5998,8.6113,8.5588,8.5206,8.5501,8.6074,8.6113,8.5616,8.5511,8.5511,8.5511,8.5511,8.555,8.5588,8.5692,8.5817,8.555,8.5206,8.5282,8.5481,8.495,8.4219,8.3858,8.3625,8.3361,8.2974,8.2401,8.1995,8.1839,8.1437,8.0704,7.9668,7.9299,7.9119,7.8442,7.7818,7.7378,7.7011,7.6738,7.6408,7.6019,7.5432,7.4735,7.4478,7.4147,7.367,7.3303,7.3266,7.2899,7.2606,7.2655,7.2718,11.8638,11.733,11.6726,11.6187,11.5638,11.5061,11.4676,11.433,11.3483,11.2175,11.0752,11.006,10.8983,10.7559,10.5597,10.4405,10.3674,10.2404,10.2481,10.3674,10.3289,10.3482,10.4135,10.402,10.3597,10.2943,10.2135,10.0943,9.9712,9.9327,9.8904,9.8327,9.7519,9.6519,9.5518,9.4826,9.4326,9.3758,9.3133,9.3172,9.348,9.2633,9.2518,9.3403,9.2864,9.2018,9.1171,9.1124,9.0748,9.0064,8.9911,8.9761,8.9421,8.9301,8.9046,8.8721,8.8863,8.8842,8.8588,8.8721,8.8912,8.8874,8.8148,8.7603,8.7526,8.6571,8.5998,8.6074,8.638,8.6495,8.6189,8.6199,8.6123,8.5702,8.5731,8.5883,8.597,8.6696,8.6849,8.6505,8.6123,8.6227,8.6571,8.596,8.5512,8.535,8.5176,8.4856,8.4762,8.4267,8.3615,8.3414,8.3137,8.2561,8.1811,8.1377,8.0287,7.9516,7.8935,7.8552,7.8185,7.7913,7.7619,7.7194,7.6607,7.5836,7.5344,7.505,7.4647,7.4221,7.3707,7.334,7.3038,7.2737,7.2873,11.9831,11.8792,11.7253,11.6572,11.6495,11.6341,11.5957,11.5215,11.4445,11.3176,11.1434,10.9906,10.8906,10.7675,10.6626,10.6251,10.5905,10.3828,10.3943,10.5779,10.4636,10.4405,10.5059,10.4482,10.402,10.3712,10.2943,10.2097,10.1087,10.0442,10.0029,9.9837,9.9096,9.7904,9.6365,9.6211,9.5441,9.4326,9.3903,9.3796,9.371,9.3595,9.3672,9.4027,9.4527,9.4527,9.3796,9.3642,9.3133,9.2518,9.2364,9.2056,9.1222,9.0997,9.0559,8.9851,9.0253,9.0143,8.9554,8.9992,9.0336,9.0221,8.9676,8.9016,8.8749,8.7679,8.68,8.6839,8.6953,8.6915,8.6991,8.7498,8.7384,8.597,8.638,8.68,8.6953,8.7575,8.811,8.7957,8.7384,8.6839,8.6648,8.6314,8.6072,8.6281,8.6108,8.5935,8.6392,8.6103,8.5629,8.5096,8.4845,8.4551,8.3975,8.335,8.1867,8.0628,8.0058,7.958,7.9213,7.8919,7.8809,7.8442,7.7797,7.7047,7.668,7.635,7.5747,7.5249,7.4588,7.4001,7.3736,7.3508,7.3241,12.0369,11.9023,11.7869,11.7407,11.7292,11.6753,11.6341,11.6099,11.5792,11.4445,11.2522,11.1752,11.0406,10.8482,10.7098,10.7059,10.7867,10.5597,10.5097,10.6164,10.5828,10.5674,10.5867,10.5713,10.502,10.3905,10.302,10.2174,10.1394,10.1058,10.0673,10.0144,9.9837,9.9096,9.8019,9.7442,9.6749,9.6288,9.5181,9.4864,9.5288,9.4287,9.4518,9.6095,9.6057,9.6211,9.7057,9.5528,9.4527,9.422,9.3642,9.2941,9.2278,9.2068,9.1544,9.0722,9.0761,9.081,9.0521,9.0508,9.0658,9.0495,8.9832,8.937,8.9218,8.8339,8.7727,8.7766,8.8148,8.8339,8.7957,8.8415,8.8377,8.7384,8.7536,8.7689,8.7804,8.7995,8.8644,8.9447,8.8568,8.7804,8.7651,8.7307,8.7078,8.6953,8.703,8.7384,8.7544,8.7527,8.7426,8.7078,8.6863,8.6416,8.5788,8.5195,8.4203,8.2726,8.1836,8.084,8.0357,7.9816,7.9743,7.9412,7.8788,7.8274,7.7928,7.7524,7.69,7.6423,7.5909,7.5322,7.4713,7.4331,7.3999,12.0793,11.9408,11.76,11.6869,11.683,11.6253,11.6072,11.6099,11.638,11.5253,11.3445,11.2829,11.1483,10.9483,10.8252,10.8406,10.9175,10.7944,10.7444,10.7213,10.6587,10.6395,10.6395,10.6395,10.5751,10.4443,10.3482,10.2635,10.1779,10.1443,10.1058,10.0635,10.0519,10.0135,9.9327,9.875,9.825,9.748,9.6442,9.6057,9.6095,9.5518,9.5865,9.725,9.7634,9.825,9.9106,9.7682,9.6451,9.548,9.4364,9.348,9.2979,9.2941,9.2627,9.2092,9.1671,9.148,9.1337,9.0961,9.0709,9.0584,9.012,8.9829,8.9627,8.9027,8.8568,8.8644,8.895,8.9103,8.8759,8.9294,8.9475,8.9103,8.8721,8.8721,8.8912,8.9027,8.9409,9.002,8.937,8.8721,8.853,8.8186,8.8071,8.7804,8.7918,8.8301,8.8415,8.853,8.8453,8.8356,8.8069,8.7702,8.7456,8.6962,8.643,8.5129,8.3777,8.2586,8.1671,8.0746,8.0314,7.989,7.9302,7.8862,7.8516,7.8369,7.7965,7.7598,7.7121,7.6754,7.6145,7.5146,7.4794,12.1177,11.9908,11.6907,11.5753,11.5676,11.5561,11.5572,11.5561,11.6187,11.5599,11.4137,11.3253,11.1906,11.056,10.9906,10.9829,11.0186,11.0406,10.9752,10.8559,10.7444,10.6713,10.6433,10.6395,10.5867,10.4982,10.4174,10.3443,10.2635,10.175,10.1356,10.1548,10.1327,10.1019,10.0366,10.0183,9.9221,9.8057,9.7634,9.7173,9.6673,9.7134,9.7596,9.7827,9.9096,9.9913,10.0067,9.9721,9.8682,9.6634,9.5172,9.4364,9.3941,9.3864,9.3857,9.3447,9.2765,9.2421,9.2095,9.146,9.0941,9.0951,9.0676,9.0604,9.0406,8.9811,8.9381,8.9391,8.9447,8.9447,8.9551,9.0009,9.0392,9.0468,8.978,8.9752,9.044,9.0468,9.0468,9.0392,8.9857,8.9322,8.9256,8.8683,8.8759,8.8835,8.8721,8.8912,8.9179,8.9294,8.8988,8.8947,8.9047,8.8977,8.8717,8.8542,8.7992,8.7106,8.5794,8.4559,8.3202,8.2186,8.1599,8.1028,8.0257,7.9727,7.9323,7.9286,7.8883,7.8259,7.8002,7.8002,7.732,7.6175,7.5831,12.2216,12.0177,11.8715,11.7715,11.71,11.6484,11.6149,11.6187,11.638,11.5918,11.4868,11.4022,11.2676,11.1175,11.0483,10.9878,10.9637,10.9598,10.9444,10.8944,10.8521,10.7482,10.6587,10.6395,10.5982,10.5136,10.4366,10.3789,10.3443,10.2135,10.201,10.3135,10.1894,10.1548,10.175,10.0712,9.9952,9.9375,9.875,9.8365,9.8173,9.8288,9.8788,9.9404,9.9875,10.0452,10.0827,10.0404,9.9567,9.8327,9.775,9.6826,9.5788,9.5634,9.5154,9.4097,9.3597,9.3357,9.3148,9.2354,9.1874,9.1798,9.1217,9.0694,9.0808,9.0485,9.0301,9.0322,9.0301,9.0249,9.0287,9.0468,9.0621,9.0583,9.0506,9.043,9.0583,9.0621,9.0621,9.0544,9.0353,8.9971,8.96,8.9638,8.9676,8.9485,8.96,8.9829,9.0009,9.0086,8.9829,9.0058,9.0141,9.0114,9.0016,8.9876,8.9523,8.8847,8.7781,8.6696,8.5349,8.4099,8.3778,8.3508,8.226,8.1525,8.0938,8.0571,7.9837,7.9176,7.8479,7.8206,7.7776,7.6976,7.6955,12.1447,11.9638,11.8138,11.6984,11.6253,11.6061,11.5803,11.5638,11.6215,11.6072,11.5253,11.4407,11.3253,11.1972,11.1137,11.0521,11.0021,10.9983,10.9829,10.9367,10.9021,10.8136,10.7136,10.6626,10.6136,10.5636,10.4789,10.4443,10.4184,10.302,10.3058,10.3443,10.252,10.2164,10.2404,10.1366,10.0404,10.0067,9.9567,9.9221,9.8875,9.9183,9.9558,10.0106,10.0414,10.0981,10.1635,10.1404,10.0596,9.9558,9.8981,9.8481,9.798,9.7519,9.6903,9.5826,9.5249,9.4826,9.4529,9.3572,9.2824,9.2718,9.2112,9.1928,9.1863,9.1564,9.1304,9.1344,9.0987,9.0745,9.0694,9.0882,9.1434,9.2073,9.1854,9.151,9.1204,9.1117,9.1117,9.1052,9.0774,9.0468,8.9895,9.0353,9.0277,9.0096,9.0239,9.0392,9.0544,9.0621,9.0621,9.0621,9.0697,9.0583,9.0468,9.0349,9.0252,8.9696,8.9177,8.8218,8.6961,8.5654,8.515,8.4721,8.3962,8.3194,8.2414,8.1753,8.1232,8.0424,7.9307,7.8772,7.8657,7.7822,7.7889,11.9985,11.8908,11.6638,11.5099,11.4522,11.5061,11.5149,11.4599,11.5869,11.6149,11.5418,11.4522,11.3714,11.2791,11.1972,11.156,11.1395,11.1242,11.0906,11.0214,10.9444,10.8521,10.8098,10.7098,10.6549,10.6174,10.5482,10.5213,10.4905,10.4251,10.402,10.4059,10.3328,10.2866,10.2943,10.2135,10.125,10.0914,10.0875,10.0529,10.0183,10.0529,10.0875,10.0991,10.1443,10.202,10.2558,10.2597,10.2058,10.0606,9.9606,9.9558,9.9904,9.9375,9.8913,9.8452,9.7326,9.6557,9.6269,9.4964,9.3918,9.3908,9.3601,9.3437,9.314,9.2612,9.2276,9.2315,9.1615,9.1384,9.1314,9.1719,9.2546,9.3415,9.3404,9.3,9.2198,9.193,9.1892,9.1816,9.1166,9.0926,9.0735,9.0735,9.0746,9.0746,9.0735,9.0544,9.0746,9.0899,9.0784,9.0621,9.0735,9.0926,9.0812,9.0697,9.061,9.0387,9.0001,8.9206,8.8029,8.6906,8.6153,8.5499,8.4858,8.4183,8.3434,8.2854,8.2267,8.1305,7.9947,8.0204,8.0424,7.9019,7.8477,12.11,11.9061,11.8484,11.7023,11.533,11.588,11.5803,11.5149,11.6072,11.6369,11.6061,11.5368,11.4484,11.3637,11.2742,11.2126,11.1549,11.1511,11.1368,11.1088,10.956,10.9329,10.9136,10.8136,10.7098,10.6444,10.552,10.5482,10.5597,10.4866,10.4597,10.5482,10.4366,10.3943,10.4251,10.352,10.3289,10.3058,10.2981,10.2751,10.2558,10.2674,10.2866,10.2953,10.3174,10.3366,10.3558,10.3635,10.3443,10.2828,10.1673,10.0789,10.0827,10.0298,9.9913,9.9606,9.8865,9.8211,9.7933,9.6674,9.5598,9.5569,9.458,9.3448,9.3628,9.3467,9.3246,9.3227,9.3006,9.2727,9.288,9.3468,9.3903,9.4101,9.4545,9.4463,9.3268,9.2847,9.258,9.2121,9.2198,9.2312,9.1625,9.1548,9.151,9.1472,9.1128,9.0697,9.0899,9.1243,9.1204,9.109,9.1548,9.1767,9.1423,9.1385,9.1395,9.1308,9.0955,9.0441,8.928,8.823,8.7526,8.6696,8.5887,8.52,8.4536,8.3318,8.2569,8.1585,8.0697,8.064,8.0414,7.9491,7.9274,12.0908,11.9638,11.9254,11.81,11.6715,11.6907,11.6638,11.6072,11.6303,11.6484,11.6341,11.5649,11.483,11.3945,11.3099,11.2252,11.1665,11.1511,11.1511,11.1203,11.0137,10.979,10.9829,10.8944,10.7829,10.6982,10.6136,10.6059,10.601,10.5674,10.5559,10.6203,10.5136,10.4674,10.4905,10.4366,10.3866,10.3789,10.3905,10.3905,10.3905,10.3905,10.4174,10.4366,10.4482,10.4597,10.5059,10.4636,10.4289,10.3674,10.2674,10.1904,10.1904,10.1481,10.1096,10.0596,9.9875,9.9452,9.901,9.825,9.7385,9.7432,9.6424,9.5944,9.5443,9.507,9.4551,9.4234,9.3937,9.3736,9.4561,9.4855,9.5041,9.5734,9.5948,9.5801,9.5025,9.4256,9.3382,9.2733,9.2771,9.2771,9.2542,9.2427,9.2389,9.2389,9.1739,9.1357,9.1778,9.2045,9.1969,9.2045,9.258,9.2695,9.2236,9.2121,9.2274,9.2236,9.2117,9.1632,9.0824,8.9865,8.8947,8.8025,8.7107,8.64,8.5617,8.4314,8.3039,8.2111,8.1422,8.094,8.0525,8.0171,8.0254,12.0408,12.0254,11.9562,11.8715,11.7907,11.7907,11.7407,11.6561,11.6649,11.6676,11.6418,11.5753,11.5099,11.4214,11.356,11.2676,11.1895,11.1472,11.1472,11.1021,11.0175,10.9983,10.979,10.8867,10.8136,10.7752,10.7213,10.6895,10.651,10.6626,10.6751,10.6587,10.6174,10.5905,10.5482,10.4943,10.4674,10.4597,10.4559,10.452,10.4559,10.4636,10.5136,10.5751,10.5405,10.5751,10.6059,10.5559,10.4713,10.3953,10.3212,10.2789,10.2597,10.2404,10.2251,10.1443,10.0712,10.0327,10.0144,9.9481,9.8904,9.899,9.8711,9.8365,9.7625,9.7009,9.6462,9.5817,9.5414,9.5347,9.6319,9.6489,9.704,9.7657,9.7548,9.7221,9.6816,9.567,9.4643,9.3568,9.3704,9.3857,9.3519,9.3306,9.3306,9.3191,9.2542,9.2209,9.2618,9.2886,9.2847,9.2962,9.3497,9.365,9.3268,9.2656,9.2809,9.2935,9.2973,9.2618,9.2121,9.1489,9.0482,8.9306,8.8381,8.7555,8.6699,8.5624,8.4391,8.3092,8.2412,8.2163,8.1652,8.1057,8.1331,12.0985,12.0292,12.0139,11.9215,11.8061,11.8561,11.7984,11.6803,11.7253,11.7138,11.6534,11.6341,11.5715,11.5099,11.4945,11.3945,11.2411,11.1631,11.1081,11.0476,10.9658,10.9406,10.9906,10.8406,10.779,10.8444,10.8444,10.7867,10.7021,10.7675,10.7713,10.7636,10.7752,10.7675,10.7175,10.7021,10.6251,10.5713,10.5664,10.5713,10.5828,10.629,10.7021,10.7559,10.6674,10.6636,10.6905,10.5982,10.4751,10.3992,10.3751,10.3289,10.2751,10.2097,10.202,10.2135,10.1673,10.1289,10.1135,10.0491,9.999,9.9721,9.9529,9.9067,9.8711,9.8481,9.8173,9.7942,9.7759,9.7933,9.8269,9.8134,9.819,9.8475,9.8385,9.795,9.7337,9.6807,9.6027,9.4941,9.5034,9.5107,9.4779,9.4621,9.4802,9.4649,9.4037,9.3617,9.3682,9.3824,9.3813,9.4043,9.4376,9.4414,9.4299,9.3573,9.3229,9.3404,9.3442,9.3344,9.3,9.2886,9.2095,9.0749,8.9401,8.8305,8.7473,8.6769,8.5755,8.4514,8.3937,8.349,8.3251,8.2997,8.2809,12.1381,12.0946,12.0485,12.01,11.9715,11.9254,11.8638,11.783,11.7369,11.6907,11.6495,11.6072,11.5687,11.5253,11.4753,11.3514,11.1962,11.1095,11.0657,11.014,10.9106,10.9329,11.0406,10.8598,10.8675,10.9406,10.9867,10.8752,10.6751,10.7598,10.8136,10.7905,10.8136,10.8059,10.7636,10.7098,10.6944,10.6472,10.6433,10.6433,10.6433,10.6944,10.7636,10.8175,10.7521,10.7175,10.779,10.6713,10.5674,10.5213,10.4789,10.4097,10.3405,10.2981,10.2828,10.3135,10.2828,10.2597,10.2597,10.226,10.2145,10.2058,10.1558,10.1212,10.0789,10.0404,9.9712,9.9058,9.8836,9.9029,9.9365,9.9433,9.9345,9.9295,9.9245,9.8802,9.8255,9.8015,9.7332,9.6514,9.6473,9.6431,9.6225,9.6182,9.6396,9.6069,9.5495,9.5227,9.496,9.496,9.5036,9.5118,9.5424,9.5451,9.5413,9.4944,9.4135,9.4146,9.4381,9.4294,9.4032,9.4043,9.3229,9.2035,9.0676,8.9672,8.8513,8.784,8.6868,8.611,8.5745,8.5455,8.5223,8.5,8.4774,12.1612,12.1535,12.0639,12.0716,12.1035,11.9754,11.8946,11.8561,11.7407,11.6715,11.6429,11.5989,11.5734,11.5398,11.4537,11.3129,11.1201,11.0968,11.0744,11.0289,10.9301,10.9578,11.0224,10.9983,10.9252,10.9944,11.0175,10.9588,10.7867,10.8329,10.8444,10.8559,10.8406,10.8329,10.8252,10.7982,10.7213,10.6933,10.6905,10.6944,10.7098,10.7098,10.7703,10.8983,10.7675,10.7405,10.8482,10.6905,10.6059,10.5636,10.5213,10.4559,10.4251,10.4135,10.4212,10.4328,10.4097,10.3905,10.3828,10.3751,10.3482,10.3443,10.3751,10.3328,10.252,10.1443,10.075,9.9788,9.9721,10.0183,10.0952,10.076,10.0711,10.0739,10.0478,10.0007,9.9661,9.9315,9.8931,9.8392,9.8073,9.7744,9.749,9.7323,9.7423,9.7461,9.6925,9.6925,9.6646,9.6504,9.6493,9.6401,9.6484,9.6511,9.6538,9.6489,9.574,9.5191,9.5702,9.5943,9.5604,9.5277,9.4501,9.4043,9.293,9.1902,9.0479,8.9287,8.8772,8.826,8.7761,8.7273,8.6883,8.6681,8.6491,12.1612,12.1535,12.0677,12.0369,12.0331,11.9485,11.8677,11.8023,11.7715,11.7176,11.6479,11.6586,11.6536,11.6193,11.5197,11.4091,11.3001,11.2045,11.1275,11.0647,11.0086,11.0005,11.0325,10.9406,10.9598,11.0214,10.9829,10.9136,10.8867,11.0049,11.0367,10.9944,11.0137,11.0598,10.956,10.9136,10.9367,10.8713,10.8521,10.8867,10.929,10.8829,10.9444,10.9867,10.8983,10.8021,10.8636,10.7098,10.5828,10.5559,10.4713,10.4482,10.4789,10.4943,10.5405,10.5405,10.4905,10.3905,10.4059,10.4289,10.4251,10.4289,10.4135,10.3482,10.2943,10.2289,10.1827,10.2289,10.2058,10.2212,10.2635,10.2597,10.2741,10.2462,10.1942,10.1749,10.1529,10.0615,10.0192,9.9855,9.9412,9.8986,9.8646,9.849,9.842,9.842,9.842,9.8382,9.819,9.7845,9.7842,9.774,9.7418,9.7435,9.7522,9.7511,9.7057,9.6347,9.6793,9.7358,9.6954,9.6615,9.7149,9.6538,9.538,9.4206,9.2918,9.1882,9.1081,9.0454,8.9946,8.9193,8.8424,8.8298,8.8334,12.1887,12.0843,12.0446,12.0292,12.0216,11.9446,11.8908,11.8407,11.7484,11.683,11.6391,11.5746,11.5368,11.5165,11.4757,11.3824,11.2539,11.1892,11.1467,11.0893,11.0468,11.0408,11.0805,11.0233,11.0098,11.056,11.0598,11.0637,11.0598,11.0444,11.0521,11.0406,11.056,11.0483,11.0252,10.9713,10.929,10.8944,10.8944,10.9367,10.9752,10.9521,10.9521,11.0675,10.9175,10.9021,10.8944,10.829,10.729,10.7098,10.6482,10.6174,10.6482,10.6597,10.679,10.6944,10.6521,10.5905,10.552,10.5751,10.5597,10.5366,10.5213,10.4982,10.4174,10.3635,10.3174,10.3289,10.3328,10.3597,10.3828,10.3558,10.3597,10.3482,10.3135,10.2751,10.252,10.2097,10.1471,10.1135,10.0702,10.0201,9.9775,9.9783,9.9762,9.98,9.9724,9.9647,9.9214,9.86,9.8731,9.9002,9.8593,9.8233,9.8369,9.8418,9.8106,9.7594,9.773,9.8117,9.8029,9.8025,9.8637,9.8527,9.7314,9.6205,9.5238,9.4014,9.2769,9.2418,9.2143,9.1484,9.0829,9.0476,9.0181,12.2194,12.065,12.0639,12.0523,12.0177,11.9215,11.8754,11.8561,11.7176,11.6562,11.6342,11.5506,11.4634,11.4012,11.4355,11.371,11.2006,11.1603,11.1598,11.1265,11.0899,11.0996,11.1293,11.1018,11.0916,11.1494,11.1318,11.128,11.1175,11.0983,11.0714,11.0521,11.0752,11.0637,11.0406,11.0137,10.9829,10.9829,10.9752,11.006,11.0367,11.0021,11.006,11.0137,10.9829,10.9521,10.9944,10.9252,10.879,10.8598,10.8175,10.779,10.7867,10.7867,10.7867,10.7982,10.7752,10.7405,10.6905,10.679,10.6982,10.6587,10.6136,10.5559,10.5443,10.5213,10.502,10.4559,10.4251,10.4328,10.4443,10.4405,10.4443,10.4405,10.4097,10.3558,10.3058,10.2635,10.2058,10.1366,10.1048,10.1125,10.0912,10.1046,10.1103,10.1141,10.1065,10.0901,10.0391,9.9738,10.0023,10.0411,9.9909,9.956,9.956,9.9494,9.9083,9.8968,9.9104,9.9229,9.9372,9.9703,10.0279,9.9835,9.9108,9.8424,9.7522,9.5936,9.4502,9.4481,9.4356,9.3928,9.3416,9.2863,9.192,12.2366,12.1485,12.1523,12.1062,12.0216,11.8561,11.7946,11.8061,11.6984,11.6704,11.674,11.6461,11.5551,11.4705,11.4438,11.4023,11.2962,11.2962,11.2739,11.2575,11.2479,11.2155,11.2056,11.177,11.1643,11.1689,11.1835,11.1766,11.1592,11.1686,11.147,11.1406,11.1214,11.1318,11.128,11.0972,11.0895,11.0934,11.0934,11.1011,11.1242,11.1126,11.1203,11.1049,11.0598,11.0137,11.0147,10.9444,10.8944,10.8944,10.8713,10.8829,10.879,10.8675,10.8636,10.879,10.8675,10.8252,10.779,10.7251,10.6664,10.6251,10.6059,10.6136,10.6444,10.4943,10.4828,10.5828,10.5405,10.5366,10.5559,10.5636,10.5405,10.5328,10.4982,10.4366,10.3828,10.3251,10.2597,10.1664,10.1356,10.1471,10.1279,10.124,10.1268,10.1268,10.1653,10.1499,10.1778,10.1384,10.1661,10.1803,10.1311,10.1021,10.0973,10.0819,10.0701,10.069,10.0788,10.0973,10.1109,10.1535,10.1762,10.1592,10.1006,10.0388,9.9781,9.857,9.7546,9.7002,9.6472,9.5706,9.463,9.3649,9.2907,12.4096,12.3139,12.3139,12.2331,12.1035,11.9831,11.9061,11.8484,11.7688,11.6904,11.6499,11.6924,11.6531,11.5494,11.5164,11.4734,11.3993,11.3915,11.3532,11.3252,11.3163,11.2995,11.2613,11.2411,11.2352,11.2652,11.2791,11.2664,11.257,11.2504,11.1979,11.1732,11.1675,11.1511,11.1511,11.1511,11.1511,11.1549,11.1511,11.1511,11.1511,11.1511,11.1511,11.1434,11.1329,11.0675,11.0252,10.9906,10.9444,10.906,10.8944,10.9252,10.956,10.9252,10.929,10.9521,10.929,10.8829,10.8559,10.8098,10.7944,10.7905,10.7675,10.7521,10.7752,10.679,10.6559,10.679,10.6405,10.6213,10.6136,10.6097,10.602,10.6097,10.5828,10.5174,10.4636,10.4097,10.3328,10.2404,10.2048,10.1933,10.1625,10.1279,10.1279,10.1308,10.1779,10.2212,10.2481,10.2712,10.2903,10.2834,10.2343,10.2197,10.2148,10.2205,10.2337,10.2348,10.2397,10.2532,10.262,10.2697,10.2879,10.2873,10.273,10.2063,10.1488,10.114,10.0122,9.8521,9.7593,9.7003,9.5828,9.4654,9.3991,12.522,12.4459,12.4216,12.3139,12.1535,12.0408,11.9638,11.8985,11.783,11.6972,11.617,11.7099,11.6877,11.5972,11.5635,11.54,11.4891,11.4734,11.4422,11.4279,11.427,11.4037,11.3641,11.3455,11.3623,11.3955,11.3936,11.3829,11.3515,11.358,11.3131,11.26,11.2214,11.2126,11.1511,11.1511,11.1588,11.178,11.1588,11.1511,11.1511,11.1511,11.1511,11.1511,11.1434,11.0983,11.0444,11.006,10.9867,10.9521,10.9444,10.979,11.006,11.0175,11.0098,11.006,10.9867,10.929,10.9252,10.9021,10.8906,10.8675,10.8713,10.8829,10.8983,10.8559,10.8059,10.8329,10.7559,10.678,10.6751,10.6559,10.6597,10.6664,10.6356,10.579,10.5443,10.4943,10.4097,10.3212,10.2981,10.2789,10.2674,10.2404,10.2164,10.2241,10.2597,10.302,10.3328,10.352,10.3712,10.3567,10.3229,10.317,10.3216,10.3147,10.3137,10.3293,10.3419,10.3852,10.3985,10.4061,10.3969,10.3886,10.3733,10.3432,10.2928,10.2293,10.0874,9.9253,9.8506,9.7795,9.7353,9.6265,9.5571,12.5394,12.5255,12.4447,12.3139,12.1497,11.9831,11.9138,11.8776,11.7414,11.6536,11.6352,11.6937,11.679,11.6062,11.6025,11.5828,11.5749,11.5674,11.5517,11.5352,11.5455,11.5398,11.5144,11.4945,11.482,11.4847,11.4931,11.4856,11.4464,11.4464,11.4171,11.3808,11.3422,11.3022,11.1703,11.1511,11.1934,11.2483,11.1934,11.1703,11.1665,11.1626,11.1511,11.1511,11.1511,11.1098,11.0406,11.0214,11.006,10.9944,10.9944,11.0367,11.1011,11.1021,11.106,11.1214,11.0521,11.0147,11.0137,10.9406,10.9213,10.929,10.9521,10.9598,10.9867,10.9521,10.9098,10.9367,10.8521,10.779,10.7405,10.7136,10.728,10.7241,10.6933,10.6559,10.6251,10.5751,10.4866,10.4097,10.3943,10.3866,10.3789,10.3674,10.3328,10.3328,10.3558,10.3866,10.4212,10.4212,10.4366,10.4289,10.399,10.4067,10.4026,10.3947,10.3975,10.4142,10.4421,10.4833,10.5169,10.526,10.5151,10.4959,10.4757,10.4543,10.3914,10.3244,10.197,10.0683,9.9261,9.8522,9.8244,9.7904,9.7199,12.5909,12.5332,12.4447,12.3139,12.1535,12.0369,11.9292,11.8212,11.7462,11.7058,11.7096,11.7595,11.774,11.735,11.6804,11.6569,11.6569,11.653,11.6413,11.583,11.6296,11.6048,11.5816,11.5791,11.5895,11.6187,11.6275,11.6095,11.589,11.5664,11.4978,11.4498,11.42,11.3725,11.3137,11.2791,11.2714,11.3253,11.2829,11.2291,11.2214,11.1857,11.1588,11.1588,11.1588,11.1137,11.0301,11.0214,11.0214,11.0214,11.0214,11.0637,11.1203,11.1203,11.1021,11.1175,11.0714,11.0521,11.0829,11.0752,11.0665,11.0549,11.0521,11.0598,11.0944,11.0252,11.0098,10.9944,10.9213,10.8598,10.8367,10.829,10.8329,10.8213,10.7944,10.7482,10.7059,10.6405,10.5664,10.5059,10.4713,10.4443,10.4328,10.4597,10.4443,10.4636,10.4905,10.5174,10.552,10.502,10.4876,10.4876,10.4789,10.4866,10.4885,10.4872,10.5015,10.5249,10.5459,10.5763,10.6022,10.606,10.5983,10.5665,10.5665,10.5578,10.4807,10.4029,10.335,10.2276,10.1023,10.0309,10.0275,9.9706,9.8754,12.6178,12.5332,12.4447,12.2947,12.1177,12.0216,11.8946,11.7551,11.7265,11.7302,11.7491,11.7927,11.8179,11.8043,11.774,11.7467,11.7467,11.7428,11.735,11.6689,11.7116,11.7111,11.6801,11.6569,11.6982,11.735,11.7419,11.7286,11.6952,11.6802,11.6244,11.5514,11.4766,11.4769,11.4407,11.4022,11.3599,11.3984,11.3676,11.3176,11.3022,11.2714,11.2291,11.2099,11.1829,11.1445,11.056,11.0214,11.0214,11.0214,11.0329,11.0637,11.1021,11.1137,11.0944,11.1098,11.1137,11.0983,11.1291,11.1434,11.128,11.1318,11.1511,11.1511,11.1472,11.0944,11.0752,11.0444,10.979,10.9521,10.9367,10.9329,10.9098,10.8944,10.8752,10.829,10.8213,10.7598,10.6713,10.6059,10.5636,10.529,10.5213,10.529,10.5482,10.5905,10.629,10.6521,10.6636,10.5944,10.5443,10.5443,10.5482,10.5559,10.5713,10.5856,10.6038,10.6318,10.6402,10.6438,10.6263,10.6235,10.6284,10.6312,10.6056,10.5755,10.5392,10.4784,10.4248,10.3766,10.3106,10.2632,10.247,10.1594,10.0539,12.614,12.5332,12.4447,12.2639,12.0485,11.9485,11.8061,11.6617,11.6904,11.7158,11.7427,11.7688,11.7988,11.8239,11.8211,11.8172,11.8133,11.8172,11.8094,11.8055,11.8014,11.8014,11.8055,11.7977,11.7936,11.8094,11.8124,11.7895,11.779,11.7527,11.7212,11.6685,11.5812,11.5769,11.55,11.5099,11.4753,11.4907,11.4522,11.4137,11.3945,11.3791,11.3291,11.2906,11.2522,11.1829,11.106,11.056,11.0444,11.0367,11.0367,11.0829,11.1175,11.1472,11.1511,11.1483,11.1434,11.1434,11.1472,11.1511,11.1511,11.1511,11.1511,11.1511,11.1472,11.1357,11.1242,11.106,11.0598,11.0406,11.0252,10.9906,10.9598,10.9483,10.9406,10.9329,10.9521,10.8906,10.7944,10.729,10.6905,10.6751,10.7021,10.7098,10.679,10.7482,10.779,10.7636,10.7521,10.6597,10.6174,10.6059,10.6136,10.6241,10.6356,10.6318,10.6318,10.6395,10.6664,10.671,10.6546,10.641,10.6487,10.6455,10.6172,10.592,10.5667,10.5471,10.5229,10.4783,10.4385,10.4173,10.377,10.3302,10.2514,12.564,12.5255,12.387,12.2447,12.1023,11.9061,11.7523,11.6639,11.6847,11.715,11.742,11.7673,11.7959,11.8282,11.8289,11.8289,11.8289,11.8289,11.8289,11.8289,11.8289,11.8289,11.8289,11.8289,11.8289,11.8289,11.8282,11.8231,11.8106,11.7963,11.7534,11.6938,11.6585,11.6534,11.6308,11.6034,11.5995,11.5803,11.5264,11.5022,11.4753,11.4484,11.4022,11.3676,11.3137,11.2483,11.2022,11.1406,11.1252,11.1137,11.1137,11.1357,11.1395,11.1511,11.1511,11.1511,11.1511,11.1511,11.1511,11.1511,11.1511,11.1511,11.1511,11.1511,11.1511,11.1511,11.1511,11.1318,11.1214,11.0983,11.0906,11.0675,11.0483,11.0406,11.0214,11.006,11.0098,10.9329,10.8444,10.8175,10.7829,10.7982,10.8367,10.8252,10.8059,10.8906,10.9213,10.8906,10.8367,10.7405,10.679,10.6674,10.6395,10.6395,10.6395,10.6356,10.6356,10.6433,10.678,10.6933,10.6654,10.6556,10.67,10.6668,10.6451,10.6265,10.6101,10.5904,10.5717,10.5725,10.5392,10.5256,10.5044,10.4461,10.4067,12.4986,12.4332,12.337,12.2216,12.0869,11.91,11.783,11.7078,11.6861,11.7082,11.7663,11.7638,11.7794,11.8096,11.8224,11.8289,11.8289,11.8289,11.8289,11.8289,11.8289,11.8289,11.8289,11.8289,11.8289,11.8289,11.8289,11.8285,11.8224,11.7966,11.7575,11.7373,11.7174,11.6913,11.665,11.6473,11.6418,11.6303,11.6072,11.583,11.5522,11.5215,11.4945,11.4445,11.3868,11.3599,11.3176,11.2599,11.2368,11.2049,11.1972,11.178,11.1665,11.1511,11.1511,11.1511,11.1511,11.1511,11.1511,11.1511,11.1511,11.1511,11.1511,11.1511,11.1511,11.1511,11.1511,11.1434,11.1472,11.1472,11.1472,11.1472,11.1472,11.1434,11.1098,11.0752,11.0137,10.9444,10.9098,10.8906,10.8906,10.9021,10.9098,10.9021,10.9213,10.9867,10.9867,10.9329,10.8829,10.8059,10.7444,10.7175,10.6713,10.6395,10.6395,10.6433,10.6433,10.6626,10.7098,10.7136,10.6828,10.6818,10.7038,10.6962,10.6769,10.6651,10.6521,10.6329,10.6182,10.6106,10.5993,10.579,10.5545,10.5261,10.4982,12.437,12.2935,12.2754,12.1716,12.0292,11.9292,11.8484,11.7842,11.7018,11.7123,11.7855,11.7598,11.7603,11.8009,11.8216,11.8287,11.8289,11.8289,11.8289,11.8289,11.8289,11.8289,11.8289,11.8289,11.8289,11.8289,11.8289,11.8287,11.8224,11.8037,11.788,11.778,11.7302,11.702,11.6913,11.6631,11.6506,11.6457,11.6418,11.6292,11.6369,11.6303,11.6187,11.5495,11.5138,11.4868,11.4291,11.3868,11.3599,11.3022,11.256,11.2242,11.1742,11.1511,11.1511,11.1511,11.1511,11.1511,11.1511,11.1511,11.1511,11.1511,11.1511,11.1511,11.1511,11.1511,11.1511,11.1511,11.1511,11.1511,11.1511,11.1511,11.1511,11.1511,11.1318,11.1137,11.0868,11.0291,10.9906,10.9752,10.9713,10.9906,11.0137,11.006,11.0098,11.0752,11.0675,11.0021,10.9521,10.8867,10.8175,10.7713,10.7213,10.678,10.6472,10.651,10.651,10.678,10.729,10.7136,10.6636,10.6905,10.7367,10.7328,10.729,10.7098,10.6951,10.6825,10.6591,10.6227,10.6112,10.6112,10.5974,10.5813,10.5615,12.3832,12.2793,12.1485,12.0639,12.0139,11.8715,11.843,11.8634,11.7405,11.7171,11.7506,11.7523,11.7685,11.8096,11.8226,11.8289,11.8289,11.8289,11.8289,11.8289,11.8289,11.8289,11.8289,11.8289,11.8289,11.8289,11.8289,11.8289,11.8278,11.8168,11.8031,11.7798,11.7446,11.7228,11.702,11.6717,11.6573,11.6506,11.6573,11.6573,11.6562,11.6517,11.6341,11.5995,11.5726,11.5368,11.483,11.4368,11.3637,11.2868,11.2753,11.2252,11.1549,11.1511,11.1511,11.1511,11.1549,11.1588,11.1549,11.1588,11.1665,11.1549,11.1549,11.1511,11.1511,11.1511,11.1511,11.1511,11.1511,11.1511,11.1511,11.1511,11.1511,11.1511,11.1511,11.1511,11.1511,11.1137,11.0714,11.0637,11.056,11.0714,11.0944,11.1098,11.1165,11.1242,11.128,11.0983,11.0637,11.006,10.8906,10.8329,10.7829,10.7367,10.6944,10.678,10.6856,10.6933,10.729,10.6982,10.6559,10.7175,10.7829,10.7905,10.7867,10.7829,10.7713,10.7472,10.7161,10.678,10.6489,10.6555,10.6474,10.6314,10.6047,12.3101,12.2201,12.1056,12.0757,12.0721,11.9406,11.9028,11.9191,11.8254,11.7673,11.7596,11.7603,11.7809,11.8112,11.8224,11.8289,11.8289,11.8289,11.8289,11.8289,11.8289,11.8289,11.8289,11.8289,11.8289,11.8289,11.8289,11.8289,11.8289,11.8282,11.816,11.7966,11.7727,11.7433,11.7166,11.6865,11.6631,11.6506,11.6631,11.6697,11.6704,11.662,11.6517,11.6264,11.6122,11.5814,11.5715,11.5291,11.4714,11.3753,11.3253,11.2319,11.1703,11.1511,11.1511,11.1626,11.1742,11.1895,11.1703,11.1791,11.1906,11.1895,11.1588,11.1588,11.2011,11.1972,11.1549,11.1511,11.1511,11.1511,11.1511,11.1511,11.1511,11.1511,11.1511,11.1511,11.1511,11.1357,11.1137,11.1098,11.1049,11.1165,11.1318,11.1318,11.1395,11.1395,11.1472,11.1472,11.1252,11.0944,10.9867,10.9098,10.8636,10.7944,10.7367,10.729,10.7367,10.7405,10.7482,10.7328,10.729,10.7829,10.829,10.8329,10.8521,10.8829,10.8675,10.8252,10.8087,10.7853,10.7448,10.7091,10.6972,10.694,10.6825,12.2548,12.1695,12.1116,12.114,12.1494,12.0285,11.958,11.9406,11.8832,11.8269,11.7858,11.7859,11.7872,11.797,11.8157,11.8231,11.8289,11.8289,11.8289,11.8289,11.8289,11.8289,11.8289,11.8289,11.8289,11.8289,11.8289,11.8289,11.8289,11.8287,11.828,11.8226,11.7966,11.7652,11.7407,11.7125,11.6847,11.6748,11.6827,11.6966,11.6922,11.6779,11.6709,11.6645,11.6567,11.6583,11.6545,11.6364,11.6017,11.4907,11.3599,11.2599,11.2049,11.1819,11.1819,11.1934,11.2252,11.2099,11.1868,11.2165,11.2319,11.2319,11.1868,11.1868,11.2291,11.206,11.1626,11.1511,11.1511,11.1511,11.1511,11.1511,11.1511,11.1511,11.1511,11.1511,11.1511,11.1511,11.1472,11.1434,11.1472,11.1511,11.1511,11.1511,11.1511,11.1511,11.1511,11.1511,11.1434,11.1098,11.0444,10.9983,10.9713,10.8944,10.8059,10.8098,10.8252,10.7982,10.8059,10.7944,10.8021,10.8636,10.8906,10.8752,10.8983,10.9598,10.9367,10.8867,10.878,10.8741,10.8308,10.7864,10.8017,10.7947,10.7783,12.3117,12.2271,12.1487,12.0849,12.0236,11.9335,11.8533,11.7951,11.8025,11.7887,11.7919,11.8103,11.8218,11.8218,11.8234,11.8289,11.8289,11.8289,11.8289,11.8289,11.8289,11.8289,11.828,11.8229,11.8285,11.8285,11.8282,11.8285,11.8287,11.8289,11.8287,11.8241,11.7974,11.7667,11.7407,11.7166,11.6984,11.6922,11.6957,11.71,11.7302,11.7258,11.7251,11.7174,11.7028,11.6969,11.6837,11.6642,11.605,11.5022,11.3868,11.2983,11.2599,11.2483,11.2445,11.2445,11.2753,11.2445,11.2329,11.256,11.2714,11.2329,11.1983,11.2022,11.2099,11.178,11.1511,11.1511,11.1511,11.1511,11.1511,11.1511,11.1511,11.1511,11.1511,11.1511,11.1511,11.1511,11.1511,11.1472,11.1511,11.1511,11.1511,11.1511,11.1511,11.1511,11.1511,11.1511,11.1511,11.1252,11.0944,11.0791,11.0598,10.9906,10.9021,10.9252,10.9367,10.8983,10.8598,10.8444,10.8675,10.9483,10.9637,10.9367,10.9906,11.0637,11.0214,10.956,10.9444,10.9318,10.8983,10.8703,10.8906,10.8895,10.872]}]]